<?xml version="1.0" encoding="UTF-8" standalone="no" ?>
<gpx xmlns="http://www.topografix.com/GPX/1/1" xmlns:xsi="http://www.w3.org/2001/XMLSchema-instance" xsi:schemaLocation="http://www.topografix.com/GPX/1/1 http://www.topografix.com/GPX/1/1/gpx.xsd" version="1.1" creator="VisuGPX - https://www.visugpx.com">
  <metadata>
    <name>150924ROBBenjamins</name>
    <desc><![CDATA[Bonne sortie de demarrage]]></desc>
  </metadata>
  <trk>
    <name><![CDATA[150923ROBBenjamins]]></name>
    <trkseg>
      <trkpt lat="43.41581" lon="6.07005">
        <ele>205.39999389648</ele>
        <time>2015-09-23T12:09:18Z</time>
      </trkpt>
      <trkpt lat="43.41581" lon="6.07051">
        <ele>205.39999389648</ele>
        <time>2015-09-23T12:09:29Z</time>
      </trkpt>
      <trkpt lat="43.4158" lon="6.07059">
        <ele>205.60000610352</ele>
        <time>2015-09-23T12:09:31Z</time>
      </trkpt>
      <trkpt lat="43.4158" lon="6.07069">
        <ele>205.39999389648</ele>
        <time>2015-09-23T12:09:33Z</time>
      </trkpt>
      <trkpt lat="43.41581" lon="6.07089">
        <ele>205.39999389648</ele>
        <time>2015-09-23T12:09:38Z</time>
      </trkpt>
      <trkpt lat="43.41579" lon="6.07108">
        <ele>205</ele>
        <time>2015-09-23T12:09:42Z</time>
      </trkpt>
      <trkpt lat="43.41577" lon="6.07111">
        <ele>205</ele>
        <time>2015-09-23T12:09:43Z</time>
      </trkpt>
      <trkpt lat="43.41569" lon="6.07116">
        <ele>205.19999694824</ele>
        <time>2015-09-23T12:09:46Z</time>
      </trkpt>
      <trkpt lat="43.41568" lon="6.07117">
        <ele>205.19999694824</ele>
        <time>2015-09-23T12:09:47Z</time>
      </trkpt>
      <trkpt lat="43.41559" lon="6.07122">
        <ele>205.19999694824</ele>
        <time>2015-09-23T12:09:53Z</time>
      </trkpt>
      <trkpt lat="43.41547" lon="6.07112">
        <ele>205</ele>
        <time>2015-09-23T12:09:58Z</time>
      </trkpt>
      <trkpt lat="43.41544" lon="6.07094">
        <ele>204.39999389648</ele>
        <time>2015-09-23T12:10:02Z</time>
      </trkpt>
      <trkpt lat="43.41537" lon="6.07082">
        <ele>204.80000305176</ele>
        <time>2015-09-23T12:10:05Z</time>
      </trkpt>
      <trkpt lat="43.41534" lon="6.0708">
        <ele>204.39999389648</ele>
        <time>2015-09-23T12:10:06Z</time>
      </trkpt>
      <trkpt lat="43.41529" lon="6.0708">
        <ele>204</ele>
        <time>2015-09-23T12:10:07Z</time>
      </trkpt>
      <trkpt lat="43.41515" lon="6.07082">
        <ele>203.60000610352</ele>
        <time>2015-09-23T12:10:10Z</time>
      </trkpt>
      <trkpt lat="43.415" lon="6.07083">
        <ele>203.80000305176</ele>
        <time>2015-09-23T12:10:13Z</time>
      </trkpt>
      <trkpt lat="43.41487" lon="6.07078">
        <ele>203.60000610352</ele>
        <time>2015-09-23T12:10:16Z</time>
      </trkpt>
      <trkpt lat="43.41476" lon="6.07075">
        <ele>203.19999694824</ele>
        <time>2015-09-23T12:10:19Z</time>
      </trkpt>
      <trkpt lat="43.41474" lon="6.07075">
        <ele>203.39999389648</ele>
        <time>2015-09-23T12:10:20Z</time>
      </trkpt>
      <trkpt lat="43.41471" lon="6.07074">
        <ele>203.39999389648</ele>
        <time>2015-09-23T12:10:23Z</time>
      </trkpt>
      <trkpt lat="43.4147" lon="6.07074">
        <ele>202.80000305176</ele>
        <time>2015-09-23T12:10:26Z</time>
      </trkpt>
      <trkpt lat="43.4147" lon="6.07075">
        <ele>202.80000305176</ele>
        <time>2015-09-23T12:10:37Z</time>
      </trkpt>
      <trkpt lat="43.41469" lon="6.07074">
        <ele>202.39999389648</ele>
        <time>2015-09-23T12:10:43Z</time>
      </trkpt>
      <trkpt lat="43.41468" lon="6.07075">
        <ele>202.39999389648</ele>
        <time>2015-09-23T12:10:52Z</time>
      </trkpt>
      <trkpt lat="43.41466" lon="6.07072">
        <ele>202.60000610352</ele>
        <time>2015-09-23T12:11:06Z</time>
      </trkpt>
      <trkpt lat="43.41466" lon="6.07069">
        <ele>202.39999389648</ele>
        <time>2015-09-23T12:11:07Z</time>
      </trkpt>
      <trkpt lat="43.41472" lon="6.07053">
        <ele>202.60000610352</ele>
        <time>2015-09-23T12:11:11Z</time>
      </trkpt>
      <trkpt lat="43.41475" lon="6.07048">
        <ele>202.60000610352</ele>
        <time>2015-09-23T12:11:12Z</time>
      </trkpt>
      <trkpt lat="43.41477" lon="6.07042">
        <ele>202.60000610352</ele>
        <time>2015-09-23T12:11:13Z</time>
      </trkpt>
      <trkpt lat="43.41486" lon="6.07023">
        <ele>203</ele>
        <time>2015-09-23T12:11:16Z</time>
      </trkpt>
      <trkpt lat="43.41488" lon="6.07015">
        <ele>203.19999694824</ele>
        <time>2015-09-23T12:11:17Z</time>
      </trkpt>
      <trkpt lat="43.41492" lon="6.06999">
        <ele>203.60000610352</ele>
        <time>2015-09-23T12:11:19Z</time>
      </trkpt>
      <trkpt lat="43.41492" lon="6.06985">
        <ele>203.39999389648</ele>
        <time>2015-09-23T12:11:21Z</time>
      </trkpt>
      <trkpt lat="43.41489" lon="6.06967">
        <ele>203.60000610352</ele>
        <time>2015-09-23T12:11:24Z</time>
      </trkpt>
      <trkpt lat="43.41487" lon="6.06962">
        <ele>203.60000610352</ele>
        <time>2015-09-23T12:11:25Z</time>
      </trkpt>
      <trkpt lat="43.41479" lon="6.06949">
        <ele>204</ele>
        <time>2015-09-23T12:11:28Z</time>
      </trkpt>
      <trkpt lat="43.41471" lon="6.06937">
        <ele>204.19999694824</ele>
        <time>2015-09-23T12:11:31Z</time>
      </trkpt>
      <trkpt lat="43.4146" lon="6.06926">
        <ele>204.80000305176</ele>
        <time>2015-09-23T12:11:36Z</time>
      </trkpt>
      <trkpt lat="43.41458" lon="6.06911">
        <ele>204.80000305176</ele>
        <time>2015-09-23T12:11:41Z</time>
      </trkpt>
      <trkpt lat="43.41461" lon="6.06896">
        <ele>204.60000610352</ele>
        <time>2015-09-23T12:11:45Z</time>
      </trkpt>
      <trkpt lat="43.41461" lon="6.06891">
        <ele>204.60000610352</ele>
        <time>2015-09-23T12:11:46Z</time>
      </trkpt>
      <trkpt lat="43.41455" lon="6.0687">
        <ele>205</ele>
        <time>2015-09-23T12:11:50Z</time>
      </trkpt>
      <trkpt lat="43.41451" lon="6.06867">
        <ele>205</ele>
        <time>2015-09-23T12:11:51Z</time>
      </trkpt>
      <trkpt lat="43.41439" lon="6.06863">
        <ele>204.80000305176</ele>
        <time>2015-09-23T12:11:54Z</time>
      </trkpt>
      <trkpt lat="43.4143" lon="6.06863">
        <ele>205</ele>
        <time>2015-09-23T12:11:56Z</time>
      </trkpt>
      <trkpt lat="43.4142" lon="6.06862">
        <ele>205</ele>
        <time>2015-09-23T12:11:58Z</time>
      </trkpt>
      <trkpt lat="43.4141" lon="6.06857">
        <ele>204.60000610352</ele>
        <time>2015-09-23T12:12:00Z</time>
      </trkpt>
      <trkpt lat="43.41397" lon="6.06845">
        <ele>204.39999389648</ele>
        <time>2015-09-23T12:12:03Z</time>
      </trkpt>
      <trkpt lat="43.41388" lon="6.06838">
        <ele>204.60000610352</ele>
        <time>2015-09-23T12:12:05Z</time>
      </trkpt>
      <trkpt lat="43.41351" lon="6.06817">
        <ele>204.60000610352</ele>
        <time>2015-09-23T12:12:13Z</time>
      </trkpt>
      <trkpt lat="43.41314" lon="6.06797">
        <ele>203.80000305176</ele>
        <time>2015-09-23T12:12:20Z</time>
      </trkpt>
      <trkpt lat="43.41289" lon="6.06772">
        <ele>203.19999694824</ele>
        <time>2015-09-23T12:12:25Z</time>
      </trkpt>
      <trkpt lat="43.41285" lon="6.06766">
        <ele>202.80000305176</ele>
        <time>2015-09-23T12:12:26Z</time>
      </trkpt>
      <trkpt lat="43.41282" lon="6.06759">
        <ele>202.60000610352</ele>
        <time>2015-09-23T12:12:27Z</time>
      </trkpt>
      <trkpt lat="43.41273" lon="6.06729">
        <ele>202.80000305176</ele>
        <time>2015-09-23T12:12:31Z</time>
      </trkpt>
      <trkpt lat="43.41271" lon="6.06714">
        <ele>203.19999694824</ele>
        <time>2015-09-23T12:12:33Z</time>
      </trkpt>
      <trkpt lat="43.41269" lon="6.06696">
        <ele>203.39999389648</ele>
        <time>2015-09-23T12:12:36Z</time>
      </trkpt>
      <trkpt lat="43.41268" lon="6.06691">
        <ele>203.60000610352</ele>
        <time>2015-09-23T12:12:37Z</time>
      </trkpt>
      <trkpt lat="43.41263" lon="6.06685">
        <ele>203.60000610352</ele>
        <time>2015-09-23T12:12:39Z</time>
      </trkpt>
      <trkpt lat="43.41259" lon="6.06686">
        <ele>203.39999389648</ele>
        <time>2015-09-23T12:12:40Z</time>
      </trkpt>
      <trkpt lat="43.41246" lon="6.0669">
        <ele>202.60000610352</ele>
        <time>2015-09-23T12:12:43Z</time>
      </trkpt>
      <trkpt lat="43.41245" lon="6.06693">
        <ele>202.19999694824</ele>
        <time>2015-09-23T12:12:44Z</time>
      </trkpt>
      <trkpt lat="43.41243" lon="6.06695">
        <ele>201.60000610352</ele>
        <time>2015-09-23T12:12:47Z</time>
      </trkpt>
      <trkpt lat="43.41243" lon="6.06698">
        <ele>201.19999694824</ele>
        <time>2015-09-23T12:12:55Z</time>
      </trkpt>
      <trkpt lat="43.41243" lon="6.06698">
        <ele>201.19999694824</ele>
        <time>2015-09-23T12:12:56Z</time>
      </trkpt>
      <trkpt lat="43.41242" lon="6.06701">
        <ele>201.19999694824</ele>
        <time>2015-09-23T12:13:01Z</time>
      </trkpt>
      <trkpt lat="43.41242" lon="6.06704">
        <ele>201.60000610352</ele>
        <time>2015-09-23T12:13:03Z</time>
      </trkpt>
      <trkpt lat="43.41243" lon="6.06706">
        <ele>201.60000610352</ele>
        <time>2015-09-23T12:13:04Z</time>
      </trkpt>
      <trkpt lat="43.41246" lon="6.06713">
        <ele>201.60000610352</ele>
        <time>2015-09-23T12:13:09Z</time>
      </trkpt>
      <trkpt lat="43.41246" lon="6.06714">
        <ele>201.80000305176</ele>
        <time>2015-09-23T12:13:15Z</time>
      </trkpt>
      <trkpt lat="43.41245" lon="6.06716">
        <ele>201.60000610352</ele>
        <time>2015-09-23T12:13:20Z</time>
      </trkpt>
      <trkpt lat="43.41232" lon="6.06715">
        <ele>200.80000305176</ele>
        <time>2015-09-23T12:13:24Z</time>
      </trkpt>
      <trkpt lat="43.41204" lon="6.06717">
        <ele>199.80000305176</ele>
        <time>2015-09-23T12:13:30Z</time>
      </trkpt>
      <trkpt lat="43.41199" lon="6.06718">
        <ele>199.80000305176</ele>
        <time>2015-09-23T12:13:31Z</time>
      </trkpt>
      <trkpt lat="43.4118" lon="6.06717">
        <ele>199.60000610352</ele>
        <time>2015-09-23T12:13:35Z</time>
      </trkpt>
      <trkpt lat="43.41161" lon="6.06715">
        <ele>199.80000305176</ele>
        <time>2015-09-23T12:13:39Z</time>
      </trkpt>
      <trkpt lat="43.41152" lon="6.06716">
        <ele>199</ele>
        <time>2015-09-23T12:13:41Z</time>
      </trkpt>
      <trkpt lat="43.41147" lon="6.06717">
        <ele>198.80000305176</ele>
        <time>2015-09-23T12:13:42Z</time>
      </trkpt>
      <trkpt lat="43.41125" lon="6.06726">
        <ele>199.60000610352</ele>
        <time>2015-09-23T12:13:47Z</time>
      </trkpt>
      <trkpt lat="43.41117" lon="6.06731">
        <ele>199.80000305176</ele>
        <time>2015-09-23T12:13:49Z</time>
      </trkpt>
      <trkpt lat="43.41108" lon="6.06737">
        <ele>199.60000610352</ele>
        <time>2015-09-23T12:13:51Z</time>
      </trkpt>
      <trkpt lat="43.411" lon="6.06742">
        <ele>199.19999694824</ele>
        <time>2015-09-23T12:13:53Z</time>
      </trkpt>
      <trkpt lat="43.41092" lon="6.0675">
        <ele>199.19999694824</ele>
        <time>2015-09-23T12:13:56Z</time>
      </trkpt>
      <trkpt lat="43.41084" lon="6.06767">
        <ele>199</ele>
        <time>2015-09-23T12:14:00Z</time>
      </trkpt>
      <trkpt lat="43.41083" lon="6.06774">
        <ele>199</ele>
        <time>2015-09-23T12:14:01Z</time>
      </trkpt>
      <trkpt lat="43.41078" lon="6.06807">
        <ele>199</ele>
        <time>2015-09-23T12:14:06Z</time>
      </trkpt>
      <trkpt lat="43.41071" lon="6.06837">
        <ele>199.19999694824</ele>
        <time>2015-09-23T12:14:12Z</time>
      </trkpt>
      <trkpt lat="43.4107" lon="6.06847">
        <ele>199</ele>
        <time>2015-09-23T12:14:17Z</time>
      </trkpt>
      <trkpt lat="43.41069" lon="6.06848">
        <ele>199.19999694824</ele>
        <time>2015-09-23T12:14:18Z</time>
      </trkpt>
      <trkpt lat="43.41069" lon="6.06855">
        <ele>199.19999694824</ele>
        <time>2015-09-23T12:14:23Z</time>
      </trkpt>
      <trkpt lat="43.41068" lon="6.06869">
        <ele>200</ele>
        <time>2015-09-23T12:14:27Z</time>
      </trkpt>
      <trkpt lat="43.41067" lon="6.06871">
        <ele>200.19999694824</ele>
        <time>2015-09-23T12:14:28Z</time>
      </trkpt>
      <trkpt lat="43.41062" lon="6.06873">
        <ele>200.60000610352</ele>
        <time>2015-09-23T12:14:31Z</time>
      </trkpt>
      <trkpt lat="43.41059" lon="6.06875">
        <ele>200.80000305176</ele>
        <time>2015-09-23T12:14:33Z</time>
      </trkpt>
      <trkpt lat="43.41045" lon="6.06881">
        <ele>200.39999389648</ele>
        <time>2015-09-23T12:14:39Z</time>
      </trkpt>
      <trkpt lat="43.41032" lon="6.06887">
        <ele>199.19999694824</ele>
        <time>2015-09-23T12:14:42Z</time>
      </trkpt>
      <trkpt lat="43.41026" lon="6.06891">
        <ele>199</ele>
        <time>2015-09-23T12:14:44Z</time>
      </trkpt>
      <trkpt lat="43.41025" lon="6.06892">
        <ele>199</ele>
        <time>2015-09-23T12:14:47Z</time>
      </trkpt>
      <trkpt lat="43.41024" lon="6.06893">
        <ele>199</ele>
        <time>2015-09-23T12:14:55Z</time>
      </trkpt>
      <trkpt lat="43.41024" lon="6.06893">
        <ele>198.80000305176</ele>
        <time>2015-09-23T12:14:59Z</time>
      </trkpt>
      <trkpt lat="43.41021" lon="6.06898">
        <ele>199</ele>
        <time>2015-09-23T12:15:06Z</time>
      </trkpt>
      <trkpt lat="43.41012" lon="6.06911">
        <ele>199.19999694824</ele>
        <time>2015-09-23T12:15:11Z</time>
      </trkpt>
      <trkpt lat="43.40992" lon="6.06926">
        <ele>199.19999694824</ele>
        <time>2015-09-23T12:15:16Z</time>
      </trkpt>
      <trkpt lat="43.40988" lon="6.06927">
        <ele>199.19999694824</ele>
        <time>2015-09-23T12:15:17Z</time>
      </trkpt>
      <trkpt lat="43.40967" lon="6.06932">
        <ele>199</ele>
        <time>2015-09-23T12:15:21Z</time>
      </trkpt>
      <trkpt lat="43.4095" lon="6.06938">
        <ele>198.80000305176</ele>
        <time>2015-09-23T12:15:24Z</time>
      </trkpt>
      <trkpt lat="43.40926" lon="6.06946">
        <ele>199</ele>
        <time>2015-09-23T12:15:28Z</time>
      </trkpt>
      <trkpt lat="43.40911" lon="6.06952">
        <ele>199</ele>
        <time>2015-09-23T12:15:31Z</time>
      </trkpt>
      <trkpt lat="43.40905" lon="6.06964">
        <ele>199.39999389648</ele>
        <time>2015-09-23T12:15:33Z</time>
      </trkpt>
      <trkpt lat="43.40888" lon="6.06982">
        <ele>200.39999389648</ele>
        <time>2015-09-23T12:15:37Z</time>
      </trkpt>
      <trkpt lat="43.40884" lon="6.06985">
        <ele>200.39999389648</ele>
        <time>2015-09-23T12:15:38Z</time>
      </trkpt>
      <trkpt lat="43.40863" lon="6.06993">
        <ele>199.80000305176</ele>
        <time>2015-09-23T12:15:42Z</time>
      </trkpt>
      <trkpt lat="43.40858" lon="6.06995">
        <ele>200</ele>
        <time>2015-09-23T12:15:43Z</time>
      </trkpt>
      <trkpt lat="43.40845" lon="6.07004">
        <ele>200</ele>
        <time>2015-09-23T12:15:47Z</time>
      </trkpt>
      <trkpt lat="43.40841" lon="6.07009">
        <ele>200</ele>
        <time>2015-09-23T12:15:51Z</time>
      </trkpt>
      <trkpt lat="43.40839" lon="6.07025">
        <ele>199.60000610352</ele>
        <time>2015-09-23T12:15:55Z</time>
      </trkpt>
      <trkpt lat="43.4084" lon="6.07036">
        <ele>199.60000610352</ele>
        <time>2015-09-23T12:15:57Z</time>
      </trkpt>
      <trkpt lat="43.40842" lon="6.07055">
        <ele>199.80000305176</ele>
        <time>2015-09-23T12:16:00Z</time>
      </trkpt>
      <trkpt lat="43.40843" lon="6.07101">
        <ele>199.39999389648</ele>
        <time>2015-09-23T12:16:06Z</time>
      </trkpt>
      <trkpt lat="43.40841" lon="6.07124">
        <ele>199.39999389648</ele>
        <time>2015-09-23T12:16:09Z</time>
      </trkpt>
      <trkpt lat="43.40835" lon="6.07146">
        <ele>199.39999389648</ele>
        <time>2015-09-23T12:16:12Z</time>
      </trkpt>
      <trkpt lat="43.40819" lon="6.07188">
        <ele>199.39999389648</ele>
        <time>2015-09-23T12:16:18Z</time>
      </trkpt>
      <trkpt lat="43.40794" lon="6.07224">
        <ele>199.80000305176</ele>
        <time>2015-09-23T12:16:24Z</time>
      </trkpt>
      <trkpt lat="43.40767" lon="6.07246">
        <ele>199.80000305176</ele>
        <time>2015-09-23T12:16:29Z</time>
      </trkpt>
      <trkpt lat="43.40725" lon="6.0727">
        <ele>200</ele>
        <time>2015-09-23T12:16:37Z</time>
      </trkpt>
      <trkpt lat="43.40704" lon="6.07282">
        <ele>200.39999389648</ele>
        <time>2015-09-23T12:16:41Z</time>
      </trkpt>
      <trkpt lat="43.40679" lon="6.07297">
        <ele>201.60000610352</ele>
        <time>2015-09-23T12:16:46Z</time>
      </trkpt>
      <trkpt lat="43.40644" lon="6.07317">
        <ele>202.60000610352</ele>
        <time>2015-09-23T12:16:54Z</time>
      </trkpt>
      <trkpt lat="43.4064" lon="6.07319">
        <ele>202.80000305176</ele>
        <time>2015-09-23T12:16:55Z</time>
      </trkpt>
      <trkpt lat="43.40632" lon="6.07323">
        <ele>203.39999389648</ele>
        <time>2015-09-23T12:16:57Z</time>
      </trkpt>
      <trkpt lat="43.40624" lon="6.0732">
        <ele>203.60000610352</ele>
        <time>2015-09-23T12:16:59Z</time>
      </trkpt>
      <trkpt lat="43.40614" lon="6.07309">
        <ele>203.60000610352</ele>
        <time>2015-09-23T12:17:03Z</time>
      </trkpt>
      <trkpt lat="43.40609" lon="6.07304">
        <ele>204</ele>
        <time>2015-09-23T12:17:06Z</time>
      </trkpt>
      <trkpt lat="43.40608" lon="6.07303">
        <ele>204.19999694824</ele>
        <time>2015-09-23T12:17:08Z</time>
      </trkpt>
      <trkpt lat="43.40607" lon="6.07302">
        <ele>205.19999694824</ele>
        <time>2015-09-23T12:17:13Z</time>
      </trkpt>
      <trkpt lat="43.40607" lon="6.07302">
        <ele>205.19999694824</ele>
        <time>2015-09-23T12:17:15Z</time>
      </trkpt>
      <trkpt lat="43.40607" lon="6.07302">
        <ele>204.80000305176</ele>
        <time>2015-09-23T12:17:25Z</time>
      </trkpt>
      <trkpt lat="43.40607" lon="6.07302">
        <ele>204.39999389648</ele>
        <time>2015-09-23T12:17:29Z</time>
      </trkpt>
      <trkpt lat="43.40607" lon="6.07302">
        <ele>204.60000610352</ele>
        <time>2015-09-23T12:17:37Z</time>
      </trkpt>
      <trkpt lat="43.40606" lon="6.07299">
        <ele>204.39999389648</ele>
        <time>2015-09-23T12:17:44Z</time>
      </trkpt>
      <trkpt lat="43.40599" lon="6.07292">
        <ele>204.60000610352</ele>
        <time>2015-09-23T12:17:47Z</time>
      </trkpt>
      <trkpt lat="43.40596" lon="6.0729">
        <ele>204.39999389648</ele>
        <time>2015-09-23T12:17:48Z</time>
      </trkpt>
      <trkpt lat="43.40588" lon="6.07289">
        <ele>204.80000305176</ele>
        <time>2015-09-23T12:17:51Z</time>
      </trkpt>
      <trkpt lat="43.40586" lon="6.07291">
        <ele>205</ele>
        <time>2015-09-23T12:17:52Z</time>
      </trkpt>
      <trkpt lat="43.40572" lon="6.07301">
        <ele>205.19999694824</ele>
        <time>2015-09-23T12:17:57Z</time>
      </trkpt>
      <trkpt lat="43.40552" lon="6.07297">
        <ele>206</ele>
        <time>2015-09-23T12:18:02Z</time>
      </trkpt>
      <trkpt lat="43.40539" lon="6.07295">
        <ele>206.19999694824</ele>
        <time>2015-09-23T12:18:05Z</time>
      </trkpt>
      <trkpt lat="43.40527" lon="6.0729">
        <ele>206.39999389648</ele>
        <time>2015-09-23T12:18:08Z</time>
      </trkpt>
      <trkpt lat="43.40523" lon="6.07288">
        <ele>206.19999694824</ele>
        <time>2015-09-23T12:18:09Z</time>
      </trkpt>
      <trkpt lat="43.40495" lon="6.07277">
        <ele>206.19999694824</ele>
        <time>2015-09-23T12:18:16Z</time>
      </trkpt>
      <trkpt lat="43.40472" lon="6.07277">
        <ele>206.80000305176</ele>
        <time>2015-09-23T12:18:22Z</time>
      </trkpt>
      <trkpt lat="43.40465" lon="6.07278">
        <ele>207.19999694824</ele>
        <time>2015-09-23T12:18:24Z</time>
      </trkpt>
      <trkpt lat="43.40443" lon="6.07279">
        <ele>207.80000305176</ele>
        <time>2015-09-23T12:18:30Z</time>
      </trkpt>
      <trkpt lat="43.40429" lon="6.0728">
        <ele>208.39999389648</ele>
        <time>2015-09-23T12:18:34Z</time>
      </trkpt>
      <trkpt lat="43.40414" lon="6.0728">
        <ele>209.60000610352</ele>
        <time>2015-09-23T12:18:38Z</time>
      </trkpt>
      <trkpt lat="43.40407" lon="6.07278">
        <ele>209.80000305176</ele>
        <time>2015-09-23T12:18:40Z</time>
      </trkpt>
      <trkpt lat="43.40387" lon="6.07253">
        <ele>210.60000610352</ele>
        <time>2015-09-23T12:18:47Z</time>
      </trkpt>
      <trkpt lat="43.40377" lon="6.07246">
        <ele>211</ele>
        <time>2015-09-23T12:18:50Z</time>
      </trkpt>
      <trkpt lat="43.40369" lon="6.07244">
        <ele>211</ele>
        <time>2015-09-23T12:18:52Z</time>
      </trkpt>
      <trkpt lat="43.40358" lon="6.07236">
        <ele>211.39999389648</ele>
        <time>2015-09-23T12:18:55Z</time>
      </trkpt>
      <trkpt lat="43.40348" lon="6.0723">
        <ele>211.80000305176</ele>
        <time>2015-09-23T12:18:58Z</time>
      </trkpt>
      <trkpt lat="43.40338" lon="6.07224">
        <ele>212.19999694824</ele>
        <time>2015-09-23T12:19:01Z</time>
      </trkpt>
      <trkpt lat="43.40327" lon="6.0722">
        <ele>213</ele>
        <time>2015-09-23T12:19:04Z</time>
      </trkpt>
      <trkpt lat="43.40302" lon="6.07208">
        <ele>214</ele>
        <time>2015-09-23T12:19:11Z</time>
      </trkpt>
      <trkpt lat="43.40283" lon="6.07186">
        <ele>215</ele>
        <time>2015-09-23T12:19:17Z</time>
      </trkpt>
      <trkpt lat="43.40269" lon="6.07171">
        <ele>214</ele>
        <time>2015-09-23T12:19:21Z</time>
      </trkpt>
      <trkpt lat="43.40266" lon="6.07169">
        <ele>214</ele>
        <time>2015-09-23T12:19:22Z</time>
      </trkpt>
      <trkpt lat="43.40261" lon="6.07167">
        <ele>214</ele>
        <time>2015-09-23T12:19:23Z</time>
      </trkpt>
      <trkpt lat="43.4025" lon="6.07166">
        <ele>214</ele>
        <time>2015-09-23T12:19:26Z</time>
      </trkpt>
      <trkpt lat="43.40243" lon="6.07167">
        <ele>214.60000610352</ele>
        <time>2015-09-23T12:19:28Z</time>
      </trkpt>
      <trkpt lat="43.40228" lon="6.07168">
        <ele>215.19999694824</ele>
        <time>2015-09-23T12:19:32Z</time>
      </trkpt>
      <trkpt lat="43.40215" lon="6.07173">
        <ele>216.19999694824</ele>
        <time>2015-09-23T12:19:36Z</time>
      </trkpt>
      <trkpt lat="43.40213" lon="6.07175">
        <ele>216.19999694824</ele>
        <time>2015-09-23T12:19:37Z</time>
      </trkpt>
      <trkpt lat="43.402" lon="6.07183">
        <ele>217.60000610352</ele>
        <time>2015-09-23T12:19:42Z</time>
      </trkpt>
      <trkpt lat="43.40197" lon="6.07184">
        <ele>218</ele>
        <time>2015-09-23T12:19:43Z</time>
      </trkpt>
      <trkpt lat="43.4019" lon="6.07189">
        <ele>218.80000305176</ele>
        <time>2015-09-23T12:19:46Z</time>
      </trkpt>
      <trkpt lat="43.40174" lon="6.072">
        <ele>220</ele>
        <time>2015-09-23T12:19:52Z</time>
      </trkpt>
      <trkpt lat="43.40166" lon="6.07206">
        <ele>221</ele>
        <time>2015-09-23T12:19:55Z</time>
      </trkpt>
      <trkpt lat="43.40157" lon="6.07214">
        <ele>221.60000610352</ele>
        <time>2015-09-23T12:19:59Z</time>
      </trkpt>
      <trkpt lat="43.40151" lon="6.07223">
        <ele>222</ele>
        <time>2015-09-23T12:20:03Z</time>
      </trkpt>
      <trkpt lat="43.40147" lon="6.0723">
        <ele>222.80000305176</ele>
        <time>2015-09-23T12:20:06Z</time>
      </trkpt>
      <trkpt lat="43.40145" lon="6.07234">
        <ele>223</ele>
        <time>2015-09-23T12:20:07Z</time>
      </trkpt>
      <trkpt lat="43.40143" lon="6.07253">
        <ele>222.60000610352</ele>
        <time>2015-09-23T12:20:12Z</time>
      </trkpt>
      <trkpt lat="43.40144" lon="6.07288">
        <ele>222.80000305176</ele>
        <time>2015-09-23T12:20:19Z</time>
      </trkpt>
      <trkpt lat="43.40141" lon="6.07323">
        <ele>223.80000305176</ele>
        <time>2015-09-23T12:20:26Z</time>
      </trkpt>
      <trkpt lat="43.40139" lon="6.07348">
        <ele>224.19999694824</ele>
        <time>2015-09-23T12:20:31Z</time>
      </trkpt>
      <trkpt lat="43.40137" lon="6.07357">
        <ele>224.19999694824</ele>
        <time>2015-09-23T12:20:33Z</time>
      </trkpt>
      <trkpt lat="43.40135" lon="6.07395">
        <ele>225</ele>
        <time>2015-09-23T12:20:41Z</time>
      </trkpt>
      <trkpt lat="43.40138" lon="6.07415">
        <ele>225.39999389648</ele>
        <time>2015-09-23T12:20:45Z</time>
      </trkpt>
      <trkpt lat="43.4014" lon="6.07425">
        <ele>226</ele>
        <time>2015-09-23T12:20:47Z</time>
      </trkpt>
      <trkpt lat="43.40141" lon="6.07453">
        <ele>226.39999389648</ele>
        <time>2015-09-23T12:20:53Z</time>
      </trkpt>
      <trkpt lat="43.40141" lon="6.07457">
        <ele>226.39999389648</ele>
        <time>2015-09-23T12:20:54Z</time>
      </trkpt>
      <trkpt lat="43.40137" lon="6.07486">
        <ele>227.60000610352</ele>
        <time>2015-09-23T12:21:00Z</time>
      </trkpt>
      <trkpt lat="43.40135" lon="6.07495">
        <ele>228</ele>
        <time>2015-09-23T12:21:02Z</time>
      </trkpt>
      <trkpt lat="43.40131" lon="6.07515">
        <ele>229.80000305176</ele>
        <time>2015-09-23T12:21:07Z</time>
      </trkpt>
      <trkpt lat="43.40122" lon="6.07539">
        <ele>230.60000610352</ele>
        <time>2015-09-23T12:21:13Z</time>
      </trkpt>
      <trkpt lat="43.40098" lon="6.07583">
        <ele>231</ele>
        <time>2015-09-23T12:21:25Z</time>
      </trkpt>
      <trkpt lat="43.40095" lon="6.07592">
        <ele>231.19999694824</ele>
        <time>2015-09-23T12:21:27Z</time>
      </trkpt>
      <trkpt lat="43.40089" lon="6.07616">
        <ele>231.60000610352</ele>
        <time>2015-09-23T12:21:33Z</time>
      </trkpt>
      <trkpt lat="43.4009" lon="6.0762">
        <ele>232</ele>
        <time>2015-09-23T12:21:34Z</time>
      </trkpt>
      <trkpt lat="43.40088" lon="6.07646">
        <ele>233.19999694824</ele>
        <time>2015-09-23T12:21:40Z</time>
      </trkpt>
      <trkpt lat="43.40085" lon="6.07663">
        <ele>234.60000610352</ele>
        <time>2015-09-23T12:21:44Z</time>
      </trkpt>
      <trkpt lat="43.40083" lon="6.0767">
        <ele>235.60000610352</ele>
        <time>2015-09-23T12:21:46Z</time>
      </trkpt>
      <trkpt lat="43.40081" lon="6.07673">
        <ele>236</ele>
        <time>2015-09-23T12:21:47Z</time>
      </trkpt>
      <trkpt lat="43.40076" lon="6.07683">
        <ele>236.60000610352</ele>
        <time>2015-09-23T12:21:50Z</time>
      </trkpt>
      <trkpt lat="43.40069" lon="6.07695">
        <ele>236.60000610352</ele>
        <time>2015-09-23T12:21:54Z</time>
      </trkpt>
      <trkpt lat="43.40066" lon="6.07701">
        <ele>236.60000610352</ele>
        <time>2015-09-23T12:21:56Z</time>
      </trkpt>
      <trkpt lat="43.4005" lon="6.07721">
        <ele>237.60000610352</ele>
        <time>2015-09-23T12:22:03Z</time>
      </trkpt>
      <trkpt lat="43.40048" lon="6.07724">
        <ele>237.60000610352</ele>
        <time>2015-09-23T12:22:04Z</time>
      </trkpt>
      <trkpt lat="43.40033" lon="6.07751">
        <ele>237</ele>
        <time>2015-09-23T12:22:12Z</time>
      </trkpt>
      <trkpt lat="43.40031" lon="6.07755">
        <ele>237</ele>
        <time>2015-09-23T12:22:13Z</time>
      </trkpt>
      <trkpt lat="43.40022" lon="6.0779">
        <ele>238</ele>
        <time>2015-09-23T12:22:21Z</time>
      </trkpt>
      <trkpt lat="43.40011" lon="6.07825">
        <ele>238.80000305176</ele>
        <time>2015-09-23T12:22:29Z</time>
      </trkpt>
      <trkpt lat="43.4001" lon="6.07828">
        <ele>239</ele>
        <time>2015-09-23T12:22:30Z</time>
      </trkpt>
      <trkpt lat="43.39999" lon="6.07861">
        <ele>239.60000610352</ele>
        <time>2015-09-23T12:22:38Z</time>
      </trkpt>
      <trkpt lat="43.39993" lon="6.0789">
        <ele>239.80000305176</ele>
        <time>2015-09-23T12:22:45Z</time>
      </trkpt>
      <trkpt lat="43.39991" lon="6.07894">
        <ele>239.80000305176</ele>
        <time>2015-09-23T12:22:46Z</time>
      </trkpt>
      <trkpt lat="43.39986" lon="6.07918">
        <ele>240.80000305176</ele>
        <time>2015-09-23T12:22:52Z</time>
      </trkpt>
      <trkpt lat="43.39984" lon="6.07922">
        <ele>241</ele>
        <time>2015-09-23T12:22:53Z</time>
      </trkpt>
      <trkpt lat="43.39979" lon="6.07938">
        <ele>241.60000610352</ele>
        <time>2015-09-23T12:22:57Z</time>
      </trkpt>
      <trkpt lat="43.39977" lon="6.07945">
        <ele>242.19999694824</ele>
        <time>2015-09-23T12:22:59Z</time>
      </trkpt>
      <trkpt lat="43.39974" lon="6.07956">
        <ele>243.39999389648</ele>
        <time>2015-09-23T12:23:03Z</time>
      </trkpt>
      <trkpt lat="43.39969" lon="6.07968">
        <ele>244.39999389648</ele>
        <time>2015-09-23T12:23:09Z</time>
      </trkpt>
      <trkpt lat="43.39968" lon="6.07969">
        <ele>244.60000610352</ele>
        <time>2015-09-23T12:23:10Z</time>
      </trkpt>
      <trkpt lat="43.39962" lon="6.07975">
        <ele>245.39999389648</ele>
        <time>2015-09-23T12:23:16Z</time>
      </trkpt>
      <trkpt lat="43.39959" lon="6.07976">
        <ele>245.39999389648</ele>
        <time>2015-09-23T12:23:18Z</time>
      </trkpt>
      <trkpt lat="43.39951" lon="6.07983">
        <ele>245.39999389648</ele>
        <time>2015-09-23T12:23:23Z</time>
      </trkpt>
      <trkpt lat="43.39944" lon="6.07986">
        <ele>245.60000610352</ele>
        <time>2015-09-23T12:23:26Z</time>
      </trkpt>
      <trkpt lat="43.39936" lon="6.07991">
        <ele>246.19999694824</ele>
        <time>2015-09-23T12:23:30Z</time>
      </trkpt>
      <trkpt lat="43.39923" lon="6.07998">
        <ele>246</ele>
        <time>2015-09-23T12:23:36Z</time>
      </trkpt>
      <trkpt lat="43.39908" lon="6.08014">
        <ele>245.39999389648</ele>
        <time>2015-09-23T12:23:41Z</time>
      </trkpt>
      <trkpt lat="43.39901" lon="6.08026">
        <ele>244.39999389648</ele>
        <time>2015-09-23T12:23:44Z</time>
      </trkpt>
      <trkpt lat="43.39893" lon="6.08031">
        <ele>244</ele>
        <time>2015-09-23T12:23:47Z</time>
      </trkpt>
      <trkpt lat="43.39888" lon="6.0803">
        <ele>244</ele>
        <time>2015-09-23T12:23:49Z</time>
      </trkpt>
      <trkpt lat="43.39881" lon="6.08029">
        <ele>244.19999694824</ele>
        <time>2015-09-23T12:23:51Z</time>
      </trkpt>
      <trkpt lat="43.39877" lon="6.08027">
        <ele>244</ele>
        <time>2015-09-23T12:23:52Z</time>
      </trkpt>
      <trkpt lat="43.39866" lon="6.08021">
        <ele>243.19999694824</ele>
        <time>2015-09-23T12:23:55Z</time>
      </trkpt>
      <trkpt lat="43.39854" lon="6.08016">
        <ele>243</ele>
        <time>2015-09-23T12:23:58Z</time>
      </trkpt>
      <trkpt lat="43.39839" lon="6.08007">
        <ele>243</ele>
        <time>2015-09-23T12:24:02Z</time>
      </trkpt>
      <trkpt lat="43.39825" lon="6.07999">
        <ele>243</ele>
        <time>2015-09-23T12:24:06Z</time>
      </trkpt>
      <trkpt lat="43.39818" lon="6.07996">
        <ele>243.19999694824</ele>
        <time>2015-09-23T12:24:08Z</time>
      </trkpt>
      <trkpt lat="43.39794" lon="6.07989">
        <ele>243.80000305176</ele>
        <time>2015-09-23T12:24:15Z</time>
      </trkpt>
      <trkpt lat="43.3978" lon="6.07985">
        <ele>244.60000610352</ele>
        <time>2015-09-23T12:24:20Z</time>
      </trkpt>
      <trkpt lat="43.3977" lon="6.0798">
        <ele>245.80000305176</ele>
        <time>2015-09-23T12:24:24Z</time>
      </trkpt>
      <trkpt lat="43.39762" lon="6.07976">
        <ele>246.39999389648</ele>
        <time>2015-09-23T12:24:27Z</time>
      </trkpt>
      <trkpt lat="43.39756" lon="6.07973">
        <ele>247</ele>
        <time>2015-09-23T12:24:29Z</time>
      </trkpt>
      <trkpt lat="43.39743" lon="6.07965">
        <ele>247.60000610352</ele>
        <time>2015-09-23T12:24:34Z</time>
      </trkpt>
      <trkpt lat="43.39733" lon="6.07958">
        <ele>248.19999694824</ele>
        <time>2015-09-23T12:24:38Z</time>
      </trkpt>
      <trkpt lat="43.39724" lon="6.0795">
        <ele>248.80000305176</ele>
        <time>2015-09-23T12:24:42Z</time>
      </trkpt>
      <trkpt lat="43.39719" lon="6.07941">
        <ele>249.19999694824</ele>
        <time>2015-09-23T12:24:45Z</time>
      </trkpt>
      <trkpt lat="43.39715" lon="6.07936">
        <ele>249.39999389648</ele>
        <time>2015-09-23T12:24:47Z</time>
      </trkpt>
      <trkpt lat="43.39709" lon="6.07929">
        <ele>250.60000610352</ele>
        <time>2015-09-23T12:24:50Z</time>
      </trkpt>
      <trkpt lat="43.39702" lon="6.0792">
        <ele>251.60000610352</ele>
        <time>2015-09-23T12:24:54Z</time>
      </trkpt>
      <trkpt lat="43.39699" lon="6.07915">
        <ele>252.80000305176</ele>
        <time>2015-09-23T12:24:57Z</time>
      </trkpt>
      <trkpt lat="43.39692" lon="6.07908">
        <ele>254</ele>
        <time>2015-09-23T12:25:02Z</time>
      </trkpt>
      <trkpt lat="43.39688" lon="6.07904">
        <ele>254.39999389648</ele>
        <time>2015-09-23T12:25:05Z</time>
      </trkpt>
      <trkpt lat="43.39686" lon="6.07903">
        <ele>254.80000305176</ele>
        <time>2015-09-23T12:25:06Z</time>
      </trkpt>
      <trkpt lat="43.39677" lon="6.07898">
        <ele>255.39999389648</ele>
        <time>2015-09-23T12:25:11Z</time>
      </trkpt>
      <trkpt lat="43.39664" lon="6.07895">
        <ele>255.80000305176</ele>
        <time>2015-09-23T12:25:17Z</time>
      </trkpt>
      <trkpt lat="43.39662" lon="6.07895">
        <ele>256.20001220703</ele>
        <time>2015-09-23T12:25:18Z</time>
      </trkpt>
      <trkpt lat="43.3965" lon="6.07893">
        <ele>256.79998779297</ele>
        <time>2015-09-23T12:25:24Z</time>
      </trkpt>
      <trkpt lat="43.39647" lon="6.07893">
        <ele>257</ele>
        <time>2015-09-23T12:25:25Z</time>
      </trkpt>
      <trkpt lat="43.39636" lon="6.07895">
        <ele>257.39999389648</ele>
        <time>2015-09-23T12:25:30Z</time>
      </trkpt>
      <trkpt lat="43.3962" lon="6.079">
        <ele>258</ele>
        <time>2015-09-23T12:25:37Z</time>
      </trkpt>
      <trkpt lat="43.39612" lon="6.07903">
        <ele>258.20001220703</ele>
        <time>2015-09-23T12:25:40Z</time>
      </trkpt>
      <trkpt lat="43.396" lon="6.07908">
        <ele>259.20001220703</ele>
        <time>2015-09-23T12:25:45Z</time>
      </trkpt>
      <trkpt lat="43.39598" lon="6.07907">
        <ele>259.39999389648</ele>
        <time>2015-09-23T12:25:46Z</time>
      </trkpt>
      <trkpt lat="43.39587" lon="6.07908">
        <ele>261.20001220703</ele>
        <time>2015-09-23T12:25:51Z</time>
      </trkpt>
      <trkpt lat="43.39581" lon="6.07914">
        <ele>261.79998779297</ele>
        <time>2015-09-23T12:25:56Z</time>
      </trkpt>
      <trkpt lat="43.39579" lon="6.07918">
        <ele>262.20001220703</ele>
        <time>2015-09-23T12:25:58Z</time>
      </trkpt>
      <trkpt lat="43.39577" lon="6.07928">
        <ele>262.39999389648</ele>
        <time>2015-09-23T12:26:02Z</time>
      </trkpt>
      <trkpt lat="43.39575" lon="6.07931">
        <ele>262.79998779297</ele>
        <time>2015-09-23T12:26:04Z</time>
      </trkpt>
      <trkpt lat="43.39574" lon="6.07933">
        <ele>262.79998779297</ele>
        <time>2015-09-23T12:26:05Z</time>
      </trkpt>
      <trkpt lat="43.39568" lon="6.07938">
        <ele>263.79998779297</ele>
        <time>2015-09-23T12:26:10Z</time>
      </trkpt>
      <trkpt lat="43.39561" lon="6.07939">
        <ele>265</ele>
        <time>2015-09-23T12:26:15Z</time>
      </trkpt>
      <trkpt lat="43.39547" lon="6.07945">
        <ele>266</ele>
        <time>2015-09-23T12:26:24Z</time>
      </trkpt>
      <trkpt lat="43.39536" lon="6.07949">
        <ele>267</ele>
        <time>2015-09-23T12:26:32Z</time>
      </trkpt>
      <trkpt lat="43.39526" lon="6.07954">
        <ele>267.60000610352</ele>
        <time>2015-09-23T12:26:39Z</time>
      </trkpt>
      <trkpt lat="43.39503" lon="6.07961">
        <ele>269</ele>
        <time>2015-09-23T12:26:55Z</time>
      </trkpt>
      <trkpt lat="43.39499" lon="6.07962">
        <ele>269.20001220703</ele>
        <time>2015-09-23T12:26:57Z</time>
      </trkpt>
      <trkpt lat="43.39492" lon="6.07966">
        <ele>270</ele>
        <time>2015-09-23T12:27:01Z</time>
      </trkpt>
      <trkpt lat="43.39484" lon="6.0797">
        <ele>270.39999389648</ele>
        <time>2015-09-23T12:27:05Z</time>
      </trkpt>
      <trkpt lat="43.39476" lon="6.07973">
        <ele>271</ele>
        <time>2015-09-23T12:27:10Z</time>
      </trkpt>
      <trkpt lat="43.39467" lon="6.07976">
        <ele>271.60000610352</ele>
        <time>2015-09-23T12:27:14Z</time>
      </trkpt>
      <trkpt lat="43.39463" lon="6.07978">
        <ele>272</ele>
        <time>2015-09-23T12:27:17Z</time>
      </trkpt>
      <trkpt lat="43.39456" lon="6.0798">
        <ele>272.60000610352</ele>
        <time>2015-09-23T12:27:21Z</time>
      </trkpt>
      <trkpt lat="43.39449" lon="6.07983">
        <ele>273</ele>
        <time>2015-09-23T12:27:25Z</time>
      </trkpt>
      <trkpt lat="43.39441" lon="6.07984">
        <ele>273.39999389648</ele>
        <time>2015-09-23T12:27:30Z</time>
      </trkpt>
      <trkpt lat="43.39436" lon="6.07986">
        <ele>273.60000610352</ele>
        <time>2015-09-23T12:27:33Z</time>
      </trkpt>
      <trkpt lat="43.39431" lon="6.07987">
        <ele>274</ele>
        <time>2015-09-23T12:27:36Z</time>
      </trkpt>
      <trkpt lat="43.39423" lon="6.07989">
        <ele>274.79998779297</ele>
        <time>2015-09-23T12:27:40Z</time>
      </trkpt>
      <trkpt lat="43.39418" lon="6.07992">
        <ele>275.39999389648</ele>
        <time>2015-09-23T12:27:43Z</time>
      </trkpt>
      <trkpt lat="43.39406" lon="6.07999">
        <ele>276.20001220703</ele>
        <time>2015-09-23T12:27:50Z</time>
      </trkpt>
      <trkpt lat="43.39396" lon="6.08004">
        <ele>277.39999389648</ele>
        <time>2015-09-23T12:27:56Z</time>
      </trkpt>
      <trkpt lat="43.39387" lon="6.08003">
        <ele>277.79998779297</ele>
        <time>2015-09-23T12:28:02Z</time>
      </trkpt>
      <trkpt lat="43.39386" lon="6.08003">
        <ele>278</ele>
        <time>2015-09-23T12:28:04Z</time>
      </trkpt>
      <trkpt lat="43.39385" lon="6.08001">
        <ele>277.79998779297</ele>
        <time>2015-09-23T12:28:07Z</time>
      </trkpt>
      <trkpt lat="43.39384" lon="6.07999">
        <ele>277.39999389648</ele>
        <time>2015-09-23T12:28:09Z</time>
      </trkpt>
      <trkpt lat="43.39383" lon="6.08">
        <ele>277.60000610352</ele>
        <time>2015-09-23T12:28:13Z</time>
      </trkpt>
      <trkpt lat="43.39382" lon="6.08001">
        <ele>277.60000610352</ele>
        <time>2015-09-23T12:28:15Z</time>
      </trkpt>
      <trkpt lat="43.39382" lon="6.08">
        <ele>277.79998779297</ele>
        <time>2015-09-23T12:28:21Z</time>
      </trkpt>
      <trkpt lat="43.39382" lon="6.08">
        <ele>278</ele>
        <time>2015-09-23T12:28:40Z</time>
      </trkpt>
      <trkpt lat="43.39382" lon="6.08">
        <ele>278.20001220703</ele>
        <time>2015-09-23T12:29:05Z</time>
      </trkpt>
      <trkpt lat="43.39381" lon="6.08">
        <ele>277.60000610352</ele>
        <time>2015-09-23T12:29:11Z</time>
      </trkpt>
      <trkpt lat="43.39381" lon="6.08">
        <ele>277.39999389648</ele>
        <time>2015-09-23T12:29:20Z</time>
      </trkpt>
      <trkpt lat="43.39381" lon="6.07999">
        <ele>277.39999389648</ele>
        <time>2015-09-23T12:31:30Z</time>
      </trkpt>
      <trkpt lat="43.39381" lon="6.07999">
        <ele>277.60000610352</ele>
        <time>2015-09-23T12:31:45Z</time>
      </trkpt>
      <trkpt lat="43.39381" lon="6.08">
        <ele>278</ele>
        <time>2015-09-23T12:31:51Z</time>
      </trkpt>
      <trkpt lat="43.39379" lon="6.08002">
        <ele>278.39999389648</ele>
        <time>2015-09-23T12:31:56Z</time>
      </trkpt>
      <trkpt lat="43.39379" lon="6.08002">
        <ele>278.39999389648</ele>
        <time>2015-09-23T12:31:57Z</time>
      </trkpt>
      <trkpt lat="43.39378" lon="6.08005">
        <ele>278</ele>
        <time>2015-09-23T12:32:07Z</time>
      </trkpt>
      <trkpt lat="43.39375" lon="6.08">
        <ele>278.39999389648</ele>
        <time>2015-09-23T12:32:11Z</time>
      </trkpt>
      <trkpt lat="43.39372" lon="6.07989">
        <ele>279.39999389648</ele>
        <time>2015-09-23T12:32:16Z</time>
      </trkpt>
      <trkpt lat="43.39373" lon="6.07986">
        <ele>280</ele>
        <time>2015-09-23T12:32:18Z</time>
      </trkpt>
      <trkpt lat="43.39374" lon="6.07983">
        <ele>280.60000610352</ele>
        <time>2015-09-23T12:32:20Z</time>
      </trkpt>
      <trkpt lat="43.39375" lon="6.07979">
        <ele>280.79998779297</ele>
        <time>2015-09-23T12:32:22Z</time>
      </trkpt>
      <trkpt lat="43.39384" lon="6.07971">
        <ele>280.79998779297</ele>
        <time>2015-09-23T12:32:27Z</time>
      </trkpt>
      <trkpt lat="43.39401" lon="6.07971">
        <ele>279.20001220703</ele>
        <time>2015-09-23T12:32:32Z</time>
      </trkpt>
      <trkpt lat="43.39412" lon="6.0797">
        <ele>278.20001220703</ele>
        <time>2015-09-23T12:32:34Z</time>
      </trkpt>
      <trkpt lat="43.39417" lon="6.07968">
        <ele>278</ele>
        <time>2015-09-23T12:32:35Z</time>
      </trkpt>
      <trkpt lat="43.39429" lon="6.07955">
        <ele>277.60000610352</ele>
        <time>2015-09-23T12:32:38Z</time>
      </trkpt>
      <trkpt lat="43.39432" lon="6.07947">
        <ele>278.20001220703</ele>
        <time>2015-09-23T12:32:41Z</time>
      </trkpt>
      <trkpt lat="43.39434" lon="6.07945">
        <ele>278.20001220703</ele>
        <time>2015-09-23T12:32:44Z</time>
      </trkpt>
      <trkpt lat="43.39435" lon="6.07947">
        <ele>278</ele>
        <time>2015-09-23T12:32:46Z</time>
      </trkpt>
      <trkpt lat="43.39433" lon="6.07963">
        <ele>277.20001220703</ele>
        <time>2015-09-23T12:32:50Z</time>
      </trkpt>
      <trkpt lat="43.39432" lon="6.07968">
        <ele>276.79998779297</ele>
        <time>2015-09-23T12:32:51Z</time>
      </trkpt>
      <trkpt lat="43.39426" lon="6.07974">
        <ele>276.39999389648</ele>
        <time>2015-09-23T12:32:54Z</time>
      </trkpt>
      <trkpt lat="43.39415" lon="6.07975">
        <ele>276.60000610352</ele>
        <time>2015-09-23T12:33:00Z</time>
      </trkpt>
      <trkpt lat="43.39407" lon="6.07979">
        <ele>276.39999389648</ele>
        <time>2015-09-23T12:33:05Z</time>
      </trkpt>
      <trkpt lat="43.39407" lon="6.07982">
        <ele>276.39999389648</ele>
        <time>2015-09-23T12:33:06Z</time>
      </trkpt>
      <trkpt lat="43.39412" lon="6.07983">
        <ele>276.20001220703</ele>
        <time>2015-09-23T12:33:09Z</time>
      </trkpt>
      <trkpt lat="43.39418" lon="6.07981">
        <ele>276.20001220703</ele>
        <time>2015-09-23T12:33:12Z</time>
      </trkpt>
      <trkpt lat="43.39427" lon="6.07981">
        <ele>276</ele>
        <time>2015-09-23T12:33:15Z</time>
      </trkpt>
      <trkpt lat="43.39432" lon="6.0798">
        <ele>275.60000610352</ele>
        <time>2015-09-23T12:33:17Z</time>
      </trkpt>
      <trkpt lat="43.39438" lon="6.07977">
        <ele>274.39999389648</ele>
        <time>2015-09-23T12:33:19Z</time>
      </trkpt>
      <trkpt lat="43.39442" lon="6.07974">
        <ele>273.79998779297</ele>
        <time>2015-09-23T12:33:20Z</time>
      </trkpt>
      <trkpt lat="43.39449" lon="6.07964">
        <ele>273.60000610352</ele>
        <time>2015-09-23T12:33:24Z</time>
      </trkpt>
      <trkpt lat="43.39453" lon="6.07955">
        <ele>273.20001220703</ele>
        <time>2015-09-23T12:33:27Z</time>
      </trkpt>
      <trkpt lat="43.39456" lon="6.07946">
        <ele>273</ele>
        <time>2015-09-23T12:33:30Z</time>
      </trkpt>
      <trkpt lat="43.39463" lon="6.07919">
        <ele>273.39999389648</ele>
        <time>2015-09-23T12:33:38Z</time>
      </trkpt>
      <trkpt lat="43.39463" lon="6.07903">
        <ele>273.39999389648</ele>
        <time>2015-09-23T12:33:43Z</time>
      </trkpt>
      <trkpt lat="43.39462" lon="6.079">
        <ele>273.60000610352</ele>
        <time>2015-09-23T12:33:44Z</time>
      </trkpt>
      <trkpt lat="43.39461" lon="6.07892">
        <ele>274.60000610352</ele>
        <time>2015-09-23T12:33:47Z</time>
      </trkpt>
      <trkpt lat="43.39459" lon="6.07878">
        <ele>275.39999389648</ele>
        <time>2015-09-23T12:33:51Z</time>
      </trkpt>
      <trkpt lat="43.3946" lon="6.07864">
        <ele>275.20001220703</ele>
        <time>2015-09-23T12:33:54Z</time>
      </trkpt>
      <trkpt lat="43.39467" lon="6.07858">
        <ele>274.39999389648</ele>
        <time>2015-09-23T12:33:56Z</time>
      </trkpt>
      <trkpt lat="43.39474" lon="6.07852">
        <ele>273.39999389648</ele>
        <time>2015-09-23T12:33:59Z</time>
      </trkpt>
      <trkpt lat="43.39475" lon="6.07849">
        <ele>273.20001220703</ele>
        <time>2015-09-23T12:34:00Z</time>
      </trkpt>
      <trkpt lat="43.39476" lon="6.07835">
        <ele>273</ele>
        <time>2015-09-23T12:34:03Z</time>
      </trkpt>
      <trkpt lat="43.39475" lon="6.07829">
        <ele>273.20001220703</ele>
        <time>2015-09-23T12:34:05Z</time>
      </trkpt>
      <trkpt lat="43.39473" lon="6.0782">
        <ele>273.60000610352</ele>
        <time>2015-09-23T12:34:08Z</time>
      </trkpt>
      <trkpt lat="43.3947" lon="6.07805">
        <ele>274.79998779297</ele>
        <time>2015-09-23T12:34:14Z</time>
      </trkpt>
      <trkpt lat="43.39467" lon="6.07793">
        <ele>275.79998779297</ele>
        <time>2015-09-23T12:34:19Z</time>
      </trkpt>
      <trkpt lat="43.39466" lon="6.07791">
        <ele>275.79998779297</ele>
        <time>2015-09-23T12:34:20Z</time>
      </trkpt>
      <trkpt lat="43.39467" lon="6.07786">
        <ele>276.20001220703</ele>
        <time>2015-09-23T12:34:22Z</time>
      </trkpt>
      <trkpt lat="43.39469" lon="6.07783">
        <ele>277</ele>
        <time>2015-09-23T12:34:24Z</time>
      </trkpt>
      <trkpt lat="43.3947" lon="6.07778">
        <ele>277.60000610352</ele>
        <time>2015-09-23T12:34:26Z</time>
      </trkpt>
      <trkpt lat="43.39468" lon="6.07769">
        <ele>278</ele>
        <time>2015-09-23T12:34:30Z</time>
      </trkpt>
      <trkpt lat="43.39466" lon="6.07765">
        <ele>278.39999389648</ele>
        <time>2015-09-23T12:34:32Z</time>
      </trkpt>
      <trkpt lat="43.39463" lon="6.07755">
        <ele>279.20001220703</ele>
        <time>2015-09-23T12:34:36Z</time>
      </trkpt>
      <trkpt lat="43.39461" lon="6.07747">
        <ele>280</ele>
        <time>2015-09-23T12:34:40Z</time>
      </trkpt>
      <trkpt lat="43.39459" lon="6.07736">
        <ele>281</ele>
        <time>2015-09-23T12:34:44Z</time>
      </trkpt>
      <trkpt lat="43.39456" lon="6.07725">
        <ele>282</ele>
        <time>2015-09-23T12:34:49Z</time>
      </trkpt>
      <trkpt lat="43.39452" lon="6.0771">
        <ele>282.60000610352</ele>
        <time>2015-09-23T12:34:55Z</time>
      </trkpt>
      <trkpt lat="43.39447" lon="6.07695">
        <ele>283</ele>
        <time>2015-09-23T12:35:02Z</time>
      </trkpt>
      <trkpt lat="43.39445" lon="6.07691">
        <ele>283.20001220703</ele>
        <time>2015-09-23T12:35:04Z</time>
      </trkpt>
      <trkpt lat="43.39441" lon="6.07678">
        <ele>284.39999389648</ele>
        <time>2015-09-23T12:35:10Z</time>
      </trkpt>
      <trkpt lat="43.39437" lon="6.0766">
        <ele>285</ele>
        <time>2015-09-23T12:35:18Z</time>
      </trkpt>
      <trkpt lat="43.39436" lon="6.07649">
        <ele>285.39999389648</ele>
        <time>2015-09-23T12:35:23Z</time>
      </trkpt>
      <trkpt lat="43.39438" lon="6.07647">
        <ele>285.60000610352</ele>
        <time>2015-09-23T12:35:25Z</time>
      </trkpt>
      <trkpt lat="43.39442" lon="6.07644">
        <ele>286.60000610352</ele>
        <time>2015-09-23T12:35:29Z</time>
      </trkpt>
      <trkpt lat="43.39446" lon="6.07644">
        <ele>286.79998779297</ele>
        <time>2015-09-23T12:35:32Z</time>
      </trkpt>
      <trkpt lat="43.39449" lon="6.07646">
        <ele>287</ele>
        <time>2015-09-23T12:35:38Z</time>
      </trkpt>
      <trkpt lat="43.39449" lon="6.07646">
        <ele>287</ele>
        <time>2015-09-23T12:35:43Z</time>
      </trkpt>
      <trkpt lat="43.39449" lon="6.07646">
        <ele>287</ele>
        <time>2015-09-23T12:35:52Z</time>
      </trkpt>
      <trkpt lat="43.39449" lon="6.07646">
        <ele>286.79998779297</ele>
        <time>2015-09-23T12:36:00Z</time>
      </trkpt>
      <trkpt lat="43.3945" lon="6.07649">
        <ele>287</ele>
        <time>2015-09-23T12:36:06Z</time>
      </trkpt>
      <trkpt lat="43.39455" lon="6.07659">
        <ele>286.79998779297</ele>
        <time>2015-09-23T12:36:10Z</time>
      </trkpt>
      <trkpt lat="43.39456" lon="6.07662">
        <ele>286.79998779297</ele>
        <time>2015-09-23T12:36:11Z</time>
      </trkpt>
      <trkpt lat="43.39457" lon="6.07675">
        <ele>286.39999389648</ele>
        <time>2015-09-23T12:36:14Z</time>
      </trkpt>
      <trkpt lat="43.39457" lon="6.07683">
        <ele>285.60000610352</ele>
        <time>2015-09-23T12:36:15Z</time>
      </trkpt>
      <trkpt lat="43.39457" lon="6.0769">
        <ele>284.39999389648</ele>
        <time>2015-09-23T12:36:16Z</time>
      </trkpt>
      <trkpt lat="43.39459" lon="6.07712">
        <ele>282.79998779297</ele>
        <time>2015-09-23T12:36:19Z</time>
      </trkpt>
      <trkpt lat="43.39461" lon="6.07718">
        <ele>281.60000610352</ele>
        <time>2015-09-23T12:36:20Z</time>
      </trkpt>
      <trkpt lat="43.39465" lon="6.07732">
        <ele>281.60000610352</ele>
        <time>2015-09-23T12:36:23Z</time>
      </trkpt>
      <trkpt lat="43.39466" lon="6.07739">
        <ele>281.20001220703</ele>
        <time>2015-09-23T12:36:24Z</time>
      </trkpt>
      <trkpt lat="43.39469" lon="6.07745">
        <ele>280.20001220703</ele>
        <time>2015-09-23T12:36:25Z</time>
      </trkpt>
      <trkpt lat="43.39477" lon="6.0777">
        <ele>279</ele>
        <time>2015-09-23T12:36:29Z</time>
      </trkpt>
      <trkpt lat="43.39479" lon="6.07781">
        <ele>277.20001220703</ele>
        <time>2015-09-23T12:36:31Z</time>
      </trkpt>
      <trkpt lat="43.39482" lon="6.07793">
        <ele>277.20001220703</ele>
        <time>2015-09-23T12:36:33Z</time>
      </trkpt>
      <trkpt lat="43.39489" lon="6.07813">
        <ele>276.20001220703</ele>
        <time>2015-09-23T12:36:37Z</time>
      </trkpt>
      <trkpt lat="43.39491" lon="6.07817">
        <ele>276</ele>
        <time>2015-09-23T12:36:38Z</time>
      </trkpt>
      <trkpt lat="43.39494" lon="6.07833">
        <ele>275.60000610352</ele>
        <time>2015-09-23T12:36:41Z</time>
      </trkpt>
      <trkpt lat="43.39495" lon="6.07838">
        <ele>275.39999389648</ele>
        <time>2015-09-23T12:36:42Z</time>
      </trkpt>
      <trkpt lat="43.39497" lon="6.07842">
        <ele>274.79998779297</ele>
        <time>2015-09-23T12:36:43Z</time>
      </trkpt>
      <trkpt lat="43.39499" lon="6.0785">
        <ele>273.60000610352</ele>
        <time>2015-09-23T12:36:46Z</time>
      </trkpt>
      <trkpt lat="43.39499" lon="6.07852">
        <ele>273.60000610352</ele>
        <time>2015-09-23T12:36:47Z</time>
      </trkpt>
      <trkpt lat="43.39498" lon="6.07854">
        <ele>273.60000610352</ele>
        <time>2015-09-23T12:36:49Z</time>
      </trkpt>
      <trkpt lat="43.39496" lon="6.07857">
        <ele>273</ele>
        <time>2015-09-23T12:36:51Z</time>
      </trkpt>
      <trkpt lat="43.39495" lon="6.0786">
        <ele>272.39999389648</ele>
        <time>2015-09-23T12:36:52Z</time>
      </trkpt>
      <trkpt lat="43.39497" lon="6.07863">
        <ele>271.60000610352</ele>
        <time>2015-09-23T12:36:54Z</time>
      </trkpt>
      <trkpt lat="43.39497" lon="6.07864">
        <ele>271.20001220703</ele>
        <time>2015-09-23T12:36:55Z</time>
      </trkpt>
      <trkpt lat="43.39499" lon="6.07864">
        <ele>270.60000610352</ele>
        <time>2015-09-23T12:36:56Z</time>
      </trkpt>
      <trkpt lat="43.39502" lon="6.07868">
        <ele>270.60000610352</ele>
        <time>2015-09-23T12:36:59Z</time>
      </trkpt>
      <trkpt lat="43.39503" lon="6.07869">
        <ele>270.79998779297</ele>
        <time>2015-09-23T12:37:00Z</time>
      </trkpt>
      <trkpt lat="43.39507" lon="6.07876">
        <ele>270.20001220703</ele>
        <time>2015-09-23T12:37:04Z</time>
      </trkpt>
      <trkpt lat="43.39508" lon="6.07879">
        <ele>270</ele>
        <time>2015-09-23T12:37:05Z</time>
      </trkpt>
      <trkpt lat="43.39514" lon="6.07887">
        <ele>269.39999389648</ele>
        <time>2015-09-23T12:37:09Z</time>
      </trkpt>
      <trkpt lat="43.39513" lon="6.07888">
        <ele>269</ele>
        <time>2015-09-23T12:37:11Z</time>
      </trkpt>
      <trkpt lat="43.39512" lon="6.07889">
        <ele>269</ele>
        <time>2015-09-23T12:37:13Z</time>
      </trkpt>
      <trkpt lat="43.39512" lon="6.07889">
        <ele>268.20001220703</ele>
        <time>2015-09-23T12:37:15Z</time>
      </trkpt>
      <trkpt lat="43.39512" lon="6.07889">
        <ele>268</ele>
        <time>2015-09-23T12:37:16Z</time>
      </trkpt>
      <trkpt lat="43.39512" lon="6.07889">
        <ele>268.39999389648</ele>
        <time>2015-09-23T12:37:21Z</time>
      </trkpt>
      <trkpt lat="43.39512" lon="6.07888">
        <ele>269.20001220703</ele>
        <time>2015-09-23T12:37:25Z</time>
      </trkpt>
      <trkpt lat="43.39512" lon="6.07888">
        <ele>269.39999389648</ele>
        <time>2015-09-23T12:37:27Z</time>
      </trkpt>
      <trkpt lat="43.39513" lon="6.07888">
        <ele>269.39999389648</ele>
        <time>2015-09-23T12:37:35Z</time>
      </trkpt>
      <trkpt lat="43.39513" lon="6.07888">
        <ele>269.20001220703</ele>
        <time>2015-09-23T12:37:41Z</time>
      </trkpt>
      <trkpt lat="43.39512" lon="6.07888">
        <ele>269.60000610352</ele>
        <time>2015-09-23T12:37:47Z</time>
      </trkpt>
      <trkpt lat="43.39512" lon="6.07888">
        <ele>269.60000610352</ele>
        <time>2015-09-23T12:37:48Z</time>
      </trkpt>
      <trkpt lat="43.39512" lon="6.07888">
        <ele>269.60000610352</ele>
        <time>2015-09-23T12:37:54Z</time>
      </trkpt>
      <trkpt lat="43.39511" lon="6.0789">
        <ele>269.79998779297</ele>
        <time>2015-09-23T12:37:56Z</time>
      </trkpt>
      <trkpt lat="43.39506" lon="6.07895">
        <ele>270</ele>
        <time>2015-09-23T12:38:01Z</time>
      </trkpt>
      <trkpt lat="43.39505" lon="6.07896">
        <ele>270.20001220703</ele>
        <time>2015-09-23T12:38:02Z</time>
      </trkpt>
      <trkpt lat="43.39505" lon="6.07897">
        <ele>270.20001220703</ele>
        <time>2015-09-23T12:38:07Z</time>
      </trkpt>
      <trkpt lat="43.39506" lon="6.07897">
        <ele>269.79998779297</ele>
        <time>2015-09-23T12:38:16Z</time>
      </trkpt>
      <trkpt lat="43.39506" lon="6.07897">
        <ele>270</ele>
        <time>2015-09-23T12:38:27Z</time>
      </trkpt>
      <trkpt lat="43.39506" lon="6.07897">
        <ele>270</ele>
        <time>2015-09-23T12:38:33Z</time>
      </trkpt>
      <trkpt lat="43.39506" lon="6.07897">
        <ele>270</ele>
        <time>2015-09-23T12:38:49Z</time>
      </trkpt>
      <trkpt lat="43.39502" lon="6.07903">
        <ele>270</ele>
        <time>2015-09-23T12:38:54Z</time>
      </trkpt>
      <trkpt lat="43.39499" lon="6.07919">
        <ele>271.20001220703</ele>
        <time>2015-09-23T12:39:01Z</time>
      </trkpt>
      <trkpt lat="43.39494" lon="6.07939">
        <ele>271.39999389648</ele>
        <time>2015-09-23T12:39:09Z</time>
      </trkpt>
      <trkpt lat="43.3949" lon="6.07951">
        <ele>271.20001220703</ele>
        <time>2015-09-23T12:39:15Z</time>
      </trkpt>
      <trkpt lat="43.39489" lon="6.07964">
        <ele>271.39999389648</ele>
        <time>2015-09-23T12:39:20Z</time>
      </trkpt>
      <trkpt lat="43.39487" lon="6.07968">
        <ele>271.60000610352</ele>
        <time>2015-09-23T12:39:22Z</time>
      </trkpt>
      <trkpt lat="43.39484" lon="6.0797">
        <ele>271.60000610352</ele>
        <time>2015-09-23T12:39:25Z</time>
      </trkpt>
      <trkpt lat="43.39481" lon="6.07972">
        <ele>271.60000610352</ele>
        <time>2015-09-23T12:39:32Z</time>
      </trkpt>
      <trkpt lat="43.3948" lon="6.07972">
        <ele>272.20001220703</ele>
        <time>2015-09-23T12:39:49Z</time>
      </trkpt>
      <trkpt lat="43.39472" lon="6.07974">
        <ele>272.79998779297</ele>
        <time>2015-09-23T12:39:55Z</time>
      </trkpt>
      <trkpt lat="43.3947" lon="6.07975">
        <ele>273</ele>
        <time>2015-09-23T12:39:56Z</time>
      </trkpt>
      <trkpt lat="43.39461" lon="6.07978">
        <ele>273.39999389648</ele>
        <time>2015-09-23T12:40:01Z</time>
      </trkpt>
      <trkpt lat="43.3945" lon="6.07982">
        <ele>273.79998779297</ele>
        <time>2015-09-23T12:40:07Z</time>
      </trkpt>
      <trkpt lat="43.39446" lon="6.07985">
        <ele>273.39999389648</ele>
        <time>2015-09-23T12:40:12Z</time>
      </trkpt>
      <trkpt lat="43.39445" lon="6.07986">
        <ele>274</ele>
        <time>2015-09-23T12:40:20Z</time>
      </trkpt>
      <trkpt lat="43.39445" lon="6.07986">
        <ele>274.20001220703</ele>
        <time>2015-09-23T12:40:23Z</time>
      </trkpt>
      <trkpt lat="43.39445" lon="6.07985">
        <ele>274.39999389648</ele>
        <time>2015-09-23T12:40:29Z</time>
      </trkpt>
      <trkpt lat="43.39445" lon="6.07983">
        <ele>274.20001220703</ele>
        <time>2015-09-23T12:40:39Z</time>
      </trkpt>
      <trkpt lat="43.39446" lon="6.07982">
        <ele>274.39999389648</ele>
        <time>2015-09-23T12:40:40Z</time>
      </trkpt>
      <trkpt lat="43.39441" lon="6.07979">
        <ele>274.79998779297</ele>
        <time>2015-09-23T12:40:44Z</time>
      </trkpt>
      <trkpt lat="43.39433" lon="6.07979">
        <ele>276.20001220703</ele>
        <time>2015-09-23T12:40:49Z</time>
      </trkpt>
      <trkpt lat="43.39431" lon="6.07978">
        <ele>276.60000610352</ele>
        <time>2015-09-23T12:40:50Z</time>
      </trkpt>
      <trkpt lat="43.3943" lon="6.07978">
        <ele>276.60000610352</ele>
        <time>2015-09-23T12:40:51Z</time>
      </trkpt>
      <trkpt lat="43.39433" lon="6.07972">
        <ele>276.79998779297</ele>
        <time>2015-09-23T12:40:55Z</time>
      </trkpt>
      <trkpt lat="43.39436" lon="6.07966">
        <ele>276.79998779297</ele>
        <time>2015-09-23T12:41:00Z</time>
      </trkpt>
      <trkpt lat="43.39437" lon="6.07959">
        <ele>277.20001220703</ele>
        <time>2015-09-23T12:41:06Z</time>
      </trkpt>
      <trkpt lat="43.39437" lon="6.07954">
        <ele>277.60000610352</ele>
        <time>2015-09-23T12:41:08Z</time>
      </trkpt>
      <trkpt lat="43.39436" lon="6.07947">
        <ele>278.79998779297</ele>
        <time>2015-09-23T12:41:12Z</time>
      </trkpt>
      <trkpt lat="43.39436" lon="6.07946">
        <ele>279</ele>
        <time>2015-09-23T12:41:13Z</time>
      </trkpt>
      <trkpt lat="43.39435" lon="6.07945">
        <ele>279.20001220703</ele>
        <time>2015-09-23T12:41:21Z</time>
      </trkpt>
      <trkpt lat="43.39435" lon="6.07945">
        <ele>278</ele>
        <time>2015-09-23T12:41:34Z</time>
      </trkpt>
      <trkpt lat="43.39435" lon="6.07945">
        <ele>278.20001220703</ele>
        <time>2015-09-23T12:42:04Z</time>
      </trkpt>
      <trkpt lat="43.39435" lon="6.07945">
        <ele>280</ele>
        <time>2015-09-23T12:43:51Z</time>
      </trkpt>
      <trkpt lat="43.39435" lon="6.07945">
        <ele>280.60000610352</ele>
        <time>2015-09-23T12:43:57Z</time>
      </trkpt>
      <trkpt lat="43.39435" lon="6.07946">
        <ele>280</ele>
        <time>2015-09-23T12:44:03Z</time>
      </trkpt>
      <trkpt lat="43.39436" lon="6.07948">
        <ele>279.39999389648</ele>
        <time>2015-09-23T12:44:05Z</time>
      </trkpt>
      <trkpt lat="43.39435" lon="6.07948">
        <ele>279</ele>
        <time>2015-09-23T12:44:06Z</time>
      </trkpt>
      <trkpt lat="43.39435" lon="6.07948">
        <ele>278.79998779297</ele>
        <time>2015-09-23T12:44:09Z</time>
      </trkpt>
      <trkpt lat="43.39435" lon="6.07948">
        <ele>278.39999389648</ele>
        <time>2015-09-23T12:44:13Z</time>
      </trkpt>
      <trkpt lat="43.39435" lon="6.07948">
        <ele>278</ele>
        <time>2015-09-23T12:44:15Z</time>
      </trkpt>
      <trkpt lat="43.39436" lon="6.0795">
        <ele>278</ele>
        <time>2015-09-23T12:44:20Z</time>
      </trkpt>
      <trkpt lat="43.39436" lon="6.07951">
        <ele>277.60000610352</ele>
        <time>2015-09-23T12:44:25Z</time>
      </trkpt>
      <trkpt lat="43.39436" lon="6.07951">
        <ele>277</ele>
        <time>2015-09-23T12:44:30Z</time>
      </trkpt>
      <trkpt lat="43.39435" lon="6.07951">
        <ele>276.79998779297</ele>
        <time>2015-09-23T12:44:31Z</time>
      </trkpt>
      <trkpt lat="43.39436" lon="6.07952">
        <ele>276.79998779297</ele>
        <time>2015-09-23T12:44:32Z</time>
      </trkpt>
      <trkpt lat="43.39436" lon="6.07956">
        <ele>276.79998779297</ele>
        <time>2015-09-23T12:44:36Z</time>
      </trkpt>
      <trkpt lat="43.39436" lon="6.07956">
        <ele>276.39999389648</ele>
        <time>2015-09-23T12:44:44Z</time>
      </trkpt>
      <trkpt lat="43.39436" lon="6.07956">
        <ele>276.60000610352</ele>
        <time>2015-09-23T12:44:55Z</time>
      </trkpt>
      <trkpt lat="43.39436" lon="6.07956">
        <ele>277.79998779297</ele>
        <time>2015-09-23T12:45:11Z</time>
      </trkpt>
      <trkpt lat="43.39435" lon="6.07957">
        <ele>277</ele>
        <time>2015-09-23T12:46:23Z</time>
      </trkpt>
      <trkpt lat="43.39435" lon="6.07957">
        <ele>277.20001220703</ele>
        <time>2015-09-23T12:46:43Z</time>
      </trkpt>
      <trkpt lat="43.39435" lon="6.07957">
        <ele>277.79998779297</ele>
        <time>2015-09-23T12:47:09Z</time>
      </trkpt>
      <trkpt lat="43.39435" lon="6.07958">
        <ele>277.79998779297</ele>
        <time>2015-09-23T12:47:23Z</time>
      </trkpt>
      <trkpt lat="43.39434" lon="6.07962">
        <ele>277.60000610352</ele>
        <time>2015-09-23T12:47:25Z</time>
      </trkpt>
      <trkpt lat="43.39434" lon="6.07965">
        <ele>277.79998779297</ele>
        <time>2015-09-23T12:47:27Z</time>
      </trkpt>
      <trkpt lat="43.39434" lon="6.07967">
        <ele>277.79998779297</ele>
        <time>2015-09-23T12:47:30Z</time>
      </trkpt>
      <trkpt lat="43.39434" lon="6.07968">
        <ele>278.20001220703</ele>
        <time>2015-09-23T12:47:33Z</time>
      </trkpt>
      <trkpt lat="43.39433" lon="6.07969">
        <ele>277.60000610352</ele>
        <time>2015-09-23T12:47:43Z</time>
      </trkpt>
      <trkpt lat="43.39433" lon="6.07969">
        <ele>277.20001220703</ele>
        <time>2015-09-23T12:47:48Z</time>
      </trkpt>
      <trkpt lat="43.39433" lon="6.07969">
        <ele>276.39999389648</ele>
        <time>2015-09-23T12:47:55Z</time>
      </trkpt>
      <trkpt lat="43.39432" lon="6.0797">
        <ele>277.60000610352</ele>
        <time>2015-09-23T12:48:01Z</time>
      </trkpt>
      <trkpt lat="43.39431" lon="6.07971">
        <ele>277.79998779297</ele>
        <time>2015-09-23T12:48:02Z</time>
      </trkpt>
      <trkpt lat="43.39426" lon="6.07977">
        <ele>277.20001220703</ele>
        <time>2015-09-23T12:48:08Z</time>
      </trkpt>
      <trkpt lat="43.39415" lon="6.07984">
        <ele>277.39999389648</ele>
        <time>2015-09-23T12:48:14Z</time>
      </trkpt>
      <trkpt lat="43.39404" lon="6.07989">
        <ele>277.60000610352</ele>
        <time>2015-09-23T12:48:20Z</time>
      </trkpt>
      <trkpt lat="43.39402" lon="6.07989">
        <ele>277.79998779297</ele>
        <time>2015-09-23T12:48:21Z</time>
      </trkpt>
      <trkpt lat="43.39399" lon="6.07989">
        <ele>278.60000610352</ele>
        <time>2015-09-23T12:48:23Z</time>
      </trkpt>
      <trkpt lat="43.39397" lon="6.0799">
        <ele>279.39999389648</ele>
        <time>2015-09-23T12:48:26Z</time>
      </trkpt>
      <trkpt lat="43.39394" lon="6.07991">
        <ele>279.79998779297</ele>
        <time>2015-09-23T12:48:28Z</time>
      </trkpt>
      <trkpt lat="43.39391" lon="6.07992">
        <ele>279.60000610352</ele>
        <time>2015-09-23T12:48:31Z</time>
      </trkpt>
      <trkpt lat="43.39389" lon="6.07995">
        <ele>279.39999389648</ele>
        <time>2015-09-23T12:48:33Z</time>
      </trkpt>
      <trkpt lat="43.39381" lon="6.08">
        <ele>279.79998779297</ele>
        <time>2015-09-23T12:48:40Z</time>
      </trkpt>
      <trkpt lat="43.39376" lon="6.08">
        <ele>279.79998779297</ele>
        <time>2015-09-23T12:48:44Z</time>
      </trkpt>
      <trkpt lat="43.39376" lon="6.07999">
        <ele>279.79998779297</ele>
        <time>2015-09-23T12:48:45Z</time>
      </trkpt>
      <trkpt lat="43.39374" lon="6.07991">
        <ele>280.79998779297</ele>
        <time>2015-09-23T12:48:50Z</time>
      </trkpt>
      <trkpt lat="43.39374" lon="6.07984">
        <ele>281.79998779297</ele>
        <time>2015-09-23T12:48:54Z</time>
      </trkpt>
      <trkpt lat="43.39375" lon="6.07981">
        <ele>282</ele>
        <time>2015-09-23T12:48:57Z</time>
      </trkpt>
      <trkpt lat="43.39377" lon="6.07976">
        <ele>282.20001220703</ele>
        <time>2015-09-23T12:49:02Z</time>
      </trkpt>
      <trkpt lat="43.3938" lon="6.0797">
        <ele>282.20001220703</ele>
        <time>2015-09-23T12:49:08Z</time>
      </trkpt>
      <trkpt lat="43.39381" lon="6.07969">
        <ele>282.39999389648</ele>
        <time>2015-09-23T12:49:10Z</time>
      </trkpt>
      <trkpt lat="43.39381" lon="6.07969">
        <ele>282.79998779297</ele>
        <time>2015-09-23T12:49:18Z</time>
      </trkpt>
      <trkpt lat="43.39381" lon="6.07969">
        <ele>282.79998779297</ele>
        <time>2015-09-23T12:49:42Z</time>
      </trkpt>
      <trkpt lat="43.39381" lon="6.07969">
        <ele>282</ele>
        <time>2015-09-23T12:49:52Z</time>
      </trkpt>
      <trkpt lat="43.39381" lon="6.07969">
        <ele>282.20001220703</ele>
        <time>2015-09-23T12:49:55Z</time>
      </trkpt>
      <trkpt lat="43.39384" lon="6.07969">
        <ele>282.60000610352</ele>
        <time>2015-09-23T12:50:00Z</time>
      </trkpt>
      <trkpt lat="43.39388" lon="6.0797">
        <ele>282.60000610352</ele>
        <time>2015-09-23T12:50:02Z</time>
      </trkpt>
      <trkpt lat="43.39391" lon="6.0797">
        <ele>282.60000610352</ele>
        <time>2015-09-23T12:50:04Z</time>
      </trkpt>
      <trkpt lat="43.39402" lon="6.07971">
        <ele>281</ele>
        <time>2015-09-23T12:50:08Z</time>
      </trkpt>
      <trkpt lat="43.39415" lon="6.07968">
        <ele>279.79998779297</ele>
        <time>2015-09-23T12:50:11Z</time>
      </trkpt>
      <trkpt lat="43.39422" lon="6.07964">
        <ele>279.39999389648</ele>
        <time>2015-09-23T12:50:13Z</time>
      </trkpt>
      <trkpt lat="43.39426" lon="6.0796">
        <ele>279.20001220703</ele>
        <time>2015-09-23T12:50:15Z</time>
      </trkpt>
      <trkpt lat="43.39426" lon="6.07958">
        <ele>279</ele>
        <time>2015-09-23T12:50:16Z</time>
      </trkpt>
      <trkpt lat="43.39427" lon="6.07957">
        <ele>279.20001220703</ele>
        <time>2015-09-23T12:50:17Z</time>
      </trkpt>
      <trkpt lat="43.39429" lon="6.07951">
        <ele>280</ele>
        <time>2015-09-23T12:50:23Z</time>
      </trkpt>
      <trkpt lat="43.39429" lon="6.0795">
        <ele>279.79998779297</ele>
        <time>2015-09-23T12:50:26Z</time>
      </trkpt>
      <trkpt lat="43.39429" lon="6.0795">
        <ele>279.79998779297</ele>
        <time>2015-09-23T12:50:31Z</time>
      </trkpt>
      <trkpt lat="43.39429" lon="6.0795">
        <ele>279.79998779297</ele>
        <time>2015-09-23T12:50:37Z</time>
      </trkpt>
      <trkpt lat="43.39429" lon="6.07951">
        <ele>279.79998779297</ele>
        <time>2015-09-23T12:50:40Z</time>
      </trkpt>
      <trkpt lat="43.39429" lon="6.0795">
        <ele>279.79998779297</ele>
        <time>2015-09-23T12:50:42Z</time>
      </trkpt>
      <trkpt lat="43.39429" lon="6.07951">
        <ele>280</ele>
        <time>2015-09-23T12:50:54Z</time>
      </trkpt>
      <trkpt lat="43.39429" lon="6.07953">
        <ele>280.20001220703</ele>
        <time>2015-09-23T12:51:09Z</time>
      </trkpt>
      <trkpt lat="43.39429" lon="6.07953">
        <ele>280</ele>
        <time>2015-09-23T12:51:13Z</time>
      </trkpt>
      <trkpt lat="43.39429" lon="6.07953">
        <ele>279.39999389648</ele>
        <time>2015-09-23T12:51:23Z</time>
      </trkpt>
      <trkpt lat="43.39429" lon="6.07954">
        <ele>280.39999389648</ele>
        <time>2015-09-23T12:51:30Z</time>
      </trkpt>
      <trkpt lat="43.39428" lon="6.07955">
        <ele>280.60000610352</ele>
        <time>2015-09-23T12:51:36Z</time>
      </trkpt>
      <trkpt lat="43.39428" lon="6.07957">
        <ele>279.20001220703</ele>
        <time>2015-09-23T12:51:45Z</time>
      </trkpt>
      <trkpt lat="43.39428" lon="6.07957">
        <ele>279.60000610352</ele>
        <time>2015-09-23T12:52:01Z</time>
      </trkpt>
      <trkpt lat="43.39428" lon="6.07956">
        <ele>279.39999389648</ele>
        <time>2015-09-23T12:52:16Z</time>
      </trkpt>
      <trkpt lat="43.39428" lon="6.07957">
        <ele>279.79998779297</ele>
        <time>2015-09-23T12:52:20Z</time>
      </trkpt>
      <trkpt lat="43.39428" lon="6.07957">
        <ele>278.60000610352</ele>
        <time>2015-09-23T12:52:34Z</time>
      </trkpt>
      <trkpt lat="43.39428" lon="6.07957">
        <ele>279.79998779297</ele>
        <time>2015-09-23T12:52:44Z</time>
      </trkpt>
      <trkpt lat="43.39429" lon="6.07955">
        <ele>280</ele>
        <time>2015-09-23T12:52:46Z</time>
      </trkpt>
      <trkpt lat="43.39429" lon="6.07952">
        <ele>280.20001220703</ele>
        <time>2015-09-23T12:52:47Z</time>
      </trkpt>
      <trkpt lat="43.39431" lon="6.07949">
        <ele>281.20001220703</ele>
        <time>2015-09-23T12:52:49Z</time>
      </trkpt>
      <trkpt lat="43.39434" lon="6.07949">
        <ele>281.20001220703</ele>
        <time>2015-09-23T12:52:51Z</time>
      </trkpt>
      <trkpt lat="43.39434" lon="6.0795">
        <ele>280.60000610352</ele>
        <time>2015-09-23T12:52:52Z</time>
      </trkpt>
      <trkpt lat="43.39434" lon="6.07951">
        <ele>279.79998779297</ele>
        <time>2015-09-23T12:52:53Z</time>
      </trkpt>
      <trkpt lat="43.39434" lon="6.07951">
        <ele>279</ele>
        <time>2015-09-23T12:52:55Z</time>
      </trkpt>
      <trkpt lat="43.39435" lon="6.07951">
        <ele>279</ele>
        <time>2015-09-23T12:52:57Z</time>
      </trkpt>
      <trkpt lat="43.39435" lon="6.07951">
        <ele>278.79998779297</ele>
        <time>2015-09-23T12:52:58Z</time>
      </trkpt>
      <trkpt lat="43.39435" lon="6.07951">
        <ele>278.79998779297</ele>
        <time>2015-09-23T12:52:59Z</time>
      </trkpt>
      <trkpt lat="43.39434" lon="6.07951">
        <ele>279</ele>
        <time>2015-09-23T12:53:08Z</time>
      </trkpt>
      <trkpt lat="43.39435" lon="6.07955">
        <ele>278.20001220703</ele>
        <time>2015-09-23T12:53:13Z</time>
      </trkpt>
      <trkpt lat="43.39434" lon="6.07958">
        <ele>278.20001220703</ele>
        <time>2015-09-23T12:53:14Z</time>
      </trkpt>
      <trkpt lat="43.39428" lon="6.07974">
        <ele>277.79998779297</ele>
        <time>2015-09-23T12:53:19Z</time>
      </trkpt>
      <trkpt lat="43.39426" lon="6.07974">
        <ele>277.60000610352</ele>
        <time>2015-09-23T12:53:20Z</time>
      </trkpt>
      <trkpt lat="43.3942" lon="6.07975">
        <ele>277.60000610352</ele>
        <time>2015-09-23T12:53:23Z</time>
      </trkpt>
      <trkpt lat="43.39418" lon="6.07975">
        <ele>277.79998779297</ele>
        <time>2015-09-23T12:53:24Z</time>
      </trkpt>
      <trkpt lat="43.39407" lon="6.07979">
        <ele>278.60000610352</ele>
        <time>2015-09-23T12:53:29Z</time>
      </trkpt>
      <trkpt lat="43.39405" lon="6.07979">
        <ele>278.60000610352</ele>
        <time>2015-09-23T12:53:30Z</time>
      </trkpt>
      <trkpt lat="43.39401" lon="6.07979">
        <ele>278.79998779297</ele>
        <time>2015-09-23T12:53:32Z</time>
      </trkpt>
      <trkpt lat="43.394" lon="6.07978">
        <ele>279</ele>
        <time>2015-09-23T12:53:33Z</time>
      </trkpt>
      <trkpt lat="43.39399" lon="6.07975">
        <ele>279.79998779297</ele>
        <time>2015-09-23T12:53:35Z</time>
      </trkpt>
      <trkpt lat="43.39402" lon="6.07971">
        <ele>280.39999389648</ele>
        <time>2015-09-23T12:53:38Z</time>
      </trkpt>
      <trkpt lat="43.39404" lon="6.07971">
        <ele>280.20001220703</ele>
        <time>2015-09-23T12:53:39Z</time>
      </trkpt>
      <trkpt lat="43.39409" lon="6.07971">
        <ele>279.39999389648</ele>
        <time>2015-09-23T12:53:41Z</time>
      </trkpt>
      <trkpt lat="43.39419" lon="6.07968">
        <ele>280.39999389648</ele>
        <time>2015-09-23T12:53:45Z</time>
      </trkpt>
      <trkpt lat="43.39431" lon="6.0796">
        <ele>280</ele>
        <time>2015-09-23T12:53:51Z</time>
      </trkpt>
      <trkpt lat="43.3943" lon="6.07959">
        <ele>280</ele>
        <time>2015-09-23T12:53:55Z</time>
      </trkpt>
      <trkpt lat="43.3943" lon="6.07959">
        <ele>280</ele>
        <time>2015-09-23T12:54:10Z</time>
      </trkpt>
      <trkpt lat="43.3943" lon="6.07959">
        <ele>281</ele>
        <time>2015-09-23T12:54:16Z</time>
      </trkpt>
      <trkpt lat="43.3943" lon="6.07959">
        <ele>280.39999389648</ele>
        <time>2015-09-23T12:54:30Z</time>
      </trkpt>
      <trkpt lat="43.3943" lon="6.07959">
        <ele>279.79998779297</ele>
        <time>2015-09-23T12:54:41Z</time>
      </trkpt>
      <trkpt lat="43.3943" lon="6.07959">
        <ele>279.79998779297</ele>
        <time>2015-09-23T12:54:52Z</time>
      </trkpt>
      <trkpt lat="43.3943" lon="6.07959">
        <ele>279.39999389648</ele>
        <time>2015-09-23T12:54:56Z</time>
      </trkpt>
      <trkpt lat="43.39431" lon="6.07956">
        <ele>279.39999389648</ele>
        <time>2015-09-23T12:55:00Z</time>
      </trkpt>
      <trkpt lat="43.39432" lon="6.07954">
        <ele>279.79998779297</ele>
        <time>2015-09-23T12:55:02Z</time>
      </trkpt>
      <trkpt lat="43.39433" lon="6.07949">
        <ele>280.39999389648</ele>
        <time>2015-09-23T12:55:05Z</time>
      </trkpt>
      <trkpt lat="43.39434" lon="6.07948">
        <ele>280.60000610352</ele>
        <time>2015-09-23T12:55:06Z</time>
      </trkpt>
      <trkpt lat="43.39434" lon="6.07947">
        <ele>280.39999389648</ele>
        <time>2015-09-23T12:55:09Z</time>
      </trkpt>
      <trkpt lat="43.39433" lon="6.07952">
        <ele>280</ele>
        <time>2015-09-23T12:55:16Z</time>
      </trkpt>
      <trkpt lat="43.39432" lon="6.07956">
        <ele>279.20001220703</ele>
        <time>2015-09-23T12:55:23Z</time>
      </trkpt>
      <trkpt lat="43.39431" lon="6.07956">
        <ele>278.79998779297</ele>
        <time>2015-09-23T12:55:30Z</time>
      </trkpt>
      <trkpt lat="43.39431" lon="6.07956">
        <ele>279.20001220703</ele>
        <time>2015-09-23T12:55:39Z</time>
      </trkpt>
      <trkpt lat="43.39431" lon="6.07955">
        <ele>279.60000610352</ele>
        <time>2015-09-23T12:55:44Z</time>
      </trkpt>
      <trkpt lat="43.39432" lon="6.07953">
        <ele>279.79998779297</ele>
        <time>2015-09-23T12:55:45Z</time>
      </trkpt>
      <trkpt lat="43.39436" lon="6.07945">
        <ele>280.60000610352</ele>
        <time>2015-09-23T12:55:49Z</time>
      </trkpt>
      <trkpt lat="43.39437" lon="6.07946">
        <ele>280.39999389648</ele>
        <time>2015-09-23T12:55:50Z</time>
      </trkpt>
      <trkpt lat="43.39439" lon="6.0795">
        <ele>279.39999389648</ele>
        <time>2015-09-23T12:55:53Z</time>
      </trkpt>
      <trkpt lat="43.39441" lon="6.0795">
        <ele>278.60000610352</ele>
        <time>2015-09-23T12:55:54Z</time>
      </trkpt>
      <trkpt lat="43.39443" lon="6.07945">
        <ele>277.60000610352</ele>
        <time>2015-09-23T12:55:56Z</time>
      </trkpt>
      <trkpt lat="43.39443" lon="6.07942">
        <ele>277.60000610352</ele>
        <time>2015-09-23T12:55:57Z</time>
      </trkpt>
      <trkpt lat="43.39444" lon="6.0794">
        <ele>277.60000610352</ele>
        <time>2015-09-23T12:55:58Z</time>
      </trkpt>
      <trkpt lat="43.39448" lon="6.0793">
        <ele>276.79998779297</ele>
        <time>2015-09-23T12:56:02Z</time>
      </trkpt>
      <trkpt lat="43.39452" lon="6.07935">
        <ele>276.39999389648</ele>
        <time>2015-09-23T12:56:05Z</time>
      </trkpt>
      <trkpt lat="43.39449" lon="6.07947">
        <ele>275.39999389648</ele>
        <time>2015-09-23T12:56:08Z</time>
      </trkpt>
      <trkpt lat="43.39448" lon="6.0795">
        <ele>275.39999389648</ele>
        <time>2015-09-23T12:56:09Z</time>
      </trkpt>
      <trkpt lat="43.39447" lon="6.07957">
        <ele>275.20001220703</ele>
        <time>2015-09-23T12:56:12Z</time>
      </trkpt>
      <trkpt lat="43.39447" lon="6.07961">
        <ele>275</ele>
        <time>2015-09-23T12:56:14Z</time>
      </trkpt>
      <trkpt lat="43.39446" lon="6.07966">
        <ele>275</ele>
        <time>2015-09-23T12:56:17Z</time>
      </trkpt>
      <trkpt lat="43.39445" lon="6.07965">
        <ele>275</ele>
        <time>2015-09-23T12:56:19Z</time>
      </trkpt>
      <trkpt lat="43.39444" lon="6.07969">
        <ele>275.20001220703</ele>
        <time>2015-09-23T12:56:22Z</time>
      </trkpt>
      <trkpt lat="43.39443" lon="6.07973">
        <ele>275.39999389648</ele>
        <time>2015-09-23T12:56:24Z</time>
      </trkpt>
      <trkpt lat="43.39435" lon="6.07978">
        <ele>276.39999389648</ele>
        <time>2015-09-23T12:56:28Z</time>
      </trkpt>
      <trkpt lat="43.39434" lon="6.07978">
        <ele>276.79998779297</ele>
        <time>2015-09-23T12:56:29Z</time>
      </trkpt>
      <trkpt lat="43.3943" lon="6.07975">
        <ele>277.20001220703</ele>
        <time>2015-09-23T12:56:32Z</time>
      </trkpt>
      <trkpt lat="43.39432" lon="6.07972">
        <ele>277.79998779297</ele>
        <time>2015-09-23T12:56:34Z</time>
      </trkpt>
      <trkpt lat="43.39434" lon="6.07968">
        <ele>277.60000610352</ele>
        <time>2015-09-23T12:56:37Z</time>
      </trkpt>
      <trkpt lat="43.39441" lon="6.07965">
        <ele>276.60000610352</ele>
        <time>2015-09-23T12:56:44Z</time>
      </trkpt>
      <trkpt lat="43.39445" lon="6.07968">
        <ele>276.20001220703</ele>
        <time>2015-09-23T12:56:46Z</time>
      </trkpt>
      <trkpt lat="43.39444" lon="6.0797">
        <ele>276.20001220703</ele>
        <time>2015-09-23T12:56:47Z</time>
      </trkpt>
      <trkpt lat="43.39439" lon="6.07975">
        <ele>276.39999389648</ele>
        <time>2015-09-23T12:56:51Z</time>
      </trkpt>
      <trkpt lat="43.39433" lon="6.07977">
        <ele>277.20001220703</ele>
        <time>2015-09-23T12:56:55Z</time>
      </trkpt>
      <trkpt lat="43.3943" lon="6.07974">
        <ele>277.79998779297</ele>
        <time>2015-09-23T12:56:58Z</time>
      </trkpt>
      <trkpt lat="43.39431" lon="6.07971">
        <ele>278</ele>
        <time>2015-09-23T12:57:00Z</time>
      </trkpt>
      <trkpt lat="43.39432" lon="6.0797">
        <ele>278.20001220703</ele>
        <time>2015-09-23T12:57:01Z</time>
      </trkpt>
      <trkpt lat="43.39434" lon="6.07966">
        <ele>277.60000610352</ele>
        <time>2015-09-23T12:57:07Z</time>
      </trkpt>
      <trkpt lat="43.39434" lon="6.07966">
        <ele>277</ele>
        <time>2015-09-23T12:57:17Z</time>
      </trkpt>
      <trkpt lat="43.39435" lon="6.07966">
        <ele>277.60000610352</ele>
        <time>2015-09-23T12:57:22Z</time>
      </trkpt>
      <trkpt lat="43.39436" lon="6.07961">
        <ele>278.20001220703</ele>
        <time>2015-09-23T12:57:27Z</time>
      </trkpt>
      <trkpt lat="43.39437" lon="6.07958">
        <ele>278.20001220703</ele>
        <time>2015-09-23T12:57:29Z</time>
      </trkpt>
      <trkpt lat="43.39438" lon="6.07957">
        <ele>278.39999389648</ele>
        <time>2015-09-23T12:57:33Z</time>
      </trkpt>
      <trkpt lat="43.39438" lon="6.07957">
        <ele>278.39999389648</ele>
        <time>2015-09-23T12:57:35Z</time>
      </trkpt>
      <trkpt lat="43.39438" lon="6.07957">
        <ele>278</ele>
        <time>2015-09-23T12:57:51Z</time>
      </trkpt>
      <trkpt lat="43.39438" lon="6.07957">
        <ele>277.39999389648</ele>
        <time>2015-09-23T12:57:55Z</time>
      </trkpt>
      <trkpt lat="43.39439" lon="6.07956">
        <ele>277.20001220703</ele>
        <time>2015-09-23T12:57:59Z</time>
      </trkpt>
      <trkpt lat="43.39441" lon="6.07954">
        <ele>277</ele>
        <time>2015-09-23T12:58:02Z</time>
      </trkpt>
      <trkpt lat="43.39442" lon="6.07952">
        <ele>277.20001220703</ele>
        <time>2015-09-23T12:58:03Z</time>
      </trkpt>
      <trkpt lat="43.39444" lon="6.07946">
        <ele>278.39999389648</ele>
        <time>2015-09-23T12:58:07Z</time>
      </trkpt>
      <trkpt lat="43.39445" lon="6.07939">
        <ele>278.79998779297</ele>
        <time>2015-09-23T12:58:10Z</time>
      </trkpt>
      <trkpt lat="43.39449" lon="6.07933">
        <ele>278.79998779297</ele>
        <time>2015-09-23T12:58:13Z</time>
      </trkpt>
      <trkpt lat="43.39455" lon="6.07935">
        <ele>277.20001220703</ele>
        <time>2015-09-23T12:58:18Z</time>
      </trkpt>
      <trkpt lat="43.39458" lon="6.07932">
        <ele>276.60000610352</ele>
        <time>2015-09-23T12:58:19Z</time>
      </trkpt>
      <trkpt lat="43.3946" lon="6.0793">
        <ele>276.39999389648</ele>
        <time>2015-09-23T12:58:20Z</time>
      </trkpt>
      <trkpt lat="43.39465" lon="6.07913">
        <ele>276</ele>
        <time>2015-09-23T12:58:25Z</time>
      </trkpt>
      <trkpt lat="43.39463" lon="6.079">
        <ele>276.60000610352</ele>
        <time>2015-09-23T12:58:29Z</time>
      </trkpt>
      <trkpt lat="43.39462" lon="6.07896">
        <ele>277</ele>
        <time>2015-09-23T12:58:30Z</time>
      </trkpt>
      <trkpt lat="43.39461" lon="6.07888">
        <ele>277.20001220703</ele>
        <time>2015-09-23T12:58:32Z</time>
      </trkpt>
      <trkpt lat="43.3946" lon="6.07873">
        <ele>277.20001220703</ele>
        <time>2015-09-23T12:58:36Z</time>
      </trkpt>
      <trkpt lat="43.39465" lon="6.07863">
        <ele>276.79998779297</ele>
        <time>2015-09-23T12:58:40Z</time>
      </trkpt>
      <trkpt lat="43.39467" lon="6.07862">
        <ele>276.39999389648</ele>
        <time>2015-09-23T12:58:44Z</time>
      </trkpt>
      <trkpt lat="43.39467" lon="6.07861">
        <ele>276.20001220703</ele>
        <time>2015-09-23T12:58:55Z</time>
      </trkpt>
      <trkpt lat="43.39467" lon="6.07861">
        <ele>276</ele>
        <time>2015-09-23T12:59:08Z</time>
      </trkpt>
      <trkpt lat="43.39467" lon="6.07861">
        <ele>276.39999389648</ele>
        <time>2015-09-23T12:59:29Z</time>
      </trkpt>
      <trkpt lat="43.39467" lon="6.07861">
        <ele>276.39999389648</ele>
        <time>2015-09-23T12:59:34Z</time>
      </trkpt>
      <trkpt lat="43.39468" lon="6.07861">
        <ele>276.20001220703</ele>
        <time>2015-09-23T12:59:38Z</time>
      </trkpt>
      <trkpt lat="43.39471" lon="6.07867">
        <ele>276.39999389648</ele>
        <time>2015-09-23T12:59:41Z</time>
      </trkpt>
      <trkpt lat="43.39467" lon="6.07873">
        <ele>277</ele>
        <time>2015-09-23T12:59:46Z</time>
      </trkpt>
      <trkpt lat="43.39461" lon="6.07872">
        <ele>277.79998779297</ele>
        <time>2015-09-23T12:59:53Z</time>
      </trkpt>
      <trkpt lat="43.39462" lon="6.07864">
        <ele>277</ele>
        <time>2015-09-23T12:59:57Z</time>
      </trkpt>
      <trkpt lat="43.39463" lon="6.07862">
        <ele>276.60000610352</ele>
        <time>2015-09-23T12:59:58Z</time>
      </trkpt>
      <trkpt lat="43.39463" lon="6.0786">
        <ele>276.39999389648</ele>
        <time>2015-09-23T12:59:59Z</time>
      </trkpt>
      <trkpt lat="43.39463" lon="6.0786">
        <ele>276.20001220703</ele>
        <time>2015-09-23T13:00:02Z</time>
      </trkpt>
      <trkpt lat="43.39463" lon="6.0786">
        <ele>276.79998779297</ele>
        <time>2015-09-23T13:00:10Z</time>
      </trkpt>
      <trkpt lat="43.39463" lon="6.0786">
        <ele>276.60000610352</ele>
        <time>2015-09-23T13:00:18Z</time>
      </trkpt>
      <trkpt lat="43.39466" lon="6.07858">
        <ele>276.79998779297</ele>
        <time>2015-09-23T13:00:34Z</time>
      </trkpt>
      <trkpt lat="43.39468" lon="6.07857">
        <ele>276.60000610352</ele>
        <time>2015-09-23T13:00:35Z</time>
      </trkpt>
      <trkpt lat="43.39474" lon="6.07852">
        <ele>276</ele>
        <time>2015-09-23T13:00:38Z</time>
      </trkpt>
      <trkpt lat="43.39476" lon="6.07847">
        <ele>275.79998779297</ele>
        <time>2015-09-23T13:00:40Z</time>
      </trkpt>
      <trkpt lat="43.39478" lon="6.07837">
        <ele>275.79998779297</ele>
        <time>2015-09-23T13:00:42Z</time>
      </trkpt>
      <trkpt lat="43.39477" lon="6.07833">
        <ele>275.79998779297</ele>
        <time>2015-09-23T13:00:43Z</time>
      </trkpt>
      <trkpt lat="43.39474" lon="6.0782">
        <ele>277.20001220703</ele>
        <time>2015-09-23T13:00:47Z</time>
      </trkpt>
      <trkpt lat="43.39472" lon="6.07811">
        <ele>277.39999389648</ele>
        <time>2015-09-23T13:00:50Z</time>
      </trkpt>
      <trkpt lat="43.3947" lon="6.07802">
        <ele>277.60000610352</ele>
        <time>2015-09-23T13:00:53Z</time>
      </trkpt>
      <trkpt lat="43.39467" lon="6.07793">
        <ele>278.39999389648</ele>
        <time>2015-09-23T13:00:56Z</time>
      </trkpt>
      <trkpt lat="43.39465" lon="6.07781">
        <ele>279.60000610352</ele>
        <time>2015-09-23T13:00:59Z</time>
      </trkpt>
      <trkpt lat="43.39462" lon="6.07774">
        <ele>279.20001220703</ele>
        <time>2015-09-23T13:01:02Z</time>
      </trkpt>
      <trkpt lat="43.39461" lon="6.07768">
        <ele>279.20001220703</ele>
        <time>2015-09-23T13:01:04Z</time>
      </trkpt>
      <trkpt lat="43.39459" lon="6.07759">
        <ele>279.79998779297</ele>
        <time>2015-09-23T13:01:07Z</time>
      </trkpt>
      <trkpt lat="43.39459" lon="6.07758">
        <ele>280</ele>
        <time>2015-09-23T13:01:09Z</time>
      </trkpt>
      <trkpt lat="43.39459" lon="6.07758">
        <ele>279.79998779297</ele>
        <time>2015-09-23T13:01:19Z</time>
      </trkpt>
      <trkpt lat="43.39459" lon="6.07756">
        <ele>280.20001220703</ele>
        <time>2015-09-23T13:01:23Z</time>
      </trkpt>
      <trkpt lat="43.39457" lon="6.0775">
        <ele>280.39999389648</ele>
        <time>2015-09-23T13:01:26Z</time>
      </trkpt>
      <trkpt lat="43.39455" lon="6.07747">
        <ele>280.39999389648</ele>
        <time>2015-09-23T13:01:27Z</time>
      </trkpt>
      <trkpt lat="43.39454" lon="6.07739">
        <ele>281</ele>
        <time>2015-09-23T13:01:30Z</time>
      </trkpt>
      <trkpt lat="43.39452" lon="6.07734">
        <ele>281.39999389648</ele>
        <time>2015-09-23T13:01:32Z</time>
      </trkpt>
      <trkpt lat="43.39451" lon="6.07726">
        <ele>281.79998779297</ele>
        <time>2015-09-23T13:01:35Z</time>
      </trkpt>
      <trkpt lat="43.3945" lon="6.07721">
        <ele>281.79998779297</ele>
        <time>2015-09-23T13:01:37Z</time>
      </trkpt>
      <trkpt lat="43.39447" lon="6.07713">
        <ele>282.20001220703</ele>
        <time>2015-09-23T13:01:41Z</time>
      </trkpt>
      <trkpt lat="43.39446" lon="6.07709">
        <ele>282.60000610352</ele>
        <time>2015-09-23T13:01:43Z</time>
      </trkpt>
      <trkpt lat="43.39442" lon="6.07694">
        <ele>282.79998779297</ele>
        <time>2015-09-23T13:01:49Z</time>
      </trkpt>
      <trkpt lat="43.39441" lon="6.07692">
        <ele>283.20001220703</ele>
        <time>2015-09-23T13:01:50Z</time>
      </trkpt>
      <trkpt lat="43.39437" lon="6.07679">
        <ele>283.79998779297</ele>
        <time>2015-09-23T13:01:55Z</time>
      </trkpt>
      <trkpt lat="43.39437" lon="6.07676">
        <ele>284</ele>
        <time>2015-09-23T13:01:56Z</time>
      </trkpt>
      <trkpt lat="43.39437" lon="6.07671">
        <ele>284.39999389648</ele>
        <time>2015-09-23T13:01:58Z</time>
      </trkpt>
      <trkpt lat="43.39435" lon="6.07662">
        <ele>285</ele>
        <time>2015-09-23T13:02:02Z</time>
      </trkpt>
      <trkpt lat="43.39435" lon="6.07659">
        <ele>285.39999389648</ele>
        <time>2015-09-23T13:02:03Z</time>
      </trkpt>
      <trkpt lat="43.39435" lon="6.07657">
        <ele>285.79998779297</ele>
        <time>2015-09-23T13:02:04Z</time>
      </trkpt>
      <trkpt lat="43.39434" lon="6.07654">
        <ele>286</ele>
        <time>2015-09-23T13:02:08Z</time>
      </trkpt>
      <trkpt lat="43.39432" lon="6.07653">
        <ele>285.79998779297</ele>
        <time>2015-09-23T13:02:16Z</time>
      </trkpt>
      <trkpt lat="43.39432" lon="6.07653">
        <ele>285.79998779297</ele>
        <time>2015-09-23T13:02:17Z</time>
      </trkpt>
      <trkpt lat="43.39432" lon="6.07653">
        <ele>286.39999389648</ele>
        <time>2015-09-23T13:02:41Z</time>
      </trkpt>
      <trkpt lat="43.39432" lon="6.07653">
        <ele>286.39999389648</ele>
        <time>2015-09-23T13:02:45Z</time>
      </trkpt>
      <trkpt lat="43.39432" lon="6.07653">
        <ele>286.20001220703</ele>
        <time>2015-09-23T13:02:49Z</time>
      </trkpt>
      <trkpt lat="43.39432" lon="6.07652">
        <ele>286</ele>
        <time>2015-09-23T13:02:54Z</time>
      </trkpt>
      <trkpt lat="43.39433" lon="6.07652">
        <ele>286</ele>
        <time>2015-09-23T13:02:55Z</time>
      </trkpt>
      <trkpt lat="43.39433" lon="6.07651">
        <ele>286.39999389648</ele>
        <time>2015-09-23T13:03:04Z</time>
      </trkpt>
      <trkpt lat="43.39433" lon="6.07651">
        <ele>286.60000610352</ele>
        <time>2015-09-23T13:03:12Z</time>
      </trkpt>
      <trkpt lat="43.39433" lon="6.07651">
        <ele>287</ele>
        <time>2015-09-23T13:03:19Z</time>
      </trkpt>
      <trkpt lat="43.39433" lon="6.07652">
        <ele>287.20001220703</ele>
        <time>2015-09-23T13:03:27Z</time>
      </trkpt>
      <trkpt lat="43.39434" lon="6.0765">
        <ele>287.60000610352</ele>
        <time>2015-09-23T13:03:32Z</time>
      </trkpt>
      <trkpt lat="43.39437" lon="6.0765">
        <ele>287.60000610352</ele>
        <time>2015-09-23T13:03:36Z</time>
      </trkpt>
      <trkpt lat="43.39439" lon="6.07648">
        <ele>287.79998779297</ele>
        <time>2015-09-23T13:03:38Z</time>
      </trkpt>
      <trkpt lat="43.39441" lon="6.07647">
        <ele>288</ele>
        <time>2015-09-23T13:03:39Z</time>
      </trkpt>
      <trkpt lat="43.39444" lon="6.07647">
        <ele>288.39999389648</ele>
        <time>2015-09-23T13:03:43Z</time>
      </trkpt>
      <trkpt lat="43.39444" lon="6.07647">
        <ele>288.39999389648</ele>
        <time>2015-09-23T13:03:46Z</time>
      </trkpt>
      <trkpt lat="43.39444" lon="6.07647">
        <ele>288.39999389648</ele>
        <time>2015-09-23T13:03:53Z</time>
      </trkpt>
      <trkpt lat="43.39444" lon="6.07647">
        <ele>288.20001220703</ele>
        <time>2015-09-23T13:04:00Z</time>
      </trkpt>
      <trkpt lat="43.39444" lon="6.07646">
        <ele>288</ele>
        <time>2015-09-23T13:04:07Z</time>
      </trkpt>
      <trkpt lat="43.39444" lon="6.07646">
        <ele>288</ele>
        <time>2015-09-23T13:04:17Z</time>
      </trkpt>
      <trkpt lat="43.39444" lon="6.07646">
        <ele>287.79998779297</ele>
        <time>2015-09-23T13:04:21Z</time>
      </trkpt>
      <trkpt lat="43.39444" lon="6.07646">
        <ele>288</ele>
        <time>2015-09-23T13:04:34Z</time>
      </trkpt>
      <trkpt lat="43.39444" lon="6.07646">
        <ele>289</ele>
        <time>2015-09-23T13:05:02Z</time>
      </trkpt>
      <trkpt lat="43.39444" lon="6.07646">
        <ele>288.60000610352</ele>
        <time>2015-09-23T13:05:12Z</time>
      </trkpt>
      <trkpt lat="43.39444" lon="6.07646">
        <ele>289</ele>
        <time>2015-09-23T13:05:17Z</time>
      </trkpt>
      <trkpt lat="43.39445" lon="6.07646">
        <ele>289.20001220703</ele>
        <time>2015-09-23T13:05:22Z</time>
      </trkpt>
      <trkpt lat="43.39449" lon="6.07648">
        <ele>289</ele>
        <time>2015-09-23T13:05:25Z</time>
      </trkpt>
      <trkpt lat="43.39452" lon="6.07654">
        <ele>289</ele>
        <time>2015-09-23T13:05:28Z</time>
      </trkpt>
      <trkpt lat="43.39455" lon="6.07659">
        <ele>289.20001220703</ele>
        <time>2015-09-23T13:05:30Z</time>
      </trkpt>
      <trkpt lat="43.39458" lon="6.07681">
        <ele>288.20001220703</ele>
        <time>2015-09-23T13:05:35Z</time>
      </trkpt>
      <trkpt lat="43.39458" lon="6.07697">
        <ele>287.20001220703</ele>
        <time>2015-09-23T13:05:37Z</time>
      </trkpt>
      <trkpt lat="43.39458" lon="6.07704">
        <ele>286</ele>
        <time>2015-09-23T13:05:38Z</time>
      </trkpt>
      <trkpt lat="43.3946" lon="6.07713">
        <ele>285</ele>
        <time>2015-09-23T13:05:39Z</time>
      </trkpt>
      <trkpt lat="43.39461" lon="6.07719">
        <ele>284.79998779297</ele>
        <time>2015-09-23T13:05:40Z</time>
      </trkpt>
      <trkpt lat="43.39465" lon="6.07736">
        <ele>283.79998779297</ele>
        <time>2015-09-23T13:05:43Z</time>
      </trkpt>
      <trkpt lat="43.39468" lon="6.07742">
        <ele>283.39999389648</ele>
        <time>2015-09-23T13:05:44Z</time>
      </trkpt>
      <trkpt lat="43.39473" lon="6.07756">
        <ele>282.39999389648</ele>
        <time>2015-09-23T13:05:46Z</time>
      </trkpt>
      <trkpt lat="43.39475" lon="6.07764">
        <ele>282.20001220703</ele>
        <time>2015-09-23T13:05:47Z</time>
      </trkpt>
      <trkpt lat="43.39482" lon="6.07789">
        <ele>280.79998779297</ele>
        <time>2015-09-23T13:05:51Z</time>
      </trkpt>
      <trkpt lat="43.39483" lon="6.07794">
        <ele>280.20001220703</ele>
        <time>2015-09-23T13:05:52Z</time>
      </trkpt>
      <trkpt lat="43.39489" lon="6.07809">
        <ele>278.39999389648</ele>
        <time>2015-09-23T13:05:56Z</time>
      </trkpt>
      <trkpt lat="43.39491" lon="6.07812">
        <ele>278.20001220703</ele>
        <time>2015-09-23T13:05:57Z</time>
      </trkpt>
      <trkpt lat="43.39494" lon="6.07831">
        <ele>277.20001220703</ele>
        <time>2015-09-23T13:06:02Z</time>
      </trkpt>
      <trkpt lat="43.39499" lon="6.07847">
        <ele>276.20001220703</ele>
        <time>2015-09-23T13:06:06Z</time>
      </trkpt>
      <trkpt lat="43.395" lon="6.07852">
        <ele>275.60000610352</ele>
        <time>2015-09-23T13:06:09Z</time>
      </trkpt>
      <trkpt lat="43.39499" lon="6.07854">
        <ele>274.79998779297</ele>
        <time>2015-09-23T13:06:11Z</time>
      </trkpt>
      <trkpt lat="43.39496" lon="6.0786">
        <ele>273.39999389648</ele>
        <time>2015-09-23T13:06:15Z</time>
      </trkpt>
      <trkpt lat="43.39499" lon="6.07863">
        <ele>272.60000610352</ele>
        <time>2015-09-23T13:06:17Z</time>
      </trkpt>
      <trkpt lat="43.39502" lon="6.07865">
        <ele>272.20001220703</ele>
        <time>2015-09-23T13:06:19Z</time>
      </trkpt>
      <trkpt lat="43.39507" lon="6.07872">
        <ele>271.39999389648</ele>
        <time>2015-09-23T13:06:22Z</time>
      </trkpt>
      <trkpt lat="43.39508" lon="6.07874">
        <ele>271.20001220703</ele>
        <time>2015-09-23T13:06:23Z</time>
      </trkpt>
      <trkpt lat="43.39515" lon="6.07884">
        <ele>270.60000610352</ele>
        <time>2015-09-23T13:06:28Z</time>
      </trkpt>
      <trkpt lat="43.39516" lon="6.07886">
        <ele>270.20001220703</ele>
        <time>2015-09-23T13:06:30Z</time>
      </trkpt>
      <trkpt lat="43.39513" lon="6.0789">
        <ele>270.60000610352</ele>
        <time>2015-09-23T13:06:33Z</time>
      </trkpt>
      <trkpt lat="43.39513" lon="6.0789">
        <ele>271</ele>
        <time>2015-09-23T13:06:36Z</time>
      </trkpt>
      <trkpt lat="43.39513" lon="6.0789">
        <ele>271</ele>
        <time>2015-09-23T13:06:37Z</time>
      </trkpt>
      <trkpt lat="43.3951" lon="6.07893">
        <ele>271</ele>
        <time>2015-09-23T13:06:41Z</time>
      </trkpt>
      <trkpt lat="43.39509" lon="6.07895">
        <ele>271.39999389648</ele>
        <time>2015-09-23T13:06:43Z</time>
      </trkpt>
      <trkpt lat="43.39508" lon="6.07896">
        <ele>271.20001220703</ele>
        <time>2015-09-23T13:06:48Z</time>
      </trkpt>
      <trkpt lat="43.3951" lon="6.07896">
        <ele>271</ele>
        <time>2015-09-23T13:06:58Z</time>
      </trkpt>
      <trkpt lat="43.39511" lon="6.07896">
        <ele>270.39999389648</ele>
        <time>2015-09-23T13:07:04Z</time>
      </trkpt>
      <trkpt lat="43.39511" lon="6.07898">
        <ele>270.79998779297</ele>
        <time>2015-09-23T13:07:18Z</time>
      </trkpt>
      <trkpt lat="43.39508" lon="6.07902">
        <ele>270.60000610352</ele>
        <time>2015-09-23T13:07:24Z</time>
      </trkpt>
      <trkpt lat="43.39499" lon="6.0791">
        <ele>271.39999389648</ele>
        <time>2015-09-23T13:07:31Z</time>
      </trkpt>
      <trkpt lat="43.39495" lon="6.07912">
        <ele>271.79998779297</ele>
        <time>2015-09-23T13:07:33Z</time>
      </trkpt>
      <trkpt lat="43.3949" lon="6.07912">
        <ele>272</ele>
        <time>2015-09-23T13:07:36Z</time>
      </trkpt>
      <trkpt lat="43.39482" lon="6.07911">
        <ele>273.20001220703</ele>
        <time>2015-09-23T13:07:40Z</time>
      </trkpt>
      <trkpt lat="43.39481" lon="6.0791">
        <ele>273.60000610352</ele>
        <time>2015-09-23T13:07:41Z</time>
      </trkpt>
      <trkpt lat="43.39474" lon="6.07906">
        <ele>274.20001220703</ele>
        <time>2015-09-23T13:07:45Z</time>
      </trkpt>
      <trkpt lat="43.3947" lon="6.07902">
        <ele>275</ele>
        <time>2015-09-23T13:07:48Z</time>
      </trkpt>
      <trkpt lat="43.39463" lon="6.07898">
        <ele>275.60000610352</ele>
        <time>2015-09-23T13:07:53Z</time>
      </trkpt>
      <trkpt lat="43.3946" lon="6.07898">
        <ele>275.79998779297</ele>
        <time>2015-09-23T13:07:55Z</time>
      </trkpt>
      <trkpt lat="43.39458" lon="6.07898">
        <ele>276</ele>
        <time>2015-09-23T13:07:56Z</time>
      </trkpt>
      <trkpt lat="43.39452" lon="6.07901">
        <ele>276</ele>
        <time>2015-09-23T13:08:00Z</time>
      </trkpt>
      <trkpt lat="43.39447" lon="6.07901">
        <ele>278.39999389648</ele>
        <time>2015-09-23T13:08:04Z</time>
      </trkpt>
      <trkpt lat="43.39445" lon="6.07901">
        <ele>278.79998779297</ele>
        <time>2015-09-23T13:08:06Z</time>
      </trkpt>
      <trkpt lat="43.39443" lon="6.07903">
        <ele>279.20001220703</ele>
        <time>2015-09-23T13:08:08Z</time>
      </trkpt>
      <trkpt lat="43.39443" lon="6.07903">
        <ele>279.20001220703</ele>
        <time>2015-09-23T13:08:09Z</time>
      </trkpt>
      <trkpt lat="43.39443" lon="6.07903">
        <ele>279.39999389648</ele>
        <time>2015-09-23T13:08:12Z</time>
      </trkpt>
      <trkpt lat="43.39443" lon="6.07904">
        <ele>279.39999389648</ele>
        <time>2015-09-23T13:08:13Z</time>
      </trkpt>
      <trkpt lat="43.39442" lon="6.07904">
        <ele>279.60000610352</ele>
        <time>2015-09-23T13:08:15Z</time>
      </trkpt>
      <trkpt lat="43.39443" lon="6.07902">
        <ele>280.39999389648</ele>
        <time>2015-09-23T13:08:24Z</time>
      </trkpt>
      <trkpt lat="43.39443" lon="6.07902">
        <ele>280.60000610352</ele>
        <time>2015-09-23T13:08:25Z</time>
      </trkpt>
      <trkpt lat="43.39443" lon="6.07902">
        <ele>280.60000610352</ele>
        <time>2015-09-23T13:08:29Z</time>
      </trkpt>
      <trkpt lat="43.39443" lon="6.07902">
        <ele>280.39999389648</ele>
        <time>2015-09-23T13:08:39Z</time>
      </trkpt>
      <trkpt lat="43.39443" lon="6.07902">
        <ele>280.20001220703</ele>
        <time>2015-09-23T13:08:44Z</time>
      </trkpt>
      <trkpt lat="43.39443" lon="6.07906">
        <ele>280.79998779297</ele>
        <time>2015-09-23T13:08:49Z</time>
      </trkpt>
      <trkpt lat="43.39441" lon="6.0792">
        <ele>279.79998779297</ele>
        <time>2015-09-23T13:08:55Z</time>
      </trkpt>
      <trkpt lat="43.39438" lon="6.07931">
        <ele>279.60000610352</ele>
        <time>2015-09-23T13:08:59Z</time>
      </trkpt>
      <trkpt lat="43.39436" lon="6.07936">
        <ele>279.20001220703</ele>
        <time>2015-09-23T13:09:01Z</time>
      </trkpt>
      <trkpt lat="43.3943" lon="6.0795">
        <ele>278.79998779297</ele>
        <time>2015-09-23T13:09:06Z</time>
      </trkpt>
      <trkpt lat="43.39426" lon="6.07957">
        <ele>278.79998779297</ele>
        <time>2015-09-23T13:09:08Z</time>
      </trkpt>
      <trkpt lat="43.3942" lon="6.07962">
        <ele>279</ele>
        <time>2015-09-23T13:09:11Z</time>
      </trkpt>
      <trkpt lat="43.39405" lon="6.07968">
        <ele>279.79998779297</ele>
        <time>2015-09-23T13:09:18Z</time>
      </trkpt>
      <trkpt lat="43.39397" lon="6.07968">
        <ele>280.60000610352</ele>
        <time>2015-09-23T13:09:21Z</time>
      </trkpt>
      <trkpt lat="43.39393" lon="6.07967">
        <ele>281.39999389648</ele>
        <time>2015-09-23T13:09:24Z</time>
      </trkpt>
      <trkpt lat="43.39388" lon="6.07967">
        <ele>282.20001220703</ele>
        <time>2015-09-23T13:09:27Z</time>
      </trkpt>
      <trkpt lat="43.39384" lon="6.07969">
        <ele>282.20001220703</ele>
        <time>2015-09-23T13:09:29Z</time>
      </trkpt>
      <trkpt lat="43.39381" lon="6.0797">
        <ele>282.39999389648</ele>
        <time>2015-09-23T13:09:31Z</time>
      </trkpt>
      <trkpt lat="43.39376" lon="6.07978">
        <ele>282.20001220703</ele>
        <time>2015-09-23T13:09:35Z</time>
      </trkpt>
      <trkpt lat="43.39374" lon="6.07985">
        <ele>281.39999389648</ele>
        <time>2015-09-23T13:09:38Z</time>
      </trkpt>
      <trkpt lat="43.39372" lon="6.07993">
        <ele>280.79998779297</ele>
        <time>2015-09-23T13:09:42Z</time>
      </trkpt>
      <trkpt lat="43.39372" lon="6.07993">
        <ele>280.79998779297</ele>
        <time>2015-09-23T13:09:47Z</time>
      </trkpt>
      <trkpt lat="43.39372" lon="6.07993">
        <ele>281.20001220703</ele>
        <time>2015-09-23T13:10:05Z</time>
      </trkpt>
      <trkpt lat="43.39372" lon="6.07993">
        <ele>280.39999389648</ele>
        <time>2015-09-23T13:10:26Z</time>
      </trkpt>
      <trkpt lat="43.39371" lon="6.07995">
        <ele>280.60000610352</ele>
        <time>2015-09-23T13:10:40Z</time>
      </trkpt>
      <trkpt lat="43.39368" lon="6.07998">
        <ele>280.60000610352</ele>
        <time>2015-09-23T13:10:43Z</time>
      </trkpt>
      <trkpt lat="43.39367" lon="6.08004">
        <ele>280.79998779297</ele>
        <time>2015-09-23T13:10:46Z</time>
      </trkpt>
      <trkpt lat="43.39364" lon="6.08012">
        <ele>281.39999389648</ele>
        <time>2015-09-23T13:10:50Z</time>
      </trkpt>
      <trkpt lat="43.39362" lon="6.08018">
        <ele>281.20001220703</ele>
        <time>2015-09-23T13:10:53Z</time>
      </trkpt>
      <trkpt lat="43.3936" lon="6.08021">
        <ele>280.60000610352</ele>
        <time>2015-09-23T13:10:56Z</time>
      </trkpt>
      <trkpt lat="43.39359" lon="6.08024">
        <ele>280.39999389648</ele>
        <time>2015-09-23T13:10:58Z</time>
      </trkpt>
      <trkpt lat="43.39359" lon="6.08025">
        <ele>280.39999389648</ele>
        <time>2015-09-23T13:10:59Z</time>
      </trkpt>
      <trkpt lat="43.39356" lon="6.08034">
        <ele>280.79998779297</ele>
        <time>2015-09-23T13:11:05Z</time>
      </trkpt>
      <trkpt lat="43.39353" lon="6.08038">
        <ele>281.39999389648</ele>
        <time>2015-09-23T13:11:11Z</time>
      </trkpt>
      <trkpt lat="43.39352" lon="6.08038">
        <ele>281.39999389648</ele>
        <time>2015-09-23T13:11:12Z</time>
      </trkpt>
      <trkpt lat="43.39348" lon="6.08042">
        <ele>281.79998779297</ele>
        <time>2015-09-23T13:11:16Z</time>
      </trkpt>
      <trkpt lat="43.39346" lon="6.08044">
        <ele>282.20001220703</ele>
        <time>2015-09-23T13:11:18Z</time>
      </trkpt>
      <trkpt lat="43.39341" lon="6.08051">
        <ele>282.79998779297</ele>
        <time>2015-09-23T13:11:22Z</time>
      </trkpt>
      <trkpt lat="43.39338" lon="6.08056">
        <ele>282.79998779297</ele>
        <time>2015-09-23T13:11:25Z</time>
      </trkpt>
      <trkpt lat="43.3933" lon="6.08072">
        <ele>283.20001220703</ele>
        <time>2015-09-23T13:11:33Z</time>
      </trkpt>
      <trkpt lat="43.39323" lon="6.08084">
        <ele>283.60000610352</ele>
        <time>2015-09-23T13:11:40Z</time>
      </trkpt>
      <trkpt lat="43.39322" lon="6.08085">
        <ele>283.60000610352</ele>
        <time>2015-09-23T13:11:41Z</time>
      </trkpt>
      <trkpt lat="43.39317" lon="6.08091">
        <ele>284.20001220703</ele>
        <time>2015-09-23T13:11:46Z</time>
      </trkpt>
      <trkpt lat="43.39316" lon="6.08092">
        <ele>284.39999389648</ele>
        <time>2015-09-23T13:11:47Z</time>
      </trkpt>
      <trkpt lat="43.39312" lon="6.081">
        <ele>284.79998779297</ele>
        <time>2015-09-23T13:11:51Z</time>
      </trkpt>
      <trkpt lat="43.39308" lon="6.08107">
        <ele>285.60000610352</ele>
        <time>2015-09-23T13:11:55Z</time>
      </trkpt>
      <trkpt lat="43.39306" lon="6.0811">
        <ele>285.79998779297</ele>
        <time>2015-09-23T13:11:57Z</time>
      </trkpt>
      <trkpt lat="43.39304" lon="6.08117">
        <ele>286</ele>
        <time>2015-09-23T13:12:00Z</time>
      </trkpt>
      <trkpt lat="43.39302" lon="6.08121">
        <ele>286.39999389648</ele>
        <time>2015-09-23T13:12:03Z</time>
      </trkpt>
      <trkpt lat="43.39297" lon="6.08131">
        <ele>286.20001220703</ele>
        <time>2015-09-23T13:12:10Z</time>
      </trkpt>
      <trkpt lat="43.39297" lon="6.08132">
        <ele>286.60000610352</ele>
        <time>2015-09-23T13:12:16Z</time>
      </trkpt>
      <trkpt lat="43.39297" lon="6.08133">
        <ele>287.20001220703</ele>
        <time>2015-09-23T13:12:25Z</time>
      </trkpt>
      <trkpt lat="43.39297" lon="6.08133">
        <ele>287</ele>
        <time>2015-09-23T13:12:36Z</time>
      </trkpt>
      <trkpt lat="43.39297" lon="6.08132">
        <ele>286.79998779297</ele>
        <time>2015-09-23T13:12:43Z</time>
      </trkpt>
      <trkpt lat="43.39297" lon="6.08133">
        <ele>286.79998779297</ele>
        <time>2015-09-23T13:12:48Z</time>
      </trkpt>
      <trkpt lat="43.39296" lon="6.08134">
        <ele>286.79998779297</ele>
        <time>2015-09-23T13:12:52Z</time>
      </trkpt>
      <trkpt lat="43.39294" lon="6.08138">
        <ele>286.79998779297</ele>
        <time>2015-09-23T13:12:55Z</time>
      </trkpt>
      <trkpt lat="43.39292" lon="6.08144">
        <ele>287</ele>
        <time>2015-09-23T13:12:57Z</time>
      </trkpt>
      <trkpt lat="43.3929" lon="6.08148">
        <ele>287.39999389648</ele>
        <time>2015-09-23T13:12:59Z</time>
      </trkpt>
      <trkpt lat="43.39291" lon="6.08151">
        <ele>287.39999389648</ele>
        <time>2015-09-23T13:13:00Z</time>
      </trkpt>
      <trkpt lat="43.39291" lon="6.08153">
        <ele>287.39999389648</ele>
        <time>2015-09-23T13:13:03Z</time>
      </trkpt>
      <trkpt lat="43.39291" lon="6.08155">
        <ele>287.79998779297</ele>
        <time>2015-09-23T13:13:13Z</time>
      </trkpt>
      <trkpt lat="43.39291" lon="6.0816">
        <ele>288.60000610352</ele>
        <time>2015-09-23T13:13:21Z</time>
      </trkpt>
      <trkpt lat="43.3929" lon="6.08163">
        <ele>288.60000610352</ele>
        <time>2015-09-23T13:13:23Z</time>
      </trkpt>
      <trkpt lat="43.39288" lon="6.08172">
        <ele>288.39999389648</ele>
        <time>2015-09-23T13:13:28Z</time>
      </trkpt>
      <trkpt lat="43.39288" lon="6.08173">
        <ele>288.60000610352</ele>
        <time>2015-09-23T13:13:29Z</time>
      </trkpt>
      <trkpt lat="43.39284" lon="6.0818">
        <ele>289</ele>
        <time>2015-09-23T13:13:33Z</time>
      </trkpt>
      <trkpt lat="43.39283" lon="6.0818">
        <ele>289.20001220703</ele>
        <time>2015-09-23T13:13:34Z</time>
      </trkpt>
      <trkpt lat="43.39282" lon="6.08184">
        <ele>289.79998779297</ele>
        <time>2015-09-23T13:13:40Z</time>
      </trkpt>
      <trkpt lat="43.39282" lon="6.08186">
        <ele>289.39999389648</ele>
        <time>2015-09-23T13:13:50Z</time>
      </trkpt>
      <trkpt lat="43.39281" lon="6.08191">
        <ele>289.60000610352</ele>
        <time>2015-09-23T13:13:57Z</time>
      </trkpt>
      <trkpt lat="43.39281" lon="6.08192">
        <ele>289.20001220703</ele>
        <time>2015-09-23T13:14:05Z</time>
      </trkpt>
      <trkpt lat="43.39279" lon="6.08195">
        <ele>290</ele>
        <time>2015-09-23T13:14:15Z</time>
      </trkpt>
      <trkpt lat="43.39278" lon="6.08196">
        <ele>290.39999389648</ele>
        <time>2015-09-23T13:14:17Z</time>
      </trkpt>
      <trkpt lat="43.39278" lon="6.08196">
        <ele>290.60000610352</ele>
        <time>2015-09-23T13:14:20Z</time>
      </trkpt>
      <trkpt lat="43.39277" lon="6.08198">
        <ele>291</ele>
        <time>2015-09-23T13:14:23Z</time>
      </trkpt>
      <trkpt lat="43.39276" lon="6.08202">
        <ele>290.79998779297</ele>
        <time>2015-09-23T13:14:27Z</time>
      </trkpt>
      <trkpt lat="43.39274" lon="6.08209">
        <ele>290.60000610352</ele>
        <time>2015-09-23T13:14:33Z</time>
      </trkpt>
      <trkpt lat="43.39273" lon="6.08224">
        <ele>292</ele>
        <time>2015-09-23T13:14:40Z</time>
      </trkpt>
      <trkpt lat="43.39269" lon="6.08237">
        <ele>292.60000610352</ele>
        <time>2015-09-23T13:14:47Z</time>
      </trkpt>
      <trkpt lat="43.39267" lon="6.08241">
        <ele>293.20001220703</ele>
        <time>2015-09-23T13:14:49Z</time>
      </trkpt>
      <trkpt lat="43.39265" lon="6.0825">
        <ele>294.60000610352</ele>
        <time>2015-09-23T13:14:53Z</time>
      </trkpt>
      <trkpt lat="43.39264" lon="6.08265">
        <ele>295</ele>
        <time>2015-09-23T13:15:00Z</time>
      </trkpt>
      <trkpt lat="43.39258" lon="6.08274">
        <ele>295.79998779297</ele>
        <time>2015-09-23T13:15:07Z</time>
      </trkpt>
      <trkpt lat="43.39258" lon="6.08275">
        <ele>295.79998779297</ele>
        <time>2015-09-23T13:15:08Z</time>
      </trkpt>
      <trkpt lat="43.39259" lon="6.08277">
        <ele>295.79998779297</ele>
        <time>2015-09-23T13:15:12Z</time>
      </trkpt>
      <trkpt lat="43.39257" lon="6.08279">
        <ele>296.60000610352</ele>
        <time>2015-09-23T13:15:20Z</time>
      </trkpt>
      <trkpt lat="43.39256" lon="6.0828">
        <ele>296.79998779297</ele>
        <time>2015-09-23T13:15:32Z</time>
      </trkpt>
      <trkpt lat="43.39256" lon="6.0828">
        <ele>297.39999389648</ele>
        <time>2015-09-23T13:15:37Z</time>
      </trkpt>
      <trkpt lat="43.39256" lon="6.0828">
        <ele>297.60000610352</ele>
        <time>2015-09-23T13:15:40Z</time>
      </trkpt>
      <trkpt lat="43.39256" lon="6.0828">
        <ele>298</ele>
        <time>2015-09-23T13:15:52Z</time>
      </trkpt>
      <trkpt lat="43.39256" lon="6.0828">
        <ele>298.20001220703</ele>
        <time>2015-09-23T13:15:53Z</time>
      </trkpt>
      <trkpt lat="43.39252" lon="6.08284">
        <ele>297.60000610352</ele>
        <time>2015-09-23T13:16:02Z</time>
      </trkpt>
      <trkpt lat="43.39245" lon="6.08293">
        <ele>297.60000610352</ele>
        <time>2015-09-23T13:16:08Z</time>
      </trkpt>
      <trkpt lat="43.39245" lon="6.08295">
        <ele>297.60000610352</ele>
        <time>2015-09-23T13:16:09Z</time>
      </trkpt>
      <trkpt lat="43.39244" lon="6.08296">
        <ele>298.39999389648</ele>
        <time>2015-09-23T13:16:12Z</time>
      </trkpt>
      <trkpt lat="43.39243" lon="6.08301">
        <ele>299</ele>
        <time>2015-09-23T13:16:21Z</time>
      </trkpt>
      <trkpt lat="43.39241" lon="6.08305">
        <ele>298.60000610352</ele>
        <time>2015-09-23T13:16:36Z</time>
      </trkpt>
      <trkpt lat="43.39237" lon="6.08312">
        <ele>299</ele>
        <time>2015-09-23T13:16:41Z</time>
      </trkpt>
      <trkpt lat="43.39235" lon="6.08316">
        <ele>299.60000610352</ele>
        <time>2015-09-23T13:16:43Z</time>
      </trkpt>
      <trkpt lat="43.39234" lon="6.0832">
        <ele>300</ele>
        <time>2015-09-23T13:16:45Z</time>
      </trkpt>
      <trkpt lat="43.39234" lon="6.08321">
        <ele>300.20001220703</ele>
        <time>2015-09-23T13:16:46Z</time>
      </trkpt>
      <trkpt lat="43.39235" lon="6.08323">
        <ele>300.39999389648</ele>
        <time>2015-09-23T13:16:52Z</time>
      </trkpt>
      <trkpt lat="43.39232" lon="6.08327">
        <ele>300.60000610352</ele>
        <time>2015-09-23T13:16:59Z</time>
      </trkpt>
      <trkpt lat="43.39232" lon="6.0833">
        <ele>300.60000610352</ele>
        <time>2015-09-23T13:17:06Z</time>
      </trkpt>
      <trkpt lat="43.39232" lon="6.0833">
        <ele>301.60000610352</ele>
        <time>2015-09-23T13:17:10Z</time>
      </trkpt>
      <trkpt lat="43.39232" lon="6.08332">
        <ele>302.20001220703</ele>
        <time>2015-09-23T13:17:14Z</time>
      </trkpt>
      <trkpt lat="43.39233" lon="6.08334">
        <ele>302.20001220703</ele>
        <time>2015-09-23T13:17:15Z</time>
      </trkpt>
      <trkpt lat="43.39233" lon="6.08339">
        <ele>302.39999389648</ele>
        <time>2015-09-23T13:17:18Z</time>
      </trkpt>
      <trkpt lat="43.3923" lon="6.08339">
        <ele>302.39999389648</ele>
        <time>2015-09-23T13:17:20Z</time>
      </trkpt>
      <trkpt lat="43.39225" lon="6.0834">
        <ele>302.60000610352</ele>
        <time>2015-09-23T13:17:24Z</time>
      </trkpt>
      <trkpt lat="43.39223" lon="6.08344">
        <ele>302.79998779297</ele>
        <time>2015-09-23T13:17:26Z</time>
      </trkpt>
      <trkpt lat="43.39223" lon="6.08346">
        <ele>302.79998779297</ele>
        <time>2015-09-23T13:17:27Z</time>
      </trkpt>
      <trkpt lat="43.39222" lon="6.08354">
        <ele>303.79998779297</ele>
        <time>2015-09-23T13:17:31Z</time>
      </trkpt>
      <trkpt lat="43.39221" lon="6.08361">
        <ele>304</ele>
        <time>2015-09-23T13:17:35Z</time>
      </trkpt>
      <trkpt lat="43.3922" lon="6.08367">
        <ele>304.39999389648</ele>
        <time>2015-09-23T13:17:38Z</time>
      </trkpt>
      <trkpt lat="43.39219" lon="6.0837">
        <ele>305.39999389648</ele>
        <time>2015-09-23T13:17:40Z</time>
      </trkpt>
      <trkpt lat="43.39218" lon="6.08381">
        <ele>306</ele>
        <time>2015-09-23T13:17:46Z</time>
      </trkpt>
      <trkpt lat="43.39214" lon="6.08392">
        <ele>306.39999389648</ele>
        <time>2015-09-23T13:17:52Z</time>
      </trkpt>
      <trkpt lat="43.39214" lon="6.08392">
        <ele>306.60000610352</ele>
        <time>2015-09-23T13:17:54Z</time>
      </trkpt>
      <trkpt lat="43.39214" lon="6.08396">
        <ele>307.39999389648</ele>
        <time>2015-09-23T13:17:57Z</time>
      </trkpt>
      <trkpt lat="43.39214" lon="6.08402">
        <ele>308</ele>
        <time>2015-09-23T13:18:00Z</time>
      </trkpt>
      <trkpt lat="43.39213" lon="6.0841">
        <ele>308.39999389648</ele>
        <time>2015-09-23T13:18:04Z</time>
      </trkpt>
      <trkpt lat="43.39211" lon="6.08418">
        <ele>308</ele>
        <time>2015-09-23T13:18:11Z</time>
      </trkpt>
      <trkpt lat="43.39209" lon="6.08422">
        <ele>308.20001220703</ele>
        <time>2015-09-23T13:18:18Z</time>
      </trkpt>
      <trkpt lat="43.39209" lon="6.08423">
        <ele>308.39999389648</ele>
        <time>2015-09-23T13:18:24Z</time>
      </trkpt>
      <trkpt lat="43.39209" lon="6.08426">
        <ele>308.60000610352</ele>
        <time>2015-09-23T13:18:30Z</time>
      </trkpt>
      <trkpt lat="43.39209" lon="6.08426">
        <ele>310</ele>
        <time>2015-09-23T13:18:36Z</time>
      </trkpt>
      <trkpt lat="43.39208" lon="6.08428">
        <ele>310</ele>
        <time>2015-09-23T13:18:37Z</time>
      </trkpt>
      <trkpt lat="43.39207" lon="6.0843">
        <ele>308.60000610352</ele>
        <time>2015-09-23T13:18:39Z</time>
      </trkpt>
      <trkpt lat="43.39206" lon="6.08434">
        <ele>307.60000610352</ele>
        <time>2015-09-23T13:18:41Z</time>
      </trkpt>
      <trkpt lat="43.39205" lon="6.08439">
        <ele>309.79998779297</ele>
        <time>2015-09-23T13:18:43Z</time>
      </trkpt>
      <trkpt lat="43.39204" lon="6.08441">
        <ele>310.79998779297</ele>
        <time>2015-09-23T13:18:44Z</time>
      </trkpt>
      <trkpt lat="43.39205" lon="6.08443">
        <ele>311.20001220703</ele>
        <time>2015-09-23T13:18:48Z</time>
      </trkpt>
      <trkpt lat="43.39205" lon="6.08448">
        <ele>311.79998779297</ele>
        <time>2015-09-23T13:18:55Z</time>
      </trkpt>
      <trkpt lat="43.39205" lon="6.08452">
        <ele>312.39999389648</ele>
        <time>2015-09-23T13:18:57Z</time>
      </trkpt>
      <trkpt lat="43.39204" lon="6.08462">
        <ele>312.39999389648</ele>
        <time>2015-09-23T13:19:02Z</time>
      </trkpt>
      <trkpt lat="43.39202" lon="6.08473">
        <ele>313.60000610352</ele>
        <time>2015-09-23T13:19:08Z</time>
      </trkpt>
      <trkpt lat="43.39201" lon="6.08478">
        <ele>314.60000610352</ele>
        <time>2015-09-23T13:19:11Z</time>
      </trkpt>
      <trkpt lat="43.39199" lon="6.08499">
        <ele>315</ele>
        <time>2015-09-23T13:19:22Z</time>
      </trkpt>
      <trkpt lat="43.39197" lon="6.08509">
        <ele>315.79998779297</ele>
        <time>2015-09-23T13:19:28Z</time>
      </trkpt>
      <trkpt lat="43.39196" lon="6.0851">
        <ele>315.60000610352</ele>
        <time>2015-09-23T13:19:31Z</time>
      </trkpt>
      <trkpt lat="43.39196" lon="6.08511">
        <ele>315.60000610352</ele>
        <time>2015-09-23T13:19:33Z</time>
      </trkpt>
      <trkpt lat="43.39196" lon="6.08511">
        <ele>315.20001220703</ele>
        <time>2015-09-23T13:19:48Z</time>
      </trkpt>
      <trkpt lat="43.39196" lon="6.08511">
        <ele>314.79998779297</ele>
        <time>2015-09-23T13:19:59Z</time>
      </trkpt>
      <trkpt lat="43.39196" lon="6.08511">
        <ele>315.39999389648</ele>
        <time>2015-09-23T13:20:09Z</time>
      </trkpt>
      <trkpt lat="43.39196" lon="6.08511">
        <ele>315.20001220703</ele>
        <time>2015-09-23T13:20:13Z</time>
      </trkpt>
      <trkpt lat="43.39196" lon="6.08511">
        <ele>315.20001220703</ele>
        <time>2015-09-23T13:20:16Z</time>
      </trkpt>
      <trkpt lat="43.39196" lon="6.08511">
        <ele>315.60000610352</ele>
        <time>2015-09-23T13:20:26Z</time>
      </trkpt>
      <trkpt lat="43.39196" lon="6.08511">
        <ele>315.20001220703</ele>
        <time>2015-09-23T13:20:37Z</time>
      </trkpt>
      <trkpt lat="43.39196" lon="6.0851">
        <ele>315.60000610352</ele>
        <time>2015-09-23T13:21:05Z</time>
      </trkpt>
      <trkpt lat="43.39196" lon="6.0851">
        <ele>315</ele>
        <time>2015-09-23T13:21:16Z</time>
      </trkpt>
      <trkpt lat="43.39196" lon="6.0851">
        <ele>315</ele>
        <time>2015-09-23T13:21:26Z</time>
      </trkpt>
      <trkpt lat="43.39196" lon="6.0851">
        <ele>314.39999389648</ele>
        <time>2015-09-23T13:22:01Z</time>
      </trkpt>
      <trkpt lat="43.39196" lon="6.0851">
        <ele>314.39999389648</ele>
        <time>2015-09-23T13:22:07Z</time>
      </trkpt>
      <trkpt lat="43.39196" lon="6.0851">
        <ele>314.60000610352</ele>
        <time>2015-09-23T13:22:10Z</time>
      </trkpt>
      <trkpt lat="43.39196" lon="6.0851">
        <ele>314.39999389648</ele>
        <time>2015-09-23T13:22:14Z</time>
      </trkpt>
      <trkpt lat="43.39196" lon="6.0851">
        <ele>313.60000610352</ele>
        <time>2015-09-23T13:22:40Z</time>
      </trkpt>
      <trkpt lat="43.39196" lon="6.0851">
        <ele>313.79998779297</ele>
        <time>2015-09-23T13:23:15Z</time>
      </trkpt>
      <trkpt lat="43.39196" lon="6.08509">
        <ele>314</ele>
        <time>2015-09-23T13:23:55Z</time>
      </trkpt>
      <trkpt lat="43.39195" lon="6.08509">
        <ele>314.20001220703</ele>
        <time>2015-09-23T13:24:00Z</time>
      </trkpt>
      <trkpt lat="43.39195" lon="6.08509">
        <ele>314.39999389648</ele>
        <time>2015-09-23T13:24:02Z</time>
      </trkpt>
      <trkpt lat="43.39195" lon="6.08509">
        <ele>314.79998779297</ele>
        <time>2015-09-23T13:24:06Z</time>
      </trkpt>
      <trkpt lat="43.39196" lon="6.08509">
        <ele>313.39999389648</ele>
        <time>2015-09-23T13:24:30Z</time>
      </trkpt>
      <trkpt lat="43.39196" lon="6.08509">
        <ele>314</ele>
        <time>2015-09-23T13:24:49Z</time>
      </trkpt>
      <trkpt lat="43.39196" lon="6.08509">
        <ele>314.39999389648</ele>
        <time>2015-09-23T13:25:38Z</time>
      </trkpt>
      <trkpt lat="43.39195" lon="6.08508">
        <ele>315</ele>
        <time>2015-09-23T13:25:46Z</time>
      </trkpt>
      <trkpt lat="43.39195" lon="6.08508">
        <ele>314.79998779297</ele>
        <time>2015-09-23T13:26:01Z</time>
      </trkpt>
      <trkpt lat="43.39194" lon="6.08508">
        <ele>315.39999389648</ele>
        <time>2015-09-23T13:26:17Z</time>
      </trkpt>
      <trkpt lat="43.39192" lon="6.08516">
        <ele>315</ele>
        <time>2015-09-23T13:26:22Z</time>
      </trkpt>
      <trkpt lat="43.39191" lon="6.08518">
        <ele>314.60000610352</ele>
        <time>2015-09-23T13:26:23Z</time>
      </trkpt>
      <trkpt lat="43.39187" lon="6.08528">
        <ele>314.20001220703</ele>
        <time>2015-09-23T13:26:27Z</time>
      </trkpt>
      <trkpt lat="43.39184" lon="6.08535">
        <ele>313.79998779297</ele>
        <time>2015-09-23T13:26:29Z</time>
      </trkpt>
      <trkpt lat="43.39175" lon="6.08557">
        <ele>313</ele>
        <time>2015-09-23T13:26:35Z</time>
      </trkpt>
      <trkpt lat="43.39169" lon="6.0858">
        <ele>312.39999389648</ele>
        <time>2015-09-23T13:26:41Z</time>
      </trkpt>
      <trkpt lat="43.39168" lon="6.08586">
        <ele>312.20001220703</ele>
        <time>2015-09-23T13:26:43Z</time>
      </trkpt>
      <trkpt lat="43.39165" lon="6.08595">
        <ele>311.79998779297</ele>
        <time>2015-09-23T13:26:47Z</time>
      </trkpt>
      <trkpt lat="43.39159" lon="6.08621">
        <ele>312.20001220703</ele>
        <time>2015-09-23T13:26:56Z</time>
      </trkpt>
      <trkpt lat="43.39153" lon="6.08638">
        <ele>311.39999389648</ele>
        <time>2015-09-23T13:27:01Z</time>
      </trkpt>
      <trkpt lat="43.39153" lon="6.08642">
        <ele>311.39999389648</ele>
        <time>2015-09-23T13:27:02Z</time>
      </trkpt>
      <trkpt lat="43.39149" lon="6.08662">
        <ele>310.79998779297</ele>
        <time>2015-09-23T13:27:08Z</time>
      </trkpt>
      <trkpt lat="43.39145" lon="6.08681">
        <ele>311.60000610352</ele>
        <time>2015-09-23T13:27:13Z</time>
      </trkpt>
      <trkpt lat="43.39143" lon="6.08703">
        <ele>311.79998779297</ele>
        <time>2015-09-23T13:27:19Z</time>
      </trkpt>
      <trkpt lat="43.39137" lon="6.08728">
        <ele>311.60000610352</ele>
        <time>2015-09-23T13:27:26Z</time>
      </trkpt>
      <trkpt lat="43.39132" lon="6.08747">
        <ele>312.60000610352</ele>
        <time>2015-09-23T13:27:32Z</time>
      </trkpt>
      <trkpt lat="43.39127" lon="6.08768">
        <ele>312.79998779297</ele>
        <time>2015-09-23T13:27:38Z</time>
      </trkpt>
      <trkpt lat="43.39121" lon="6.08797">
        <ele>313.79998779297</ele>
        <time>2015-09-23T13:27:46Z</time>
      </trkpt>
      <trkpt lat="43.39116" lon="6.08818">
        <ele>314.20001220703</ele>
        <time>2015-09-23T13:27:52Z</time>
      </trkpt>
      <trkpt lat="43.39108" lon="6.08862">
        <ele>314</ele>
        <time>2015-09-23T13:28:05Z</time>
      </trkpt>
      <trkpt lat="43.39104" lon="6.08878">
        <ele>314.39999389648</ele>
        <time>2015-09-23T13:28:11Z</time>
      </trkpt>
      <trkpt lat="43.39101" lon="6.08896">
        <ele>314.60000610352</ele>
        <time>2015-09-23T13:28:17Z</time>
      </trkpt>
      <trkpt lat="43.39096" lon="6.08923">
        <ele>314.79998779297</ele>
        <time>2015-09-23T13:28:24Z</time>
      </trkpt>
      <trkpt lat="43.3909" lon="6.08941">
        <ele>315.20001220703</ele>
        <time>2015-09-23T13:28:29Z</time>
      </trkpt>
      <trkpt lat="43.39085" lon="6.08963">
        <ele>315.20001220703</ele>
        <time>2015-09-23T13:28:34Z</time>
      </trkpt>
      <trkpt lat="43.39078" lon="6.08983">
        <ele>315.39999389648</ele>
        <time>2015-09-23T13:28:39Z</time>
      </trkpt>
      <trkpt lat="43.39075" lon="6.0899">
        <ele>316.39999389648</ele>
        <time>2015-09-23T13:28:41Z</time>
      </trkpt>
      <trkpt lat="43.39068" lon="6.09006">
        <ele>316.79998779297</ele>
        <time>2015-09-23T13:28:46Z</time>
      </trkpt>
      <trkpt lat="43.3906" lon="6.09027">
        <ele>316.39999389648</ele>
        <time>2015-09-23T13:28:52Z</time>
      </trkpt>
      <trkpt lat="43.39051" lon="6.09046">
        <ele>316</ele>
        <time>2015-09-23T13:28:58Z</time>
      </trkpt>
      <trkpt lat="43.39047" lon="6.09057">
        <ele>318</ele>
        <time>2015-09-23T13:29:01Z</time>
      </trkpt>
      <trkpt lat="43.39045" lon="6.09063">
        <ele>318</ele>
        <time>2015-09-23T13:29:03Z</time>
      </trkpt>
      <trkpt lat="43.3904" lon="6.0908">
        <ele>316.79998779297</ele>
        <time>2015-09-23T13:29:07Z</time>
      </trkpt>
      <trkpt lat="43.39039" lon="6.09084">
        <ele>316.60000610352</ele>
        <time>2015-09-23T13:29:08Z</time>
      </trkpt>
      <trkpt lat="43.39034" lon="6.09106">
        <ele>317</ele>
        <time>2015-09-23T13:29:14Z</time>
      </trkpt>
      <trkpt lat="43.39027" lon="6.09128">
        <ele>318.20001220703</ele>
        <time>2015-09-23T13:29:20Z</time>
      </trkpt>
      <trkpt lat="43.39026" lon="6.09136">
        <ele>318.39999389648</ele>
        <time>2015-09-23T13:29:22Z</time>
      </trkpt>
      <trkpt lat="43.3902" lon="6.09158">
        <ele>318</ele>
        <time>2015-09-23T13:29:27Z</time>
      </trkpt>
      <trkpt lat="43.39009" lon="6.09181">
        <ele>319.20001220703</ele>
        <time>2015-09-23T13:29:34Z</time>
      </trkpt>
      <trkpt lat="43.39008" lon="6.09184">
        <ele>319.60000610352</ele>
        <time>2015-09-23T13:29:35Z</time>
      </trkpt>
      <trkpt lat="43.39004" lon="6.092">
        <ele>321</ele>
        <time>2015-09-23T13:29:39Z</time>
      </trkpt>
      <trkpt lat="43.39002" lon="6.09205">
        <ele>320.79998779297</ele>
        <time>2015-09-23T13:29:40Z</time>
      </trkpt>
      <trkpt lat="43.38998" lon="6.09235">
        <ele>320.39999389648</ele>
        <time>2015-09-23T13:29:46Z</time>
      </trkpt>
      <trkpt lat="43.3899" lon="6.09262">
        <ele>320</ele>
        <time>2015-09-23T13:29:52Z</time>
      </trkpt>
      <trkpt lat="43.38981" lon="6.09287">
        <ele>321.20001220703</ele>
        <time>2015-09-23T13:29:59Z</time>
      </trkpt>
      <trkpt lat="43.38976" lon="6.09294">
        <ele>322.20001220703</ele>
        <time>2015-09-23T13:30:02Z</time>
      </trkpt>
      <trkpt lat="43.38971" lon="6.093">
        <ele>322.79998779297</ele>
        <time>2015-09-23T13:30:05Z</time>
      </trkpt>
      <trkpt lat="43.38966" lon="6.09313">
        <ele>323.79998779297</ele>
        <time>2015-09-23T13:30:10Z</time>
      </trkpt>
      <trkpt lat="43.38959" lon="6.09331">
        <ele>324.20001220703</ele>
        <time>2015-09-23T13:30:16Z</time>
      </trkpt>
      <trkpt lat="43.38958" lon="6.09334">
        <ele>324.39999389648</ele>
        <time>2015-09-23T13:30:17Z</time>
      </trkpt>
      <trkpt lat="43.38955" lon="6.09339">
        <ele>324.79998779297</ele>
        <time>2015-09-23T13:30:19Z</time>
      </trkpt>
      <trkpt lat="43.38952" lon="6.09343">
        <ele>325.20001220703</ele>
        <time>2015-09-23T13:30:21Z</time>
      </trkpt>
      <trkpt lat="43.38948" lon="6.09346">
        <ele>325.39999389648</ele>
        <time>2015-09-23T13:30:23Z</time>
      </trkpt>
      <trkpt lat="43.38939" lon="6.09359">
        <ele>325</ele>
        <time>2015-09-23T13:30:28Z</time>
      </trkpt>
      <trkpt lat="43.38927" lon="6.09373">
        <ele>324.39999389648</ele>
        <time>2015-09-23T13:30:34Z</time>
      </trkpt>
      <trkpt lat="43.38925" lon="6.09376">
        <ele>324.60000610352</ele>
        <time>2015-09-23T13:30:35Z</time>
      </trkpt>
      <trkpt lat="43.3892" lon="6.09384">
        <ele>325.79998779297</ele>
        <time>2015-09-23T13:30:39Z</time>
      </trkpt>
      <trkpt lat="43.38919" lon="6.09385">
        <ele>326.20001220703</ele>
        <time>2015-09-23T13:30:40Z</time>
      </trkpt>
      <trkpt lat="43.38912" lon="6.09394">
        <ele>327.60000610352</ele>
        <time>2015-09-23T13:30:46Z</time>
      </trkpt>
      <trkpt lat="43.38908" lon="6.09399">
        <ele>327.79998779297</ele>
        <time>2015-09-23T13:30:50Z</time>
      </trkpt>
      <trkpt lat="43.38908" lon="6.09401">
        <ele>327.60000610352</ele>
        <time>2015-09-23T13:30:51Z</time>
      </trkpt>
      <trkpt lat="43.38904" lon="6.09407">
        <ele>328.20001220703</ele>
        <time>2015-09-23T13:30:55Z</time>
      </trkpt>
      <trkpt lat="43.38904" lon="6.09408">
        <ele>329.39999389648</ele>
        <time>2015-09-23T13:30:59Z</time>
      </trkpt>
      <trkpt lat="43.38904" lon="6.09409">
        <ele>329.60000610352</ele>
        <time>2015-09-23T13:31:02Z</time>
      </trkpt>
      <trkpt lat="43.38901" lon="6.09411">
        <ele>329.79998779297</ele>
        <time>2015-09-23T13:31:10Z</time>
      </trkpt>
      <trkpt lat="43.389" lon="6.09413">
        <ele>329.60000610352</ele>
        <time>2015-09-23T13:31:17Z</time>
      </trkpt>
      <trkpt lat="43.389" lon="6.09413">
        <ele>329.79998779297</ele>
        <time>2015-09-23T13:31:18Z</time>
      </trkpt>
      <trkpt lat="43.389" lon="6.09413">
        <ele>329.39999389648</ele>
        <time>2015-09-23T13:31:24Z</time>
      </trkpt>
      <trkpt lat="43.38899" lon="6.09415">
        <ele>329.79998779297</ele>
        <time>2015-09-23T13:31:29Z</time>
      </trkpt>
      <trkpt lat="43.38899" lon="6.09417">
        <ele>330.20001220703</ele>
        <time>2015-09-23T13:31:30Z</time>
      </trkpt>
      <trkpt lat="43.38898" lon="6.09421">
        <ele>329.79998779297</ele>
        <time>2015-09-23T13:31:33Z</time>
      </trkpt>
      <trkpt lat="43.38895" lon="6.09423">
        <ele>330</ele>
        <time>2015-09-23T13:31:35Z</time>
      </trkpt>
      <trkpt lat="43.38894" lon="6.09423">
        <ele>330</ele>
        <time>2015-09-23T13:31:36Z</time>
      </trkpt>
      <trkpt lat="43.38894" lon="6.09423">
        <ele>330.60000610352</ele>
        <time>2015-09-23T13:31:38Z</time>
      </trkpt>
      <trkpt lat="43.38893" lon="6.09423">
        <ele>330.79998779297</ele>
        <time>2015-09-23T13:31:41Z</time>
      </trkpt>
      <trkpt lat="43.38893" lon="6.09423">
        <ele>331</ele>
        <time>2015-09-23T13:31:42Z</time>
      </trkpt>
      <trkpt lat="43.38893" lon="6.09423">
        <ele>332</ele>
        <time>2015-09-23T13:31:44Z</time>
      </trkpt>
      <trkpt lat="43.38891" lon="6.09426">
        <ele>331.79998779297</ele>
        <time>2015-09-23T13:31:51Z</time>
      </trkpt>
      <trkpt lat="43.38888" lon="6.0943">
        <ele>332.60000610352</ele>
        <time>2015-09-23T13:32:00Z</time>
      </trkpt>
      <trkpt lat="43.38887" lon="6.09431">
        <ele>332.79998779297</ele>
        <time>2015-09-23T13:32:05Z</time>
      </trkpt>
      <trkpt lat="43.38886" lon="6.09431">
        <ele>332.60000610352</ele>
        <time>2015-09-23T13:32:08Z</time>
      </trkpt>
      <trkpt lat="43.38886" lon="6.09431">
        <ele>332.79998779297</ele>
        <time>2015-09-23T13:32:22Z</time>
      </trkpt>
      <trkpt lat="43.38886" lon="6.09431">
        <ele>332.39999389648</ele>
        <time>2015-09-23T13:32:27Z</time>
      </trkpt>
      <trkpt lat="43.38884" lon="6.09432">
        <ele>332</ele>
        <time>2015-09-23T13:32:30Z</time>
      </trkpt>
      <trkpt lat="43.3888" lon="6.09436">
        <ele>331.79998779297</ele>
        <time>2015-09-23T13:32:34Z</time>
      </trkpt>
      <trkpt lat="43.3888" lon="6.09437">
        <ele>331.79998779297</ele>
        <time>2015-09-23T13:32:35Z</time>
      </trkpt>
      <trkpt lat="43.38881" lon="6.09438">
        <ele>332.20001220703</ele>
        <time>2015-09-23T13:32:40Z</time>
      </trkpt>
      <trkpt lat="43.38881" lon="6.09438">
        <ele>332.39999389648</ele>
        <time>2015-09-23T13:32:55Z</time>
      </trkpt>
      <trkpt lat="43.38881" lon="6.09438">
        <ele>331.79998779297</ele>
        <time>2015-09-23T13:33:04Z</time>
      </trkpt>
      <trkpt lat="43.38881" lon="6.09438">
        <ele>332.60000610352</ele>
        <time>2015-09-23T13:33:13Z</time>
      </trkpt>
      <trkpt lat="43.38881" lon="6.09438">
        <ele>332</ele>
        <time>2015-09-23T13:33:38Z</time>
      </trkpt>
      <trkpt lat="43.38881" lon="6.09438">
        <ele>331.79998779297</ele>
        <time>2015-09-23T13:33:50Z</time>
      </trkpt>
      <trkpt lat="43.38881" lon="6.09438">
        <ele>331.39999389648</ele>
        <time>2015-09-23T13:34:04Z</time>
      </trkpt>
      <trkpt lat="43.38881" lon="6.09438">
        <ele>331.60000610352</ele>
        <time>2015-09-23T13:34:08Z</time>
      </trkpt>
      <trkpt lat="43.38881" lon="6.09438">
        <ele>332</ele>
        <time>2015-09-23T13:34:09Z</time>
      </trkpt>
      <trkpt lat="43.38881" lon="6.09439">
        <ele>332.79998779297</ele>
        <time>2015-09-23T13:34:14Z</time>
      </trkpt>
      <trkpt lat="43.38882" lon="6.09438">
        <ele>332.79998779297</ele>
        <time>2015-09-23T13:34:17Z</time>
      </trkpt>
      <trkpt lat="43.38882" lon="6.09439">
        <ele>332.79998779297</ele>
        <time>2015-09-23T13:34:21Z</time>
      </trkpt>
      <trkpt lat="43.38882" lon="6.09442">
        <ele>332.60000610352</ele>
        <time>2015-09-23T13:34:25Z</time>
      </trkpt>
      <trkpt lat="43.38885" lon="6.09454">
        <ele>333.60000610352</ele>
        <time>2015-09-23T13:34:32Z</time>
      </trkpt>
      <trkpt lat="43.38885" lon="6.09457">
        <ele>333</ele>
        <time>2015-09-23T13:34:33Z</time>
      </trkpt>
      <trkpt lat="43.38883" lon="6.09469">
        <ele>332.79998779297</ele>
        <time>2015-09-23T13:34:37Z</time>
      </trkpt>
      <trkpt lat="43.38883" lon="6.09472">
        <ele>332.79998779297</ele>
        <time>2015-09-23T13:34:38Z</time>
      </trkpt>
      <trkpt lat="43.38879" lon="6.09482">
        <ele>333.60000610352</ele>
        <time>2015-09-23T13:34:41Z</time>
      </trkpt>
      <trkpt lat="43.38878" lon="6.0949">
        <ele>333.39999389648</ele>
        <time>2015-09-23T13:34:43Z</time>
      </trkpt>
      <trkpt lat="43.38877" lon="6.095">
        <ele>332.60000610352</ele>
        <time>2015-09-23T13:34:45Z</time>
      </trkpt>
      <trkpt lat="43.38877" lon="6.09519">
        <ele>331.79998779297</ele>
        <time>2015-09-23T13:34:49Z</time>
      </trkpt>
      <trkpt lat="43.38879" lon="6.09545">
        <ele>331.79998779297</ele>
        <time>2015-09-23T13:34:56Z</time>
      </trkpt>
      <trkpt lat="43.3888" lon="6.0957">
        <ele>331</ele>
        <time>2015-09-23T13:35:02Z</time>
      </trkpt>
      <trkpt lat="43.38884" lon="6.09602">
        <ele>330</ele>
        <time>2015-09-23T13:35:07Z</time>
      </trkpt>
      <trkpt lat="43.38887" lon="6.09616">
        <ele>330</ele>
        <time>2015-09-23T13:35:09Z</time>
      </trkpt>
      <trkpt lat="43.38894" lon="6.09625">
        <ele>330</ele>
        <time>2015-09-23T13:35:11Z</time>
      </trkpt>
      <trkpt lat="43.389" lon="6.09643">
        <ele>329.79998779297</ele>
        <time>2015-09-23T13:35:15Z</time>
      </trkpt>
      <trkpt lat="43.38901" lon="6.0966">
        <ele>329</ele>
        <time>2015-09-23T13:35:18Z</time>
      </trkpt>
      <trkpt lat="43.38901" lon="6.0968">
        <ele>328.39999389648</ele>
        <time>2015-09-23T13:35:21Z</time>
      </trkpt>
      <trkpt lat="43.38902" lon="6.09713">
        <ele>327.20001220703</ele>
        <time>2015-09-23T13:35:26Z</time>
      </trkpt>
      <trkpt lat="43.38903" lon="6.09721">
        <ele>326.39999389648</ele>
        <time>2015-09-23T13:35:27Z</time>
      </trkpt>
      <trkpt lat="43.38904" lon="6.09728">
        <ele>326.20001220703</ele>
        <time>2015-09-23T13:35:28Z</time>
      </trkpt>
      <trkpt lat="43.38905" lon="6.09735">
        <ele>326</ele>
        <time>2015-09-23T13:35:29Z</time>
      </trkpt>
      <trkpt lat="43.38905" lon="6.0975">
        <ele>325.20001220703</ele>
        <time>2015-09-23T13:35:31Z</time>
      </trkpt>
      <trkpt lat="43.38904" lon="6.09757">
        <ele>324.79998779297</ele>
        <time>2015-09-23T13:35:32Z</time>
      </trkpt>
      <trkpt lat="43.38901" lon="6.09773">
        <ele>323.79998779297</ele>
        <time>2015-09-23T13:35:34Z</time>
      </trkpt>
      <trkpt lat="43.38898" lon="6.09788">
        <ele>323</ele>
        <time>2015-09-23T13:35:36Z</time>
      </trkpt>
      <trkpt lat="43.38894" lon="6.09808">
        <ele>321.39999389648</ele>
        <time>2015-09-23T13:35:39Z</time>
      </trkpt>
      <trkpt lat="43.38892" lon="6.09818">
        <ele>319.60000610352</ele>
        <time>2015-09-23T13:35:41Z</time>
      </trkpt>
      <trkpt lat="43.3889" lon="6.09837">
        <ele>318.60000610352</ele>
        <time>2015-09-23T13:35:44Z</time>
      </trkpt>
      <trkpt lat="43.38889" lon="6.09844">
        <ele>318.20001220703</ele>
        <time>2015-09-23T13:35:45Z</time>
      </trkpt>
      <trkpt lat="43.38888" lon="6.0985">
        <ele>317.39999389648</ele>
        <time>2015-09-23T13:35:46Z</time>
      </trkpt>
      <trkpt lat="43.38887" lon="6.09858">
        <ele>315.79998779297</ele>
        <time>2015-09-23T13:35:47Z</time>
      </trkpt>
      <trkpt lat="43.38885" lon="6.09874">
        <ele>314.60000610352</ele>
        <time>2015-09-23T13:35:49Z</time>
      </trkpt>
      <trkpt lat="43.38884" lon="6.09882">
        <ele>313.79998779297</ele>
        <time>2015-09-23T13:35:50Z</time>
      </trkpt>
      <trkpt lat="43.38881" lon="6.09891">
        <ele>312.79998779297</ele>
        <time>2015-09-23T13:35:51Z</time>
      </trkpt>
      <trkpt lat="43.38877" lon="6.09911">
        <ele>311.39999389648</ele>
        <time>2015-09-23T13:35:53Z</time>
      </trkpt>
      <trkpt lat="43.38872" lon="6.0993">
        <ele>310</ele>
        <time>2015-09-23T13:35:55Z</time>
      </trkpt>
      <trkpt lat="43.3887" lon="6.0994">
        <ele>308.79998779297</ele>
        <time>2015-09-23T13:35:56Z</time>
      </trkpt>
      <trkpt lat="43.38868" lon="6.09949">
        <ele>307.60000610352</ele>
        <time>2015-09-23T13:35:57Z</time>
      </trkpt>
      <trkpt lat="43.38865" lon="6.0997">
        <ele>306.39999389648</ele>
        <time>2015-09-23T13:35:59Z</time>
      </trkpt>
      <trkpt lat="43.38863" lon="6.09993">
        <ele>305.60000610352</ele>
        <time>2015-09-23T13:36:01Z</time>
      </trkpt>
      <trkpt lat="43.38862" lon="6.10003">
        <ele>304.79998779297</ele>
        <time>2015-09-23T13:36:02Z</time>
      </trkpt>
      <trkpt lat="43.3886" lon="6.10012">
        <ele>303.79998779297</ele>
        <time>2015-09-23T13:36:03Z</time>
      </trkpt>
      <trkpt lat="43.38858" lon="6.10021">
        <ele>302.79998779297</ele>
        <time>2015-09-23T13:36:04Z</time>
      </trkpt>
      <trkpt lat="43.38855" lon="6.1003">
        <ele>301.39999389648</ele>
        <time>2015-09-23T13:36:05Z</time>
      </trkpt>
      <trkpt lat="43.38851" lon="6.10047">
        <ele>299.39999389648</ele>
        <time>2015-09-23T13:36:07Z</time>
      </trkpt>
      <trkpt lat="43.38844" lon="6.10071">
        <ele>298.79998779297</ele>
        <time>2015-09-23T13:36:10Z</time>
      </trkpt>
      <trkpt lat="43.38839" lon="6.10088">
        <ele>299</ele>
        <time>2015-09-23T13:36:12Z</time>
      </trkpt>
      <trkpt lat="43.38836" lon="6.10107">
        <ele>298.20001220703</ele>
        <time>2015-09-23T13:36:14Z</time>
      </trkpt>
      <trkpt lat="43.38833" lon="6.10122">
        <ele>296.60000610352</ele>
        <time>2015-09-23T13:36:16Z</time>
      </trkpt>
      <trkpt lat="43.38828" lon="6.10137">
        <ele>295.60000610352</ele>
        <time>2015-09-23T13:36:19Z</time>
      </trkpt>
      <trkpt lat="43.38829" lon="6.10138">
        <ele>295.39999389648</ele>
        <time>2015-09-23T13:36:20Z</time>
      </trkpt>
      <trkpt lat="43.38829" lon="6.10138">
        <ele>295.39999389648</ele>
        <time>2015-09-23T13:36:24Z</time>
      </trkpt>
      <trkpt lat="43.38829" lon="6.10138">
        <ele>295.60000610352</ele>
        <time>2015-09-23T13:36:38Z</time>
      </trkpt>
      <trkpt lat="43.38829" lon="6.10138">
        <ele>295.60000610352</ele>
        <time>2015-09-23T13:36:40Z</time>
      </trkpt>
      <trkpt lat="43.38826" lon="6.10145">
        <ele>295.20001220703</ele>
        <time>2015-09-23T13:36:44Z</time>
      </trkpt>
      <trkpt lat="43.38825" lon="6.10152">
        <ele>294.20001220703</ele>
        <time>2015-09-23T13:36:47Z</time>
      </trkpt>
      <trkpt lat="43.38825" lon="6.10152">
        <ele>294</ele>
        <time>2015-09-23T13:36:48Z</time>
      </trkpt>
      <trkpt lat="43.38826" lon="6.10155">
        <ele>294.79998779297</ele>
        <time>2015-09-23T13:36:52Z</time>
      </trkpt>
      <trkpt lat="43.38826" lon="6.10158">
        <ele>294.79998779297</ele>
        <time>2015-09-23T13:36:53Z</time>
      </trkpt>
      <trkpt lat="43.38827" lon="6.10164">
        <ele>294.79998779297</ele>
        <time>2015-09-23T13:36:59Z</time>
      </trkpt>
      <trkpt lat="43.38827" lon="6.10164">
        <ele>295</ele>
        <time>2015-09-23T13:37:02Z</time>
      </trkpt>
      <trkpt lat="43.38827" lon="6.10165">
        <ele>295.39999389648</ele>
        <time>2015-09-23T13:37:11Z</time>
      </trkpt>
      <trkpt lat="43.38827" lon="6.10165">
        <ele>294.79998779297</ele>
        <time>2015-09-23T13:37:20Z</time>
      </trkpt>
      <trkpt lat="43.38828" lon="6.10167">
        <ele>294.39999389648</ele>
        <time>2015-09-23T13:37:32Z</time>
      </trkpt>
      <trkpt lat="43.38828" lon="6.10167">
        <ele>294.60000610352</ele>
        <time>2015-09-23T13:37:41Z</time>
      </trkpt>
      <trkpt lat="43.38828" lon="6.10167">
        <ele>294.79998779297</ele>
        <time>2015-09-23T13:37:46Z</time>
      </trkpt>
      <trkpt lat="43.38828" lon="6.10168">
        <ele>295.20001220703</ele>
        <time>2015-09-23T13:37:57Z</time>
      </trkpt>
      <trkpt lat="43.38828" lon="6.10168">
        <ele>295.39999389648</ele>
        <time>2015-09-23T13:37:58Z</time>
      </trkpt>
      <trkpt lat="43.38829" lon="6.10174">
        <ele>295.79998779297</ele>
        <time>2015-09-23T13:38:02Z</time>
      </trkpt>
      <trkpt lat="43.38829" lon="6.1018">
        <ele>295.79998779297</ele>
        <time>2015-09-23T13:38:05Z</time>
      </trkpt>
      <trkpt lat="43.38827" lon="6.10184">
        <ele>295.79998779297</ele>
        <time>2015-09-23T13:38:06Z</time>
      </trkpt>
      <trkpt lat="43.38821" lon="6.10196">
        <ele>296.60000610352</ele>
        <time>2015-09-23T13:38:11Z</time>
      </trkpt>
      <trkpt lat="43.3882" lon="6.10201">
        <ele>296.79998779297</ele>
        <time>2015-09-23T13:38:13Z</time>
      </trkpt>
      <trkpt lat="43.38819" lon="6.10205">
        <ele>297.20001220703</ele>
        <time>2015-09-23T13:38:15Z</time>
      </trkpt>
      <trkpt lat="43.38819" lon="6.10216">
        <ele>296.20001220703</ele>
        <time>2015-09-23T13:38:22Z</time>
      </trkpt>
      <trkpt lat="43.38818" lon="6.10218">
        <ele>297.60000610352</ele>
        <time>2015-09-23T13:38:27Z</time>
      </trkpt>
      <trkpt lat="43.38818" lon="6.10218">
        <ele>297.79998779297</ele>
        <time>2015-09-23T13:38:28Z</time>
      </trkpt>
      <trkpt lat="43.38819" lon="6.10226">
        <ele>297.60000610352</ele>
        <time>2015-09-23T13:38:37Z</time>
      </trkpt>
      <trkpt lat="43.3882" lon="6.10229">
        <ele>298.60000610352</ele>
        <time>2015-09-23T13:38:39Z</time>
      </trkpt>
      <trkpt lat="43.38823" lon="6.10238">
        <ele>298.39999389648</ele>
        <time>2015-09-23T13:38:42Z</time>
      </trkpt>
      <trkpt lat="43.38824" lon="6.10242">
        <ele>297</ele>
        <time>2015-09-23T13:38:43Z</time>
      </trkpt>
      <trkpt lat="43.38826" lon="6.10248">
        <ele>295.79998779297</ele>
        <time>2015-09-23T13:38:45Z</time>
      </trkpt>
      <trkpt lat="43.38826" lon="6.10256">
        <ele>295.79998779297</ele>
        <time>2015-09-23T13:38:47Z</time>
      </trkpt>
      <trkpt lat="43.38828" lon="6.10271">
        <ele>294.20001220703</ele>
        <time>2015-09-23T13:38:50Z</time>
      </trkpt>
      <trkpt lat="43.3883" lon="6.10282">
        <ele>294.20001220703</ele>
        <time>2015-09-23T13:38:52Z</time>
      </trkpt>
      <trkpt lat="43.38831" lon="6.10317">
        <ele>293.20001220703</ele>
        <time>2015-09-23T13:38:57Z</time>
      </trkpt>
      <trkpt lat="43.38831" lon="6.10323">
        <ele>292.79998779297</ele>
        <time>2015-09-23T13:38:58Z</time>
      </trkpt>
      <trkpt lat="43.38831" lon="6.10356">
        <ele>292.39999389648</ele>
        <time>2015-09-23T13:39:03Z</time>
      </trkpt>
      <trkpt lat="43.38832" lon="6.10375">
        <ele>291.39999389648</ele>
        <time>2015-09-23T13:39:06Z</time>
      </trkpt>
      <trkpt lat="43.38832" lon="6.10389">
        <ele>290.39999389648</ele>
        <time>2015-09-23T13:39:08Z</time>
      </trkpt>
      <trkpt lat="43.38831" lon="6.10415">
        <ele>290.79998779297</ele>
        <time>2015-09-23T13:39:12Z</time>
      </trkpt>
      <trkpt lat="43.3883" lon="6.10429">
        <ele>289</ele>
        <time>2015-09-23T13:39:14Z</time>
      </trkpt>
      <trkpt lat="43.38828" lon="6.10435">
        <ele>288.20001220703</ele>
        <time>2015-09-23T13:39:15Z</time>
      </trkpt>
      <trkpt lat="43.38827" lon="6.10441">
        <ele>287.60000610352</ele>
        <time>2015-09-23T13:39:16Z</time>
      </trkpt>
      <trkpt lat="43.38827" lon="6.10448">
        <ele>287.20001220703</ele>
        <time>2015-09-23T13:39:17Z</time>
      </trkpt>
      <trkpt lat="43.38827" lon="6.10461">
        <ele>286.60000610352</ele>
        <time>2015-09-23T13:39:19Z</time>
      </trkpt>
      <trkpt lat="43.38826" lon="6.10474">
        <ele>287.20001220703</ele>
        <time>2015-09-23T13:39:21Z</time>
      </trkpt>
      <trkpt lat="43.38826" lon="6.10481">
        <ele>287.79998779297</ele>
        <time>2015-09-23T13:39:22Z</time>
      </trkpt>
      <trkpt lat="43.38822" lon="6.10491">
        <ele>286.60000610352</ele>
        <time>2015-09-23T13:39:24Z</time>
      </trkpt>
      <trkpt lat="43.38819" lon="6.10508">
        <ele>285.79998779297</ele>
        <time>2015-09-23T13:39:27Z</time>
      </trkpt>
      <trkpt lat="43.38818" lon="6.10513">
        <ele>285.60000610352</ele>
        <time>2015-09-23T13:39:28Z</time>
      </trkpt>
      <trkpt lat="43.38816" lon="6.10519">
        <ele>285.60000610352</ele>
        <time>2015-09-23T13:39:29Z</time>
      </trkpt>
      <trkpt lat="43.38814" lon="6.10535">
        <ele>285</ele>
        <time>2015-09-23T13:39:32Z</time>
      </trkpt>
      <trkpt lat="43.38813" lon="6.1054">
        <ele>285</ele>
        <time>2015-09-23T13:39:33Z</time>
      </trkpt>
      <trkpt lat="43.38809" lon="6.10559">
        <ele>284.79998779297</ele>
        <time>2015-09-23T13:39:37Z</time>
      </trkpt>
      <trkpt lat="43.38807" lon="6.10562">
        <ele>284.60000610352</ele>
        <time>2015-09-23T13:39:38Z</time>
      </trkpt>
      <trkpt lat="43.38807" lon="6.10569">
        <ele>284.39999389648</ele>
        <time>2015-09-23T13:39:40Z</time>
      </trkpt>
      <trkpt lat="43.38806" lon="6.10574">
        <ele>284.39999389648</ele>
        <time>2015-09-23T13:39:41Z</time>
      </trkpt>
      <trkpt lat="43.38804" lon="6.10589">
        <ele>284.20001220703</ele>
        <time>2015-09-23T13:39:44Z</time>
      </trkpt>
      <trkpt lat="43.38803" lon="6.10596">
        <ele>283.39999389648</ele>
        <time>2015-09-23T13:39:46Z</time>
      </trkpt>
      <trkpt lat="43.38802" lon="6.106">
        <ele>283.20001220703</ele>
        <time>2015-09-23T13:39:47Z</time>
      </trkpt>
      <trkpt lat="43.38799" lon="6.10612">
        <ele>281.79998779297</ele>
        <time>2015-09-23T13:39:50Z</time>
      </trkpt>
      <trkpt lat="43.38797" lon="6.1062">
        <ele>282.20001220703</ele>
        <time>2015-09-23T13:39:52Z</time>
      </trkpt>
      <trkpt lat="43.38796" lon="6.10631">
        <ele>282</ele>
        <time>2015-09-23T13:39:56Z</time>
      </trkpt>
      <trkpt lat="43.38796" lon="6.10642">
        <ele>282</ele>
        <time>2015-09-23T13:40:01Z</time>
      </trkpt>
      <trkpt lat="43.38795" lon="6.10645">
        <ele>281.20001220703</ele>
        <time>2015-09-23T13:40:05Z</time>
      </trkpt>
      <trkpt lat="43.38795" lon="6.10645">
        <ele>281</ele>
        <time>2015-09-23T13:40:06Z</time>
      </trkpt>
      <trkpt lat="43.38795" lon="6.10646">
        <ele>280.79998779297</ele>
        <time>2015-09-23T13:40:07Z</time>
      </trkpt>
      <trkpt lat="43.38794" lon="6.10647">
        <ele>280.79998779297</ele>
        <time>2015-09-23T13:40:10Z</time>
      </trkpt>
      <trkpt lat="43.38794" lon="6.1065">
        <ele>280.39999389648</ele>
        <time>2015-09-23T13:40:12Z</time>
      </trkpt>
      <trkpt lat="43.38793" lon="6.10653">
        <ele>280.60000610352</ele>
        <time>2015-09-23T13:40:13Z</time>
      </trkpt>
      <trkpt lat="43.38788" lon="6.10669">
        <ele>280.20001220703</ele>
        <time>2015-09-23T13:40:18Z</time>
      </trkpt>
      <trkpt lat="43.38784" lon="6.10691">
        <ele>279.79998779297</ele>
        <time>2015-09-23T13:40:23Z</time>
      </trkpt>
      <trkpt lat="43.38777" lon="6.10722">
        <ele>279.60000610352</ele>
        <time>2015-09-23T13:40:29Z</time>
      </trkpt>
      <trkpt lat="43.38776" lon="6.10728">
        <ele>279.39999389648</ele>
        <time>2015-09-23T13:40:30Z</time>
      </trkpt>
      <trkpt lat="43.38774" lon="6.10737">
        <ele>279</ele>
        <time>2015-09-23T13:40:33Z</time>
      </trkpt>
      <trkpt lat="43.38775" lon="6.10737">
        <ele>279.20001220703</ele>
        <time>2015-09-23T13:40:37Z</time>
      </trkpt>
      <trkpt lat="43.38775" lon="6.10737">
        <ele>278.60000610352</ele>
        <time>2015-09-23T13:40:50Z</time>
      </trkpt>
      <trkpt lat="43.38775" lon="6.10737">
        <ele>278.60000610352</ele>
        <time>2015-09-23T13:40:56Z</time>
      </trkpt>
      <trkpt lat="43.38775" lon="6.10738">
        <ele>278.60000610352</ele>
        <time>2015-09-23T13:41:03Z</time>
      </trkpt>
      <trkpt lat="43.38774" lon="6.1074">
        <ele>279.20001220703</ele>
        <time>2015-09-23T13:41:06Z</time>
      </trkpt>
      <trkpt lat="43.38776" lon="6.10752">
        <ele>279</ele>
        <time>2015-09-23T13:41:10Z</time>
      </trkpt>
      <trkpt lat="43.38778" lon="6.10755">
        <ele>278.60000610352</ele>
        <time>2015-09-23T13:41:11Z</time>
      </trkpt>
      <trkpt lat="43.38788" lon="6.10759">
        <ele>277.79998779297</ele>
        <time>2015-09-23T13:41:14Z</time>
      </trkpt>
      <trkpt lat="43.38793" lon="6.1076">
        <ele>277.60000610352</ele>
        <time>2015-09-23T13:41:15Z</time>
      </trkpt>
      <trkpt lat="43.38797" lon="6.1076">
        <ele>277.20001220703</ele>
        <time>2015-09-23T13:41:16Z</time>
      </trkpt>
      <trkpt lat="43.38812" lon="6.10759">
        <ele>276.79998779297</ele>
        <time>2015-09-23T13:41:19Z</time>
      </trkpt>
      <trkpt lat="43.38826" lon="6.10756">
        <ele>276.39999389648</ele>
        <time>2015-09-23T13:41:22Z</time>
      </trkpt>
      <trkpt lat="43.38839" lon="6.10756">
        <ele>276.20001220703</ele>
        <time>2015-09-23T13:41:25Z</time>
      </trkpt>
      <trkpt lat="43.38847" lon="6.10756">
        <ele>275.79998779297</ele>
        <time>2015-09-23T13:41:27Z</time>
      </trkpt>
      <trkpt lat="43.38858" lon="6.10755">
        <ele>275.79998779297</ele>
        <time>2015-09-23T13:41:30Z</time>
      </trkpt>
      <trkpt lat="43.38861" lon="6.10754">
        <ele>275.39999389648</ele>
        <time>2015-09-23T13:41:31Z</time>
      </trkpt>
      <trkpt lat="43.38879" lon="6.10755">
        <ele>275.20001220703</ele>
        <time>2015-09-23T13:41:36Z</time>
      </trkpt>
      <trkpt lat="43.38897" lon="6.10762">
        <ele>274.20001220703</ele>
        <time>2015-09-23T13:41:41Z</time>
      </trkpt>
      <trkpt lat="43.38903" lon="6.10764">
        <ele>274</ele>
        <time>2015-09-23T13:41:43Z</time>
      </trkpt>
      <trkpt lat="43.38917" lon="6.10777">
        <ele>274.39999389648</ele>
        <time>2015-09-23T13:41:48Z</time>
      </trkpt>
      <trkpt lat="43.38922" lon="6.10796">
        <ele>273.79998779297</ele>
        <time>2015-09-23T13:41:52Z</time>
      </trkpt>
      <trkpt lat="43.38923" lon="6.10801">
        <ele>273.79998779297</ele>
        <time>2015-09-23T13:41:53Z</time>
      </trkpt>
      <trkpt lat="43.38937" lon="6.10824">
        <ele>273.39999389648</ele>
        <time>2015-09-23T13:41:59Z</time>
      </trkpt>
      <trkpt lat="43.38955" lon="6.10833">
        <ele>273.39999389648</ele>
        <time>2015-09-23T13:42:04Z</time>
      </trkpt>
      <trkpt lat="43.38974" lon="6.10841">
        <ele>273.20001220703</ele>
        <time>2015-09-23T13:42:10Z</time>
      </trkpt>
      <trkpt lat="43.38991" lon="6.10847">
        <ele>273</ele>
        <time>2015-09-23T13:42:15Z</time>
      </trkpt>
      <trkpt lat="43.38994" lon="6.10847">
        <ele>273</ele>
        <time>2015-09-23T13:42:16Z</time>
      </trkpt>
      <trkpt lat="43.39015" lon="6.1084">
        <ele>272.79998779297</ele>
        <time>2015-09-23T13:42:21Z</time>
      </trkpt>
      <trkpt lat="43.39029" lon="6.10835">
        <ele>272</ele>
        <time>2015-09-23T13:42:24Z</time>
      </trkpt>
      <trkpt lat="43.39038" lon="6.10832">
        <ele>271.79998779297</ele>
        <time>2015-09-23T13:42:26Z</time>
      </trkpt>
      <trkpt lat="43.39046" lon="6.1083">
        <ele>271.79998779297</ele>
        <time>2015-09-23T13:42:28Z</time>
      </trkpt>
      <trkpt lat="43.3907" lon="6.10822">
        <ele>272</ele>
        <time>2015-09-23T13:42:34Z</time>
      </trkpt>
      <trkpt lat="43.3909" lon="6.10806">
        <ele>272</ele>
        <time>2015-09-23T13:42:40Z</time>
      </trkpt>
      <trkpt lat="43.39108" lon="6.10786">
        <ele>271</ele>
        <time>2015-09-23T13:42:46Z</time>
      </trkpt>
      <trkpt lat="43.3912" lon="6.10777">
        <ele>270.39999389648</ele>
        <time>2015-09-23T13:42:49Z</time>
      </trkpt>
      <trkpt lat="43.39132" lon="6.10768">
        <ele>270.39999389648</ele>
        <time>2015-09-23T13:42:52Z</time>
      </trkpt>
      <trkpt lat="43.39157" lon="6.10753">
        <ele>270</ele>
        <time>2015-09-23T13:42:58Z</time>
      </trkpt>
      <trkpt lat="43.39162" lon="6.1075">
        <ele>269.20001220703</ele>
        <time>2015-09-23T13:42:59Z</time>
      </trkpt>
      <trkpt lat="43.39168" lon="6.1074">
        <ele>268</ele>
        <time>2015-09-23T13:43:01Z</time>
      </trkpt>
      <trkpt lat="43.39171" lon="6.10735">
        <ele>267.39999389648</ele>
        <time>2015-09-23T13:43:02Z</time>
      </trkpt>
      <trkpt lat="43.39173" lon="6.10729">
        <ele>267</ele>
        <time>2015-09-23T13:43:03Z</time>
      </trkpt>
      <trkpt lat="43.39174" lon="6.10723">
        <ele>266.39999389648</ele>
        <time>2015-09-23T13:43:04Z</time>
      </trkpt>
      <trkpt lat="43.39179" lon="6.10706">
        <ele>267</ele>
        <time>2015-09-23T13:43:07Z</time>
      </trkpt>
      <trkpt lat="43.3918" lon="6.10701">
        <ele>267</ele>
        <time>2015-09-23T13:43:08Z</time>
      </trkpt>
      <trkpt lat="43.39186" lon="6.10696">
        <ele>267.20001220703</ele>
        <time>2015-09-23T13:43:11Z</time>
      </trkpt>
      <trkpt lat="43.39188" lon="6.10696">
        <ele>267</ele>
        <time>2015-09-23T13:43:12Z</time>
      </trkpt>
      <trkpt lat="43.39189" lon="6.10695">
        <ele>266.39999389648</ele>
        <time>2015-09-23T13:43:16Z</time>
      </trkpt>
      <trkpt lat="43.3919" lon="6.10695">
        <ele>266.39999389648</ele>
        <time>2015-09-23T13:43:24Z</time>
      </trkpt>
      <trkpt lat="43.3919" lon="6.10695">
        <ele>266.20001220703</ele>
        <time>2015-09-23T13:43:35Z</time>
      </trkpt>
      <trkpt lat="43.39192" lon="6.10696">
        <ele>265.79998779297</ele>
        <time>2015-09-23T13:43:45Z</time>
      </trkpt>
      <trkpt lat="43.39193" lon="6.10697">
        <ele>265.60000610352</ele>
        <time>2015-09-23T13:43:46Z</time>
      </trkpt>
      <trkpt lat="43.39198" lon="6.10703">
        <ele>265.79998779297</ele>
        <time>2015-09-23T13:43:50Z</time>
      </trkpt>
      <trkpt lat="43.39199" lon="6.10705">
        <ele>266.20001220703</ele>
        <time>2015-09-23T13:43:51Z</time>
      </trkpt>
      <trkpt lat="43.39203" lon="6.10711">
        <ele>267.20001220703</ele>
        <time>2015-09-23T13:43:54Z</time>
      </trkpt>
      <trkpt lat="43.39206" lon="6.10715">
        <ele>267.39999389648</ele>
        <time>2015-09-23T13:43:56Z</time>
      </trkpt>
      <trkpt lat="43.39213" lon="6.10726">
        <ele>268.20001220703</ele>
        <time>2015-09-23T13:44:01Z</time>
      </trkpt>
      <trkpt lat="43.39217" lon="6.10733">
        <ele>268.79998779297</ele>
        <time>2015-09-23T13:44:04Z</time>
      </trkpt>
      <trkpt lat="43.39218" lon="6.10735">
        <ele>269</ele>
        <time>2015-09-23T13:44:05Z</time>
      </trkpt>
      <trkpt lat="43.39224" lon="6.10739">
        <ele>270</ele>
        <time>2015-09-23T13:44:09Z</time>
      </trkpt>
      <trkpt lat="43.39226" lon="6.10741">
        <ele>270.20001220703</ele>
        <time>2015-09-23T13:44:10Z</time>
      </trkpt>
      <trkpt lat="43.39232" lon="6.10748">
        <ele>271</ele>
        <time>2015-09-23T13:44:16Z</time>
      </trkpt>
      <trkpt lat="43.39233" lon="6.1075">
        <ele>271.20001220703</ele>
        <time>2015-09-23T13:44:17Z</time>
      </trkpt>
      <trkpt lat="43.39236" lon="6.10759">
        <ele>271.60000610352</ele>
        <time>2015-09-23T13:44:22Z</time>
      </trkpt>
      <trkpt lat="43.3924" lon="6.10767">
        <ele>272</ele>
        <time>2015-09-23T13:44:29Z</time>
      </trkpt>
      <trkpt lat="43.3924" lon="6.10767">
        <ele>272.39999389648</ele>
        <time>2015-09-23T13:44:35Z</time>
      </trkpt>
      <trkpt lat="43.3924" lon="6.10767">
        <ele>272.20001220703</ele>
        <time>2015-09-23T13:44:41Z</time>
      </trkpt>
      <trkpt lat="43.3924" lon="6.10771">
        <ele>273.20001220703</ele>
        <time>2015-09-23T13:45:01Z</time>
      </trkpt>
      <trkpt lat="43.39244" lon="6.10784">
        <ele>273.39999389648</ele>
        <time>2015-09-23T13:45:07Z</time>
      </trkpt>
      <trkpt lat="43.39248" lon="6.10803">
        <ele>274</ele>
        <time>2015-09-23T13:45:14Z</time>
      </trkpt>
      <trkpt lat="43.39249" lon="6.10805">
        <ele>274.39999389648</ele>
        <time>2015-09-23T13:45:15Z</time>
      </trkpt>
      <trkpt lat="43.3925" lon="6.10821">
        <ele>274.79998779297</ele>
        <time>2015-09-23T13:45:21Z</time>
      </trkpt>
      <trkpt lat="43.39251" lon="6.10835">
        <ele>275</ele>
        <time>2015-09-23T13:45:26Z</time>
      </trkpt>
      <trkpt lat="43.39252" lon="6.1084">
        <ele>275.39999389648</ele>
        <time>2015-09-23T13:45:28Z</time>
      </trkpt>
      <trkpt lat="43.39252" lon="6.10853">
        <ele>276</ele>
        <time>2015-09-23T13:45:33Z</time>
      </trkpt>
      <trkpt lat="43.39253" lon="6.10863">
        <ele>276.39999389648</ele>
        <time>2015-09-23T13:45:37Z</time>
      </trkpt>
      <trkpt lat="43.39254" lon="6.10893">
        <ele>277</ele>
        <time>2015-09-23T13:45:48Z</time>
      </trkpt>
      <trkpt lat="43.39254" lon="6.10902">
        <ele>277.79998779297</ele>
        <time>2015-09-23T13:45:51Z</time>
      </trkpt>
      <trkpt lat="43.39254" lon="6.1092">
        <ele>278</ele>
        <time>2015-09-23T13:45:58Z</time>
      </trkpt>
      <trkpt lat="43.39255" lon="6.10935">
        <ele>278.20001220703</ele>
        <time>2015-09-23T13:46:05Z</time>
      </trkpt>
      <trkpt lat="43.39255" lon="6.10937">
        <ele>278.39999389648</ele>
        <time>2015-09-23T13:46:06Z</time>
      </trkpt>
      <trkpt lat="43.39256" lon="6.10948">
        <ele>279.39999389648</ele>
        <time>2015-09-23T13:46:11Z</time>
      </trkpt>
      <trkpt lat="43.39257" lon="6.10953">
        <ele>279.39999389648</ele>
        <time>2015-09-23T13:46:14Z</time>
      </trkpt>
      <trkpt lat="43.39257" lon="6.10969">
        <ele>279.60000610352</ele>
        <time>2015-09-23T13:46:21Z</time>
      </trkpt>
      <trkpt lat="43.39257" lon="6.10981">
        <ele>280.79998779297</ele>
        <time>2015-09-23T13:46:27Z</time>
      </trkpt>
      <trkpt lat="43.39257" lon="6.10988">
        <ele>281.60000610352</ele>
        <time>2015-09-23T13:46:30Z</time>
      </trkpt>
      <trkpt lat="43.39257" lon="6.10998">
        <ele>283.79998779297</ele>
        <time>2015-09-23T13:46:35Z</time>
      </trkpt>
      <trkpt lat="43.39257" lon="6.11005">
        <ele>284</ele>
        <time>2015-09-23T13:46:38Z</time>
      </trkpt>
      <trkpt lat="43.39257" lon="6.11016">
        <ele>284.20001220703</ele>
        <time>2015-09-23T13:46:43Z</time>
      </trkpt>
      <trkpt lat="43.39257" lon="6.11019">
        <ele>284.20001220703</ele>
        <time>2015-09-23T13:46:44Z</time>
      </trkpt>
      <trkpt lat="43.39258" lon="6.11033">
        <ele>285</ele>
        <time>2015-09-23T13:46:50Z</time>
      </trkpt>
      <trkpt lat="43.39259" lon="6.11038">
        <ele>285.60000610352</ele>
        <time>2015-09-23T13:46:52Z</time>
      </trkpt>
      <trkpt lat="43.39259" lon="6.11054">
        <ele>285.79998779297</ele>
        <time>2015-09-23T13:46:59Z</time>
      </trkpt>
      <trkpt lat="43.39259" lon="6.11075">
        <ele>287.20001220703</ele>
        <time>2015-09-23T13:47:07Z</time>
      </trkpt>
      <trkpt lat="43.39258" lon="6.11094">
        <ele>287.39999389648</ele>
        <time>2015-09-23T13:47:15Z</time>
      </trkpt>
      <trkpt lat="43.39258" lon="6.11114">
        <ele>288.20001220703</ele>
        <time>2015-09-23T13:47:22Z</time>
      </trkpt>
      <trkpt lat="43.39257" lon="6.11137">
        <ele>288.39999389648</ele>
        <time>2015-09-23T13:47:29Z</time>
      </trkpt>
      <trkpt lat="43.39257" lon="6.11144">
        <ele>289</ele>
        <time>2015-09-23T13:47:31Z</time>
      </trkpt>
      <trkpt lat="43.39254" lon="6.11171">
        <ele>288.79998779297</ele>
        <time>2015-09-23T13:47:39Z</time>
      </trkpt>
      <trkpt lat="43.3925" lon="6.11188">
        <ele>289</ele>
        <time>2015-09-23T13:47:45Z</time>
      </trkpt>
      <trkpt lat="43.39251" lon="6.11205">
        <ele>289.20001220703</ele>
        <time>2015-09-23T13:47:50Z</time>
      </trkpt>
      <trkpt lat="43.39252" lon="6.11207">
        <ele>289.39999389648</ele>
        <time>2015-09-23T13:47:51Z</time>
      </trkpt>
      <trkpt lat="43.39259" lon="6.11212">
        <ele>289.60000610352</ele>
        <time>2015-09-23T13:47:55Z</time>
      </trkpt>
      <trkpt lat="43.39268" lon="6.11214">
        <ele>289.39999389648</ele>
        <time>2015-09-23T13:48:00Z</time>
      </trkpt>
      <trkpt lat="43.39278" lon="6.11214">
        <ele>290.60000610352</ele>
        <time>2015-09-23T13:48:04Z</time>
      </trkpt>
      <trkpt lat="43.39288" lon="6.11214">
        <ele>290.39999389648</ele>
        <time>2015-09-23T13:48:08Z</time>
      </trkpt>
      <trkpt lat="43.39308" lon="6.11217">
        <ele>290.79998779297</ele>
        <time>2015-09-23T13:48:15Z</time>
      </trkpt>
      <trkpt lat="43.39332" lon="6.11218">
        <ele>289.60000610352</ele>
        <time>2015-09-23T13:48:24Z</time>
      </trkpt>
      <trkpt lat="43.39354" lon="6.11217">
        <ele>290.60000610352</ele>
        <time>2015-09-23T13:48:32Z</time>
      </trkpt>
      <trkpt lat="43.39371" lon="6.11212">
        <ele>291.20001220703</ele>
        <time>2015-09-23T13:48:39Z</time>
      </trkpt>
      <trkpt lat="43.39388" lon="6.11209">
        <ele>292.20001220703</ele>
        <time>2015-09-23T13:48:46Z</time>
      </trkpt>
      <trkpt lat="43.39391" lon="6.11209">
        <ele>292.60000610352</ele>
        <time>2015-09-23T13:48:47Z</time>
      </trkpt>
      <trkpt lat="43.394" lon="6.11211">
        <ele>292.79998779297</ele>
        <time>2015-09-23T13:48:51Z</time>
      </trkpt>
      <trkpt lat="43.39404" lon="6.11212">
        <ele>293.39999389648</ele>
        <time>2015-09-23T13:48:53Z</time>
      </trkpt>
      <trkpt lat="43.39409" lon="6.11213">
        <ele>293.79998779297</ele>
        <time>2015-09-23T13:48:55Z</time>
      </trkpt>
      <trkpt lat="43.39415" lon="6.11218">
        <ele>294.39999389648</ele>
        <time>2015-09-23T13:48:58Z</time>
      </trkpt>
      <trkpt lat="43.39421" lon="6.11226">
        <ele>295.20001220703</ele>
        <time>2015-09-23T13:49:02Z</time>
      </trkpt>
      <trkpt lat="43.39423" lon="6.11228">
        <ele>295.60000610352</ele>
        <time>2015-09-23T13:49:03Z</time>
      </trkpt>
      <trkpt lat="43.39434" lon="6.11236">
        <ele>295.79998779297</ele>
        <time>2015-09-23T13:49:09Z</time>
      </trkpt>
      <trkpt lat="43.39446" lon="6.11239">
        <ele>296.39999389648</ele>
        <time>2015-09-23T13:49:15Z</time>
      </trkpt>
      <trkpt lat="43.39447" lon="6.1124">
        <ele>296.79998779297</ele>
        <time>2015-09-23T13:49:16Z</time>
      </trkpt>
      <trkpt lat="43.3946" lon="6.11243">
        <ele>297.60000610352</ele>
        <time>2015-09-23T13:49:23Z</time>
      </trkpt>
      <trkpt lat="43.3947" lon="6.11245">
        <ele>298.60000610352</ele>
        <time>2015-09-23T13:49:30Z</time>
      </trkpt>
      <trkpt lat="43.39476" lon="6.11245">
        <ele>299.79998779297</ele>
        <time>2015-09-23T13:49:34Z</time>
      </trkpt>
      <trkpt lat="43.3948" lon="6.11245">
        <ele>300.20001220703</ele>
        <time>2015-09-23T13:49:37Z</time>
      </trkpt>
      <trkpt lat="43.39487" lon="6.11242">
        <ele>300.79998779297</ele>
        <time>2015-09-23T13:49:42Z</time>
      </trkpt>
      <trkpt lat="43.3949" lon="6.11242">
        <ele>301.39999389648</ele>
        <time>2015-09-23T13:49:44Z</time>
      </trkpt>
      <trkpt lat="43.39497" lon="6.1124">
        <ele>302</ele>
        <time>2015-09-23T13:49:48Z</time>
      </trkpt>
      <trkpt lat="43.39502" lon="6.11239">
        <ele>302.39999389648</ele>
        <time>2015-09-23T13:49:51Z</time>
      </trkpt>
      <trkpt lat="43.39508" lon="6.1124">
        <ele>302.79998779297</ele>
        <time>2015-09-23T13:49:54Z</time>
      </trkpt>
      <trkpt lat="43.39517" lon="6.11241">
        <ele>303.20001220703</ele>
        <time>2015-09-23T13:49:59Z</time>
      </trkpt>
      <trkpt lat="43.39522" lon="6.11243">
        <ele>303.79998779297</ele>
        <time>2015-09-23T13:50:02Z</time>
      </trkpt>
      <trkpt lat="43.39526" lon="6.11247">
        <ele>304.79998779297</ele>
        <time>2015-09-23T13:50:06Z</time>
      </trkpt>
      <trkpt lat="43.39527" lon="6.11248">
        <ele>304.60000610352</ele>
        <time>2015-09-23T13:50:11Z</time>
      </trkpt>
      <trkpt lat="43.39527" lon="6.11248">
        <ele>303.79998779297</ele>
        <time>2015-09-23T13:50:16Z</time>
      </trkpt>
      <trkpt lat="43.39527" lon="6.11248">
        <ele>305</ele>
        <time>2015-09-23T13:50:29Z</time>
      </trkpt>
      <trkpt lat="43.39527" lon="6.11248">
        <ele>304.39999389648</ele>
        <time>2015-09-23T13:50:49Z</time>
      </trkpt>
      <trkpt lat="43.39527" lon="6.11248">
        <ele>304.60000610352</ele>
        <time>2015-09-23T13:52:37Z</time>
      </trkpt>
      <trkpt lat="43.39528" lon="6.11249">
        <ele>304.39999389648</ele>
        <time>2015-09-23T13:53:01Z</time>
      </trkpt>
      <trkpt lat="43.39528" lon="6.11249">
        <ele>304.79998779297</ele>
        <time>2015-09-23T13:53:07Z</time>
      </trkpt>
      <trkpt lat="43.39528" lon="6.11249">
        <ele>304.60000610352</ele>
        <time>2015-09-23T13:53:13Z</time>
      </trkpt>
      <trkpt lat="43.39528" lon="6.11249">
        <ele>305</ele>
        <time>2015-09-23T13:53:33Z</time>
      </trkpt>
      <trkpt lat="43.39528" lon="6.11249">
        <ele>304.79998779297</ele>
        <time>2015-09-23T13:53:38Z</time>
      </trkpt>
      <trkpt lat="43.39527" lon="6.11251">
        <ele>304.60000610352</ele>
        <time>2015-09-23T13:53:42Z</time>
      </trkpt>
      <trkpt lat="43.39527" lon="6.11253">
        <ele>304.60000610352</ele>
        <time>2015-09-23T13:53:43Z</time>
      </trkpt>
      <trkpt lat="43.39524" lon="6.11267">
        <ele>304.60000610352</ele>
        <time>2015-09-23T13:53:48Z</time>
      </trkpt>
      <trkpt lat="43.39523" lon="6.11271">
        <ele>304.39999389648</ele>
        <time>2015-09-23T13:53:49Z</time>
      </trkpt>
      <trkpt lat="43.3952" lon="6.11291">
        <ele>303.39999389648</ele>
        <time>2015-09-23T13:53:54Z</time>
      </trkpt>
      <trkpt lat="43.39519" lon="6.11301">
        <ele>303.20001220703</ele>
        <time>2015-09-23T13:53:56Z</time>
      </trkpt>
      <trkpt lat="43.39515" lon="6.11329">
        <ele>302.39999389648</ele>
        <time>2015-09-23T13:54:02Z</time>
      </trkpt>
      <trkpt lat="43.39516" lon="6.11334">
        <ele>302.79998779297</ele>
        <time>2015-09-23T13:54:04Z</time>
      </trkpt>
      <trkpt lat="43.39516" lon="6.11337">
        <ele>303</ele>
        <time>2015-09-23T13:54:08Z</time>
      </trkpt>
      <trkpt lat="43.39515" lon="6.11337">
        <ele>303</ele>
        <time>2015-09-23T13:54:20Z</time>
      </trkpt>
      <trkpt lat="43.39515" lon="6.11338">
        <ele>302.79998779297</ele>
        <time>2015-09-23T13:54:37Z</time>
      </trkpt>
      <trkpt lat="43.39515" lon="6.11338">
        <ele>302</ele>
        <time>2015-09-23T13:54:49Z</time>
      </trkpt>
      <trkpt lat="43.39514" lon="6.11339">
        <ele>303</ele>
        <time>2015-09-23T13:55:10Z</time>
      </trkpt>
      <trkpt lat="43.39513" lon="6.11342">
        <ele>302.60000610352</ele>
        <time>2015-09-23T13:55:14Z</time>
      </trkpt>
      <trkpt lat="43.39513" lon="6.11346">
        <ele>302.60000610352</ele>
        <time>2015-09-23T13:55:16Z</time>
      </trkpt>
      <trkpt lat="43.3951" lon="6.11369">
        <ele>302.79998779297</ele>
        <time>2015-09-23T13:55:22Z</time>
      </trkpt>
      <trkpt lat="43.39509" lon="6.11383">
        <ele>302.79998779297</ele>
        <time>2015-09-23T13:55:25Z</time>
      </trkpt>
      <trkpt lat="43.39507" lon="6.11403">
        <ele>302.79998779297</ele>
        <time>2015-09-23T13:55:29Z</time>
      </trkpt>
      <trkpt lat="43.39502" lon="6.11432">
        <ele>301.60000610352</ele>
        <time>2015-09-23T13:55:34Z</time>
      </trkpt>
      <trkpt lat="43.395" lon="6.11445">
        <ele>301.60000610352</ele>
        <time>2015-09-23T13:55:36Z</time>
      </trkpt>
      <trkpt lat="43.395" lon="6.11469">
        <ele>300.60000610352</ele>
        <time>2015-09-23T13:55:39Z</time>
      </trkpt>
      <trkpt lat="43.395" lon="6.1149">
        <ele>300.39999389648</ele>
        <time>2015-09-23T13:55:42Z</time>
      </trkpt>
      <trkpt lat="43.39501" lon="6.11501">
        <ele>299.60000610352</ele>
        <time>2015-09-23T13:55:45Z</time>
      </trkpt>
      <trkpt lat="43.39502" lon="6.11503">
        <ele>299.39999389648</ele>
        <time>2015-09-23T13:55:46Z</time>
      </trkpt>
      <trkpt lat="43.39502" lon="6.11503">
        <ele>299.20001220703</ele>
        <time>2015-09-23T13:55:50Z</time>
      </trkpt>
      <trkpt lat="43.39503" lon="6.11504">
        <ele>299.60000610352</ele>
        <time>2015-09-23T13:56:02Z</time>
      </trkpt>
      <trkpt lat="43.39504" lon="6.11505">
        <ele>299.60000610352</ele>
        <time>2015-09-23T13:56:03Z</time>
      </trkpt>
      <trkpt lat="43.3951" lon="6.11509">
        <ele>299.39999389648</ele>
        <time>2015-09-23T13:56:08Z</time>
      </trkpt>
      <trkpt lat="43.39523" lon="6.11518">
        <ele>300</ele>
        <time>2015-09-23T13:56:14Z</time>
      </trkpt>
      <trkpt lat="43.39534" lon="6.11522">
        <ele>300.60000610352</ele>
        <time>2015-09-23T13:56:18Z</time>
      </trkpt>
      <trkpt lat="43.3955" lon="6.11531">
        <ele>300.60000610352</ele>
        <time>2015-09-23T13:56:23Z</time>
      </trkpt>
      <trkpt lat="43.39563" lon="6.11529">
        <ele>300</ele>
        <time>2015-09-23T13:56:27Z</time>
      </trkpt>
      <trkpt lat="43.39579" lon="6.11521">
        <ele>301.39999389648</ele>
        <time>2015-09-23T13:56:34Z</time>
      </trkpt>
      <trkpt lat="43.3959" lon="6.11511">
        <ele>301.39999389648</ele>
        <time>2015-09-23T13:56:39Z</time>
      </trkpt>
      <trkpt lat="43.39594" lon="6.11505">
        <ele>301.60000610352</ele>
        <time>2015-09-23T13:56:41Z</time>
      </trkpt>
      <trkpt lat="43.39602" lon="6.11492">
        <ele>301.60000610352</ele>
        <time>2015-09-23T13:56:45Z</time>
      </trkpt>
      <trkpt lat="43.39607" lon="6.11481">
        <ele>302.60000610352</ele>
        <time>2015-09-23T13:56:48Z</time>
      </trkpt>
      <trkpt lat="43.39608" lon="6.11478">
        <ele>303.20001220703</ele>
        <time>2015-09-23T13:56:49Z</time>
      </trkpt>
      <trkpt lat="43.39614" lon="6.11463">
        <ele>303.79998779297</ele>
        <time>2015-09-23T13:56:53Z</time>
      </trkpt>
      <trkpt lat="43.39619" lon="6.11449">
        <ele>303.60000610352</ele>
        <time>2015-09-23T13:56:57Z</time>
      </trkpt>
      <trkpt lat="43.39628" lon="6.11425">
        <ele>304.39999389648</ele>
        <time>2015-09-23T13:57:03Z</time>
      </trkpt>
      <trkpt lat="43.39631" lon="6.11418">
        <ele>304.79998779297</ele>
        <time>2015-09-23T13:57:05Z</time>
      </trkpt>
      <trkpt lat="43.39634" lon="6.11404">
        <ele>305.79998779297</ele>
        <time>2015-09-23T13:57:09Z</time>
      </trkpt>
      <trkpt lat="43.39637" lon="6.11397">
        <ele>305.79998779297</ele>
        <time>2015-09-23T13:57:11Z</time>
      </trkpt>
      <trkpt lat="43.3964" lon="6.11375">
        <ele>305.79998779297</ele>
        <time>2015-09-23T13:57:18Z</time>
      </trkpt>
      <trkpt lat="43.39645" lon="6.11349">
        <ele>308</ele>
        <time>2015-09-23T13:57:27Z</time>
      </trkpt>
      <trkpt lat="43.39648" lon="6.11329">
        <ele>308.39999389648</ele>
        <time>2015-09-23T13:57:34Z</time>
      </trkpt>
      <trkpt lat="43.3965" lon="6.11301">
        <ele>308</ele>
        <time>2015-09-23T13:57:42Z</time>
      </trkpt>
      <trkpt lat="43.39654" lon="6.11281">
        <ele>307.79998779297</ele>
        <time>2015-09-23T13:57:47Z</time>
      </trkpt>
      <trkpt lat="43.39655" lon="6.11271">
        <ele>307.39999389648</ele>
        <time>2015-09-23T13:57:49Z</time>
      </trkpt>
      <trkpt lat="43.39656" lon="6.1126">
        <ele>307</ele>
        <time>2015-09-23T13:57:51Z</time>
      </trkpt>
      <trkpt lat="43.39657" lon="6.1125">
        <ele>306.60000610352</ele>
        <time>2015-09-23T13:57:53Z</time>
      </trkpt>
      <trkpt lat="43.39658" lon="6.1124">
        <ele>306</ele>
        <time>2015-09-23T13:57:55Z</time>
      </trkpt>
      <trkpt lat="43.39658" lon="6.11235">
        <ele>305.79998779297</ele>
        <time>2015-09-23T13:57:59Z</time>
      </trkpt>
      <trkpt lat="43.39658" lon="6.11234">
        <ele>306</ele>
        <time>2015-09-23T13:58:03Z</time>
      </trkpt>
      <trkpt lat="43.39658" lon="6.11234">
        <ele>307</ele>
        <time>2015-09-23T13:58:10Z</time>
      </trkpt>
      <trkpt lat="43.39658" lon="6.11234">
        <ele>306.60000610352</ele>
        <time>2015-09-23T13:58:13Z</time>
      </trkpt>
      <trkpt lat="43.39658" lon="6.11234">
        <ele>306</ele>
        <time>2015-09-23T13:58:16Z</time>
      </trkpt>
      <trkpt lat="43.39658" lon="6.11234">
        <ele>306</ele>
        <time>2015-09-23T13:58:29Z</time>
      </trkpt>
      <trkpt lat="43.39658" lon="6.11234">
        <ele>306.60000610352</ele>
        <time>2015-09-23T13:58:41Z</time>
      </trkpt>
      <trkpt lat="43.39658" lon="6.11235">
        <ele>306</ele>
        <time>2015-09-23T13:58:43Z</time>
      </trkpt>
      <trkpt lat="43.39658" lon="6.11235">
        <ele>305.79998779297</ele>
        <time>2015-09-23T13:58:46Z</time>
      </trkpt>
      <trkpt lat="43.39658" lon="6.11235">
        <ele>306</ele>
        <time>2015-09-23T13:58:52Z</time>
      </trkpt>
      <trkpt lat="43.39658" lon="6.11235">
        <ele>305.79998779297</ele>
        <time>2015-09-23T13:58:54Z</time>
      </trkpt>
      <trkpt lat="43.39658" lon="6.11233">
        <ele>305.79998779297</ele>
        <time>2015-09-23T13:58:57Z</time>
      </trkpt>
      <trkpt lat="43.39661" lon="6.11218">
        <ele>305.20001220703</ele>
        <time>2015-09-23T13:59:02Z</time>
      </trkpt>
      <trkpt lat="43.39663" lon="6.11214">
        <ele>305.20001220703</ele>
        <time>2015-09-23T13:59:03Z</time>
      </trkpt>
      <trkpt lat="43.39668" lon="6.11198">
        <ele>304.20001220703</ele>
        <time>2015-09-23T13:59:06Z</time>
      </trkpt>
      <trkpt lat="43.39669" lon="6.11193">
        <ele>304</ele>
        <time>2015-09-23T13:59:07Z</time>
      </trkpt>
      <trkpt lat="43.39673" lon="6.11183">
        <ele>302.79998779297</ele>
        <time>2015-09-23T13:59:09Z</time>
      </trkpt>
      <trkpt lat="43.39676" lon="6.11162">
        <ele>301.79998779297</ele>
        <time>2015-09-23T13:59:12Z</time>
      </trkpt>
      <trkpt lat="43.39677" lon="6.11155">
        <ele>301.39999389648</ele>
        <time>2015-09-23T13:59:13Z</time>
      </trkpt>
      <trkpt lat="43.39679" lon="6.11141">
        <ele>301.20001220703</ele>
        <time>2015-09-23T13:59:15Z</time>
      </trkpt>
      <trkpt lat="43.39688" lon="6.11124">
        <ele>300.79998779297</ele>
        <time>2015-09-23T13:59:18Z</time>
      </trkpt>
      <trkpt lat="43.39692" lon="6.11117">
        <ele>300.20001220703</ele>
        <time>2015-09-23T13:59:19Z</time>
      </trkpt>
      <trkpt lat="43.39691" lon="6.11101">
        <ele>299</ele>
        <time>2015-09-23T13:59:21Z</time>
      </trkpt>
      <trkpt lat="43.3969" lon="6.11078">
        <ele>298.20001220703</ele>
        <time>2015-09-23T13:59:24Z</time>
      </trkpt>
      <trkpt lat="43.39688" lon="6.11072">
        <ele>298</ele>
        <time>2015-09-23T13:59:25Z</time>
      </trkpt>
      <trkpt lat="43.39687" lon="6.11067">
        <ele>297.60000610352</ele>
        <time>2015-09-23T13:59:26Z</time>
      </trkpt>
      <trkpt lat="43.39689" lon="6.11051">
        <ele>297.39999389648</ele>
        <time>2015-09-23T13:59:29Z</time>
      </trkpt>
      <trkpt lat="43.39689" lon="6.11046">
        <ele>296.60000610352</ele>
        <time>2015-09-23T13:59:30Z</time>
      </trkpt>
      <trkpt lat="43.39688" lon="6.11039">
        <ele>296</ele>
        <time>2015-09-23T13:59:31Z</time>
      </trkpt>
      <trkpt lat="43.39687" lon="6.11029">
        <ele>295.39999389648</ele>
        <time>2015-09-23T13:59:33Z</time>
      </trkpt>
      <trkpt lat="43.39686" lon="6.11025">
        <ele>295</ele>
        <time>2015-09-23T13:59:34Z</time>
      </trkpt>
      <trkpt lat="43.39683" lon="6.11017">
        <ele>294.39999389648</ele>
        <time>2015-09-23T13:59:36Z</time>
      </trkpt>
      <trkpt lat="43.39681" lon="6.11008">
        <ele>294.20001220703</ele>
        <time>2015-09-23T13:59:38Z</time>
      </trkpt>
      <trkpt lat="43.3968" lon="6.10994">
        <ele>294.20001220703</ele>
        <time>2015-09-23T13:59:41Z</time>
      </trkpt>
      <trkpt lat="43.39679" lon="6.10983">
        <ele>294.79998779297</ele>
        <time>2015-09-23T13:59:43Z</time>
      </trkpt>
      <trkpt lat="43.39671" lon="6.1097">
        <ele>294.20001220703</ele>
        <time>2015-09-23T13:59:46Z</time>
      </trkpt>
      <trkpt lat="43.39668" lon="6.10966">
        <ele>293.79998779297</ele>
        <time>2015-09-23T13:59:47Z</time>
      </trkpt>
      <trkpt lat="43.39666" lon="6.10957">
        <ele>292.79998779297</ele>
        <time>2015-09-23T13:59:50Z</time>
      </trkpt>
      <trkpt lat="43.39666" lon="6.10951">
        <ele>292.39999389648</ele>
        <time>2015-09-23T13:59:52Z</time>
      </trkpt>
      <trkpt lat="43.39666" lon="6.1094">
        <ele>292.60000610352</ele>
        <time>2015-09-23T13:59:55Z</time>
      </trkpt>
      <trkpt lat="43.39664" lon="6.10931">
        <ele>291.79998779297</ele>
        <time>2015-09-23T13:59:57Z</time>
      </trkpt>
      <trkpt lat="43.39663" lon="6.10921">
        <ele>290.39999389648</ele>
        <time>2015-09-23T13:59:59Z</time>
      </trkpt>
      <trkpt lat="43.39661" lon="6.10916">
        <ele>290.60000610352</ele>
        <time>2015-09-23T14:00:00Z</time>
      </trkpt>
      <trkpt lat="43.39657" lon="6.10901">
        <ele>289.20001220703</ele>
        <time>2015-09-23T14:00:03Z</time>
      </trkpt>
      <trkpt lat="43.3965" lon="6.10886">
        <ele>289.20001220703</ele>
        <time>2015-09-23T14:00:06Z</time>
      </trkpt>
      <trkpt lat="43.39647" lon="6.10877">
        <ele>288.39999389648</ele>
        <time>2015-09-23T14:00:09Z</time>
      </trkpt>
      <trkpt lat="43.39645" lon="6.10875">
        <ele>288.60000610352</ele>
        <time>2015-09-23T14:00:10Z</time>
      </trkpt>
      <trkpt lat="43.39643" lon="6.10868">
        <ele>288</ele>
        <time>2015-09-23T14:00:12Z</time>
      </trkpt>
      <trkpt lat="43.3964" lon="6.10861">
        <ele>287.39999389648</ele>
        <time>2015-09-23T14:00:14Z</time>
      </trkpt>
      <trkpt lat="43.39634" lon="6.10845">
        <ele>286.79998779297</ele>
        <time>2015-09-23T14:00:18Z</time>
      </trkpt>
      <trkpt lat="43.39631" lon="6.1084">
        <ele>286.39999389648</ele>
        <time>2015-09-23T14:00:19Z</time>
      </trkpt>
      <trkpt lat="43.39623" lon="6.1081">
        <ele>285.79998779297</ele>
        <time>2015-09-23T14:00:25Z</time>
      </trkpt>
      <trkpt lat="43.39621" lon="6.108">
        <ele>285</ele>
        <time>2015-09-23T14:00:27Z</time>
      </trkpt>
      <trkpt lat="43.39614" lon="6.10784">
        <ele>285.20001220703</ele>
        <time>2015-09-23T14:00:30Z</time>
      </trkpt>
      <trkpt lat="43.39613" lon="6.10778">
        <ele>284</ele>
        <time>2015-09-23T14:00:31Z</time>
      </trkpt>
      <trkpt lat="43.3961" lon="6.10766">
        <ele>283.60000610352</ele>
        <time>2015-09-23T14:00:33Z</time>
      </trkpt>
      <trkpt lat="43.39608" lon="6.10755">
        <ele>283.39999389648</ele>
        <time>2015-09-23T14:00:35Z</time>
      </trkpt>
      <trkpt lat="43.39606" lon="6.10746">
        <ele>282.60000610352</ele>
        <time>2015-09-23T14:00:37Z</time>
      </trkpt>
      <trkpt lat="43.39605" lon="6.10738">
        <ele>282.60000610352</ele>
        <time>2015-09-23T14:00:40Z</time>
      </trkpt>
      <trkpt lat="43.39605" lon="6.10731">
        <ele>281.39999389648</ele>
        <time>2015-09-23T14:00:42Z</time>
      </trkpt>
      <trkpt lat="43.39604" lon="6.10724">
        <ele>281</ele>
        <time>2015-09-23T14:00:45Z</time>
      </trkpt>
      <trkpt lat="43.39605" lon="6.10711">
        <ele>280.20001220703</ele>
        <time>2015-09-23T14:00:49Z</time>
      </trkpt>
      <trkpt lat="43.39605" lon="6.10708">
        <ele>280</ele>
        <time>2015-09-23T14:00:50Z</time>
      </trkpt>
      <trkpt lat="43.39603" lon="6.10698">
        <ele>279</ele>
        <time>2015-09-23T14:00:53Z</time>
      </trkpt>
      <trkpt lat="43.39603" lon="6.10694">
        <ele>278.20001220703</ele>
        <time>2015-09-23T14:00:55Z</time>
      </trkpt>
      <trkpt lat="43.39601" lon="6.10684">
        <ele>277.60000610352</ele>
        <time>2015-09-23T14:01:00Z</time>
      </trkpt>
      <trkpt lat="43.396" lon="6.10672">
        <ele>276.60000610352</ele>
        <time>2015-09-23T14:01:05Z</time>
      </trkpt>
      <trkpt lat="43.39599" lon="6.10668">
        <ele>276.20001220703</ele>
        <time>2015-09-23T14:01:07Z</time>
      </trkpt>
      <trkpt lat="43.39598" lon="6.10651">
        <ele>276.60000610352</ele>
        <time>2015-09-23T14:01:12Z</time>
      </trkpt>
      <trkpt lat="43.39595" lon="6.10643">
        <ele>275.20001220703</ele>
        <time>2015-09-23T14:01:14Z</time>
      </trkpt>
      <trkpt lat="43.39592" lon="6.10634">
        <ele>274.79998779297</ele>
        <time>2015-09-23T14:01:17Z</time>
      </trkpt>
      <trkpt lat="43.3959" lon="6.10627">
        <ele>274.20001220703</ele>
        <time>2015-09-23T14:01:19Z</time>
      </trkpt>
      <trkpt lat="43.39585" lon="6.10615">
        <ele>274</ele>
        <time>2015-09-23T14:01:23Z</time>
      </trkpt>
      <trkpt lat="43.39581" lon="6.10605">
        <ele>273.20001220703</ele>
        <time>2015-09-23T14:01:26Z</time>
      </trkpt>
      <trkpt lat="43.39579" lon="6.10599">
        <ele>272.60000610352</ele>
        <time>2015-09-23T14:01:29Z</time>
      </trkpt>
      <trkpt lat="43.39578" lon="6.10593">
        <ele>272</ele>
        <time>2015-09-23T14:01:31Z</time>
      </trkpt>
      <trkpt lat="43.39577" lon="6.10586">
        <ele>272</ele>
        <time>2015-09-23T14:01:35Z</time>
      </trkpt>
      <trkpt lat="43.39574" lon="6.10568">
        <ele>271</ele>
        <time>2015-09-23T14:01:41Z</time>
      </trkpt>
      <trkpt lat="43.39571" lon="6.10553">
        <ele>269.79998779297</ele>
        <time>2015-09-23T14:01:45Z</time>
      </trkpt>
      <trkpt lat="43.39571" lon="6.10548">
        <ele>270</ele>
        <time>2015-09-23T14:01:46Z</time>
      </trkpt>
      <trkpt lat="43.39569" lon="6.1053">
        <ele>269.79998779297</ele>
        <time>2015-09-23T14:01:51Z</time>
      </trkpt>
      <trkpt lat="43.39568" lon="6.10517">
        <ele>268.60000610352</ele>
        <time>2015-09-23T14:01:54Z</time>
      </trkpt>
      <trkpt lat="43.39565" lon="6.10498">
        <ele>267.60000610352</ele>
        <time>2015-09-23T14:01:58Z</time>
      </trkpt>
      <trkpt lat="43.3956" lon="6.10474">
        <ele>267.60000610352</ele>
        <time>2015-09-23T14:02:04Z</time>
      </trkpt>
      <trkpt lat="43.39558" lon="6.10465">
        <ele>267.20001220703</ele>
        <time>2015-09-23T14:02:06Z</time>
      </trkpt>
      <trkpt lat="43.39557" lon="6.10455">
        <ele>266</ele>
        <time>2015-09-23T14:02:08Z</time>
      </trkpt>
      <trkpt lat="43.39556" lon="6.1045">
        <ele>265.60000610352</ele>
        <time>2015-09-23T14:02:09Z</time>
      </trkpt>
      <trkpt lat="43.3955" lon="6.10433">
        <ele>266.60000610352</ele>
        <time>2015-09-23T14:02:13Z</time>
      </trkpt>
      <trkpt lat="43.39548" lon="6.1041">
        <ele>264.39999389648</ele>
        <time>2015-09-23T14:02:18Z</time>
      </trkpt>
      <trkpt lat="43.39546" lon="6.10406">
        <ele>264</ele>
        <time>2015-09-23T14:02:19Z</time>
      </trkpt>
      <trkpt lat="43.39536" lon="6.10399">
        <ele>263.39999389648</ele>
        <time>2015-09-23T14:02:22Z</time>
      </trkpt>
      <trkpt lat="43.39532" lon="6.10395">
        <ele>263.20001220703</ele>
        <time>2015-09-23T14:02:23Z</time>
      </trkpt>
      <trkpt lat="43.39525" lon="6.10391">
        <ele>262.39999389648</ele>
        <time>2015-09-23T14:02:25Z</time>
      </trkpt>
      <trkpt lat="43.39515" lon="6.10389">
        <ele>262.20001220703</ele>
        <time>2015-09-23T14:02:28Z</time>
      </trkpt>
      <trkpt lat="43.39498" lon="6.10386">
        <ele>261.39999389648</ele>
        <time>2015-09-23T14:02:32Z</time>
      </trkpt>
      <trkpt lat="43.3949" lon="6.10385">
        <ele>260.79998779297</ele>
        <time>2015-09-23T14:02:34Z</time>
      </trkpt>
      <trkpt lat="43.39474" lon="6.10377">
        <ele>260.20001220703</ele>
        <time>2015-09-23T14:02:39Z</time>
      </trkpt>
      <trkpt lat="43.3946" lon="6.10375">
        <ele>260.60000610352</ele>
        <time>2015-09-23T14:02:43Z</time>
      </trkpt>
      <trkpt lat="43.39447" lon="6.10384">
        <ele>260.39999389648</ele>
        <time>2015-09-23T14:02:48Z</time>
      </trkpt>
      <trkpt lat="43.39444" lon="6.10387">
        <ele>260</ele>
        <time>2015-09-23T14:02:50Z</time>
      </trkpt>
      <trkpt lat="43.39443" lon="6.10388">
        <ele>259.79998779297</ele>
        <time>2015-09-23T14:02:54Z</time>
      </trkpt>
      <trkpt lat="43.39443" lon="6.10388">
        <ele>259.60000610352</ele>
        <time>2015-09-23T14:03:06Z</time>
      </trkpt>
      <trkpt lat="43.39443" lon="6.10388">
        <ele>258.79998779297</ele>
        <time>2015-09-23T14:03:13Z</time>
      </trkpt>
      <trkpt lat="43.39443" lon="6.10388">
        <ele>259.60000610352</ele>
        <time>2015-09-23T14:03:51Z</time>
      </trkpt>
      <trkpt lat="43.39442" lon="6.10388">
        <ele>259.39999389648</ele>
        <time>2015-09-23T14:04:08Z</time>
      </trkpt>
      <trkpt lat="43.39442" lon="6.10388">
        <ele>260</ele>
        <time>2015-09-23T14:04:18Z</time>
      </trkpt>
      <trkpt lat="43.39442" lon="6.10389">
        <ele>260.39999389648</ele>
        <time>2015-09-23T14:04:22Z</time>
      </trkpt>
      <trkpt lat="43.39442" lon="6.10389">
        <ele>259.79998779297</ele>
        <time>2015-09-23T14:04:34Z</time>
      </trkpt>
      <trkpt lat="43.39441" lon="6.10389">
        <ele>260</ele>
        <time>2015-09-23T14:04:43Z</time>
      </trkpt>
      <trkpt lat="43.39441" lon="6.10389">
        <ele>260</ele>
        <time>2015-09-23T14:05:18Z</time>
      </trkpt>
      <trkpt lat="43.3944" lon="6.10391">
        <ele>260</ele>
        <time>2015-09-23T14:05:27Z</time>
      </trkpt>
      <trkpt lat="43.3944" lon="6.10391">
        <ele>260.60000610352</ele>
        <time>2015-09-23T14:05:36Z</time>
      </trkpt>
      <trkpt lat="43.39439" lon="6.10392">
        <ele>259.20001220703</ele>
        <time>2015-09-23T14:05:40Z</time>
      </trkpt>
      <trkpt lat="43.39434" lon="6.10399">
        <ele>260.39999389648</ele>
        <time>2015-09-23T14:05:46Z</time>
      </trkpt>
      <trkpt lat="43.39434" lon="6.104">
        <ele>260.60000610352</ele>
        <time>2015-09-23T14:05:47Z</time>
      </trkpt>
      <trkpt lat="43.39433" lon="6.104">
        <ele>261</ele>
        <time>2015-09-23T14:05:51Z</time>
      </trkpt>
      <trkpt lat="43.39433" lon="6.104">
        <ele>260.79998779297</ele>
        <time>2015-09-23T14:05:53Z</time>
      </trkpt>
      <trkpt lat="43.3943" lon="6.10405">
        <ele>260.39999389648</ele>
        <time>2015-09-23T14:06:01Z</time>
      </trkpt>
      <trkpt lat="43.3942" lon="6.10418">
        <ele>260.20001220703</ele>
        <time>2015-09-23T14:06:07Z</time>
      </trkpt>
      <trkpt lat="43.39415" lon="6.10416">
        <ele>260</ele>
        <time>2015-09-23T14:06:09Z</time>
      </trkpt>
      <trkpt lat="43.39411" lon="6.10413">
        <ele>260</ele>
        <time>2015-09-23T14:06:11Z</time>
      </trkpt>
      <trkpt lat="43.39399" lon="6.10403">
        <ele>259.60000610352</ele>
        <time>2015-09-23T14:06:18Z</time>
      </trkpt>
      <trkpt lat="43.39382" lon="6.10392">
        <ele>260.60000610352</ele>
        <time>2015-09-23T14:06:26Z</time>
      </trkpt>
      <trkpt lat="43.3938" lon="6.10391">
        <ele>260.79998779297</ele>
        <time>2015-09-23T14:06:27Z</time>
      </trkpt>
      <trkpt lat="43.3938" lon="6.10389">
        <ele>260.79998779297</ele>
        <time>2015-09-23T14:06:28Z</time>
      </trkpt>
      <trkpt lat="43.39379" lon="6.10383">
        <ele>260.79998779297</ele>
        <time>2015-09-23T14:06:31Z</time>
      </trkpt>
      <trkpt lat="43.39383" lon="6.10374">
        <ele>260.60000610352</ele>
        <time>2015-09-23T14:06:37Z</time>
      </trkpt>
      <trkpt lat="43.39384" lon="6.10373">
        <ele>260.39999389648</ele>
        <time>2015-09-23T14:06:38Z</time>
      </trkpt>
      <trkpt lat="43.39388" lon="6.10365">
        <ele>260.20001220703</ele>
        <time>2015-09-23T14:06:42Z</time>
      </trkpt>
      <trkpt lat="43.3939" lon="6.10359">
        <ele>260.20001220703</ele>
        <time>2015-09-23T14:06:44Z</time>
      </trkpt>
      <trkpt lat="43.39404" lon="6.10336">
        <ele>260.39999389648</ele>
        <time>2015-09-23T14:06:52Z</time>
      </trkpt>
      <trkpt lat="43.3942" lon="6.1031">
        <ele>260.60000610352</ele>
        <time>2015-09-23T14:07:00Z</time>
      </trkpt>
      <trkpt lat="43.39436" lon="6.10297">
        <ele>260.79998779297</ele>
        <time>2015-09-23T14:07:06Z</time>
      </trkpt>
      <trkpt lat="43.3945" lon="6.10285">
        <ele>260.79998779297</ele>
        <time>2015-09-23T14:07:11Z</time>
      </trkpt>
      <trkpt lat="43.39458" lon="6.10278">
        <ele>259.20001220703</ele>
        <time>2015-09-23T14:07:14Z</time>
      </trkpt>
      <trkpt lat="43.39474" lon="6.10263">
        <ele>258.20001220703</ele>
        <time>2015-09-23T14:07:19Z</time>
      </trkpt>
      <trkpt lat="43.39477" lon="6.1026">
        <ele>257.79998779297</ele>
        <time>2015-09-23T14:07:20Z</time>
      </trkpt>
      <trkpt lat="43.39484" lon="6.10252">
        <ele>256.60000610352</ele>
        <time>2015-09-23T14:07:22Z</time>
      </trkpt>
      <trkpt lat="43.3949" lon="6.10242">
        <ele>255.80000305176</ele>
        <time>2015-09-23T14:07:24Z</time>
      </trkpt>
      <trkpt lat="43.39495" lon="6.10231">
        <ele>256.20001220703</ele>
        <time>2015-09-23T14:07:26Z</time>
      </trkpt>
      <trkpt lat="43.39502" lon="6.10213">
        <ele>255.60000610352</ele>
        <time>2015-09-23T14:07:29Z</time>
      </trkpt>
      <trkpt lat="43.39506" lon="6.10195">
        <ele>255.39999389648</ele>
        <time>2015-09-23T14:07:32Z</time>
      </trkpt>
      <trkpt lat="43.3951" lon="6.10177">
        <ele>254.60000610352</ele>
        <time>2015-09-23T14:07:35Z</time>
      </trkpt>
      <trkpt lat="43.39521" lon="6.10139">
        <ele>253.39999389648</ele>
        <time>2015-09-23T14:07:41Z</time>
      </trkpt>
      <trkpt lat="43.39523" lon="6.10133">
        <ele>253.19999694824</ele>
        <time>2015-09-23T14:07:42Z</time>
      </trkpt>
      <trkpt lat="43.39529" lon="6.10114">
        <ele>252.80000305176</ele>
        <time>2015-09-23T14:07:45Z</time>
      </trkpt>
      <trkpt lat="43.39536" lon="6.10098">
        <ele>252.19999694824</ele>
        <time>2015-09-23T14:07:48Z</time>
      </trkpt>
      <trkpt lat="43.3955" lon="6.10064">
        <ele>252</ele>
        <time>2015-09-23T14:07:54Z</time>
      </trkpt>
      <trkpt lat="43.39557" lon="6.10039">
        <ele>251</ele>
        <time>2015-09-23T14:07:58Z</time>
      </trkpt>
      <trkpt lat="43.39558" lon="6.10032">
        <ele>250.60000610352</ele>
        <time>2015-09-23T14:07:59Z</time>
      </trkpt>
      <trkpt lat="43.39558" lon="6.10026">
        <ele>250.39999389648</ele>
        <time>2015-09-23T14:08:00Z</time>
      </trkpt>
      <trkpt lat="43.39556" lon="6.09999">
        <ele>250.39999389648</ele>
        <time>2015-09-23T14:08:05Z</time>
      </trkpt>
      <trkpt lat="43.39556" lon="6.09991">
        <ele>250.39999389648</ele>
        <time>2015-09-23T14:08:07Z</time>
      </trkpt>
      <trkpt lat="43.39557" lon="6.09978">
        <ele>250</ele>
        <time>2015-09-23T14:08:10Z</time>
      </trkpt>
      <trkpt lat="43.39557" lon="6.09958">
        <ele>251.19999694824</ele>
        <time>2015-09-23T14:08:15Z</time>
      </trkpt>
      <trkpt lat="43.39557" lon="6.09954">
        <ele>251.19999694824</ele>
        <time>2015-09-23T14:08:16Z</time>
      </trkpt>
      <trkpt lat="43.39555" lon="6.09943">
        <ele>251.39999389648</ele>
        <time>2015-09-23T14:08:19Z</time>
      </trkpt>
      <trkpt lat="43.39555" lon="6.09941">
        <ele>252</ele>
        <time>2015-09-23T14:08:20Z</time>
      </trkpt>
      <trkpt lat="43.39554" lon="6.09937">
        <ele>253</ele>
        <time>2015-09-23T14:08:22Z</time>
      </trkpt>
      <trkpt lat="43.39553" lon="6.09935">
        <ele>253.19999694824</ele>
        <time>2015-09-23T14:08:23Z</time>
      </trkpt>
      <trkpt lat="43.39547" lon="6.09923">
        <ele>254.19999694824</ele>
        <time>2015-09-23T14:08:29Z</time>
      </trkpt>
      <trkpt lat="43.39547" lon="6.09921">
        <ele>254.19999694824</ele>
        <time>2015-09-23T14:08:30Z</time>
      </trkpt>
      <trkpt lat="43.39547" lon="6.09909">
        <ele>255.19999694824</ele>
        <time>2015-09-23T14:08:35Z</time>
      </trkpt>
      <trkpt lat="43.39554" lon="6.09893">
        <ele>255.60000610352</ele>
        <time>2015-09-23T14:08:41Z</time>
      </trkpt>
      <trkpt lat="43.39559" lon="6.09873">
        <ele>255.60000610352</ele>
        <time>2015-09-23T14:08:46Z</time>
      </trkpt>
      <trkpt lat="43.39562" lon="6.09846">
        <ele>255.60000610352</ele>
        <time>2015-09-23T14:08:52Z</time>
      </trkpt>
      <trkpt lat="43.39568" lon="6.09813">
        <ele>256</ele>
        <time>2015-09-23T14:08:59Z</time>
      </trkpt>
      <trkpt lat="43.39574" lon="6.09783">
        <ele>255.60000610352</ele>
        <time>2015-09-23T14:09:06Z</time>
      </trkpt>
      <trkpt lat="43.39582" lon="6.09758">
        <ele>255.60000610352</ele>
        <time>2015-09-23T14:09:12Z</time>
      </trkpt>
      <trkpt lat="43.39593" lon="6.09725">
        <ele>255.60000610352</ele>
        <time>2015-09-23T14:09:19Z</time>
      </trkpt>
      <trkpt lat="43.396" lon="6.0969">
        <ele>255.19999694824</ele>
        <time>2015-09-23T14:09:26Z</time>
      </trkpt>
      <trkpt lat="43.39606" lon="6.09667">
        <ele>254.80000305176</ele>
        <time>2015-09-23T14:09:31Z</time>
      </trkpt>
      <trkpt lat="43.39611" lon="6.09635">
        <ele>254.80000305176</ele>
        <time>2015-09-23T14:09:38Z</time>
      </trkpt>
      <trkpt lat="43.39616" lon="6.09615">
        <ele>254.60000610352</ele>
        <time>2015-09-23T14:09:43Z</time>
      </trkpt>
      <trkpt lat="43.39616" lon="6.09611">
        <ele>254.80000305176</ele>
        <time>2015-09-23T14:09:44Z</time>
      </trkpt>
      <trkpt lat="43.39619" lon="6.09593">
        <ele>255</ele>
        <time>2015-09-23T14:09:51Z</time>
      </trkpt>
      <trkpt lat="43.39621" lon="6.09586">
        <ele>255.60000610352</ele>
        <time>2015-09-23T14:09:56Z</time>
      </trkpt>
      <trkpt lat="43.39622" lon="6.09583">
        <ele>255.80000305176</ele>
        <time>2015-09-23T14:09:58Z</time>
      </trkpt>
      <trkpt lat="43.39622" lon="6.09582">
        <ele>256</ele>
        <time>2015-09-23T14:09:59Z</time>
      </trkpt>
      <trkpt lat="43.39622" lon="6.09583">
        <ele>256.20001220703</ele>
        <time>2015-09-23T14:10:00Z</time>
      </trkpt>
      <trkpt lat="43.39622" lon="6.09583">
        <ele>255.60000610352</ele>
        <time>2015-09-23T14:10:05Z</time>
      </trkpt>
      <trkpt lat="43.39622" lon="6.09583">
        <ele>255.60000610352</ele>
        <time>2015-09-23T14:10:13Z</time>
      </trkpt>
      <trkpt lat="43.39622" lon="6.09583">
        <ele>255.60000610352</ele>
        <time>2015-09-23T14:10:40Z</time>
      </trkpt>
      <trkpt lat="43.39622" lon="6.09583">
        <ele>255</ele>
        <time>2015-09-23T14:10:56Z</time>
      </trkpt>
      <trkpt lat="43.39622" lon="6.09582">
        <ele>255.39999389648</ele>
        <time>2015-09-23T14:11:16Z</time>
      </trkpt>
      <trkpt lat="43.39627" lon="6.09573">
        <ele>255.19999694824</ele>
        <time>2015-09-23T14:11:23Z</time>
      </trkpt>
      <trkpt lat="43.3963" lon="6.09562">
        <ele>254.39999389648</ele>
        <time>2015-09-23T14:11:26Z</time>
      </trkpt>
      <trkpt lat="43.39632" lon="6.09553">
        <ele>254</ele>
        <time>2015-09-23T14:11:28Z</time>
      </trkpt>
      <trkpt lat="43.39638" lon="6.09544">
        <ele>253.80000305176</ele>
        <time>2015-09-23T14:11:30Z</time>
      </trkpt>
      <trkpt lat="43.39645" lon="6.09536">
        <ele>253.19999694824</ele>
        <time>2015-09-23T14:11:32Z</time>
      </trkpt>
      <trkpt lat="43.39651" lon="6.09527">
        <ele>252.80000305176</ele>
        <time>2015-09-23T14:11:34Z</time>
      </trkpt>
      <trkpt lat="43.3966" lon="6.09512">
        <ele>251.80000305176</ele>
        <time>2015-09-23T14:11:37Z</time>
      </trkpt>
      <trkpt lat="43.39663" lon="6.09506">
        <ele>251</ele>
        <time>2015-09-23T14:11:38Z</time>
      </trkpt>
      <trkpt lat="43.39665" lon="6.09501">
        <ele>250</ele>
        <time>2015-09-23T14:11:39Z</time>
      </trkpt>
      <trkpt lat="43.39669" lon="6.0949">
        <ele>248.19999694824</ele>
        <time>2015-09-23T14:11:41Z</time>
      </trkpt>
      <trkpt lat="43.39672" lon="6.09481">
        <ele>247</ele>
        <time>2015-09-23T14:11:43Z</time>
      </trkpt>
      <trkpt lat="43.39673" lon="6.09477">
        <ele>246.39999389648</ele>
        <time>2015-09-23T14:11:44Z</time>
      </trkpt>
      <trkpt lat="43.39674" lon="6.0947">
        <ele>246</ele>
        <time>2015-09-23T14:11:46Z</time>
      </trkpt>
      <trkpt lat="43.39676" lon="6.09464">
        <ele>245.19999694824</ele>
        <time>2015-09-23T14:11:49Z</time>
      </trkpt>
      <trkpt lat="43.39679" lon="6.09464">
        <ele>244.60000610352</ele>
        <time>2015-09-23T14:11:52Z</time>
      </trkpt>
      <trkpt lat="43.39683" lon="6.09464">
        <ele>244.60000610352</ele>
        <time>2015-09-23T14:11:54Z</time>
      </trkpt>
      <trkpt lat="43.39693" lon="6.09466">
        <ele>243.19999694824</ele>
        <time>2015-09-23T14:11:56Z</time>
      </trkpt>
      <trkpt lat="43.39697" lon="6.09465">
        <ele>241.39999389648</ele>
        <time>2015-09-23T14:11:57Z</time>
      </trkpt>
      <trkpt lat="43.39697" lon="6.09461">
        <ele>240.19999694824</ele>
        <time>2015-09-23T14:11:59Z</time>
      </trkpt>
      <trkpt lat="43.39698" lon="6.09461">
        <ele>239.39999389648</ele>
        <time>2015-09-23T14:12:09Z</time>
      </trkpt>
      <trkpt lat="43.39698" lon="6.09461">
        <ele>239.80000305176</ele>
        <time>2015-09-23T14:12:12Z</time>
      </trkpt>
      <trkpt lat="43.39699" lon="6.0946">
        <ele>239.80000305176</ele>
        <time>2015-09-23T14:12:14Z</time>
      </trkpt>
      <trkpt lat="43.39702" lon="6.09453">
        <ele>240</ele>
        <time>2015-09-23T14:12:17Z</time>
      </trkpt>
      <trkpt lat="43.39704" lon="6.09451">
        <ele>240.19999694824</ele>
        <time>2015-09-23T14:12:18Z</time>
      </trkpt>
      <trkpt lat="43.39716" lon="6.09432">
        <ele>239.39999389648</ele>
        <time>2015-09-23T14:12:23Z</time>
      </trkpt>
      <trkpt lat="43.39727" lon="6.09414">
        <ele>239.60000610352</ele>
        <time>2015-09-23T14:12:27Z</time>
      </trkpt>
      <trkpt lat="43.39734" lon="6.09401">
        <ele>239</ele>
        <time>2015-09-23T14:12:30Z</time>
      </trkpt>
      <trkpt lat="43.39738" lon="6.09393">
        <ele>238.39999389648</ele>
        <time>2015-09-23T14:12:34Z</time>
      </trkpt>
      <trkpt lat="43.39738" lon="6.09392">
        <ele>238.39999389648</ele>
        <time>2015-09-23T14:12:39Z</time>
      </trkpt>
      <trkpt lat="43.39738" lon="6.09392">
        <ele>238.19999694824</ele>
        <time>2015-09-23T14:12:44Z</time>
      </trkpt>
      <trkpt lat="43.39742" lon="6.09386">
        <ele>238.60000610352</ele>
        <time>2015-09-23T14:12:51Z</time>
      </trkpt>
      <trkpt lat="43.39753" lon="6.09368">
        <ele>238.60000610352</ele>
        <time>2015-09-23T14:12:57Z</time>
      </trkpt>
      <trkpt lat="43.3977" lon="6.09333">
        <ele>238.60000610352</ele>
        <time>2015-09-23T14:13:04Z</time>
      </trkpt>
      <trkpt lat="43.39775" lon="6.09321">
        <ele>237.80000305176</ele>
        <time>2015-09-23T14:13:06Z</time>
      </trkpt>
      <trkpt lat="43.39787" lon="6.09289">
        <ele>238.60000610352</ele>
        <time>2015-09-23T14:13:12Z</time>
      </trkpt>
      <trkpt lat="43.39788" lon="6.09282">
        <ele>239</ele>
        <time>2015-09-23T14:13:13Z</time>
      </trkpt>
      <trkpt lat="43.39799" lon="6.09238">
        <ele>239.19999694824</ele>
        <time>2015-09-23T14:13:23Z</time>
      </trkpt>
      <trkpt lat="43.39802" lon="6.09211">
        <ele>239.39999389648</ele>
        <time>2015-09-23T14:13:29Z</time>
      </trkpt>
      <trkpt lat="43.39801" lon="6.09192">
        <ele>240</ele>
        <time>2015-09-23T14:13:33Z</time>
      </trkpt>
      <trkpt lat="43.39801" lon="6.09183">
        <ele>240.19999694824</ele>
        <time>2015-09-23T14:13:35Z</time>
      </trkpt>
      <trkpt lat="43.39801" lon="6.09158">
        <ele>240.60000610352</ele>
        <time>2015-09-23T14:13:42Z</time>
      </trkpt>
      <trkpt lat="43.39805" lon="6.09131">
        <ele>241</ele>
        <time>2015-09-23T14:13:49Z</time>
      </trkpt>
      <trkpt lat="43.39808" lon="6.09117">
        <ele>241</ele>
        <time>2015-09-23T14:13:53Z</time>
      </trkpt>
      <trkpt lat="43.39809" lon="6.0911">
        <ele>241.19999694824</ele>
        <time>2015-09-23T14:13:55Z</time>
      </trkpt>
      <trkpt lat="43.39816" lon="6.09089">
        <ele>241.80000305176</ele>
        <time>2015-09-23T14:14:02Z</time>
      </trkpt>
      <trkpt lat="43.39828" lon="6.09059">
        <ele>241.80000305176</ele>
        <time>2015-09-23T14:14:09Z</time>
      </trkpt>
      <trkpt lat="43.39844" lon="6.09039">
        <ele>241.19999694824</ele>
        <time>2015-09-23T14:14:14Z</time>
      </trkpt>
      <trkpt lat="43.39857" lon="6.09026">
        <ele>239.80000305176</ele>
        <time>2015-09-23T14:14:17Z</time>
      </trkpt>
      <trkpt lat="43.39861" lon="6.09021">
        <ele>239.60000610352</ele>
        <time>2015-09-23T14:14:18Z</time>
      </trkpt>
      <trkpt lat="43.39868" lon="6.09012">
        <ele>238.80000305176</ele>
        <time>2015-09-23T14:14:20Z</time>
      </trkpt>
      <trkpt lat="43.3989" lon="6.08995">
        <ele>238.80000305176</ele>
        <time>2015-09-23T14:14:25Z</time>
      </trkpt>
      <trkpt lat="43.39904" lon="6.08992">
        <ele>237.80000305176</ele>
        <time>2015-09-23T14:14:28Z</time>
      </trkpt>
      <trkpt lat="43.39913" lon="6.08992">
        <ele>237.60000610352</ele>
        <time>2015-09-23T14:14:30Z</time>
      </trkpt>
      <trkpt lat="43.39926" lon="6.0899">
        <ele>236.60000610352</ele>
        <time>2015-09-23T14:14:33Z</time>
      </trkpt>
      <trkpt lat="43.39935" lon="6.08989">
        <ele>235.60000610352</ele>
        <time>2015-09-23T14:14:35Z</time>
      </trkpt>
      <trkpt lat="43.39956" lon="6.08984">
        <ele>234.80000305176</ele>
        <time>2015-09-23T14:14:39Z</time>
      </trkpt>
      <trkpt lat="43.39961" lon="6.08983">
        <ele>234.60000610352</ele>
        <time>2015-09-23T14:14:40Z</time>
      </trkpt>
      <trkpt lat="43.39967" lon="6.08981">
        <ele>234.39999389648</ele>
        <time>2015-09-23T14:14:41Z</time>
      </trkpt>
      <trkpt lat="43.39985" lon="6.08977">
        <ele>233.80000305176</ele>
        <time>2015-09-23T14:14:45Z</time>
      </trkpt>
      <trkpt lat="43.39989" lon="6.08976">
        <ele>233.60000610352</ele>
        <time>2015-09-23T14:14:46Z</time>
      </trkpt>
      <trkpt lat="43.39997" lon="6.08974">
        <ele>233.60000610352</ele>
        <time>2015-09-23T14:14:48Z</time>
      </trkpt>
      <trkpt lat="43.40015" lon="6.08967">
        <ele>233.39999389648</ele>
        <time>2015-09-23T14:14:52Z</time>
      </trkpt>
      <trkpt lat="43.40023" lon="6.08962">
        <ele>233.19999694824</ele>
        <time>2015-09-23T14:14:54Z</time>
      </trkpt>
      <trkpt lat="43.40028" lon="6.08952">
        <ele>233</ele>
        <time>2015-09-23T14:14:56Z</time>
      </trkpt>
      <trkpt lat="43.40032" lon="6.08938">
        <ele>233.39999389648</ele>
        <time>2015-09-23T14:14:59Z</time>
      </trkpt>
      <trkpt lat="43.40036" lon="6.08927">
        <ele>233.39999389648</ele>
        <time>2015-09-23T14:15:01Z</time>
      </trkpt>
      <trkpt lat="43.4004" lon="6.08911">
        <ele>233</ele>
        <time>2015-09-23T14:15:04Z</time>
      </trkpt>
      <trkpt lat="43.40046" lon="6.0889">
        <ele>233.19999694824</ele>
        <time>2015-09-23T14:15:08Z</time>
      </trkpt>
      <trkpt lat="43.40058" lon="6.08854">
        <ele>233</ele>
        <time>2015-09-23T14:15:15Z</time>
      </trkpt>
      <trkpt lat="43.4006" lon="6.08848">
        <ele>233.19999694824</ele>
        <time>2015-09-23T14:15:16Z</time>
      </trkpt>
      <trkpt lat="43.40067" lon="6.08831">
        <ele>233.39999389648</ele>
        <time>2015-09-23T14:15:19Z</time>
      </trkpt>
      <trkpt lat="43.40073" lon="6.08815">
        <ele>233.19999694824</ele>
        <time>2015-09-23T14:15:22Z</time>
      </trkpt>
      <trkpt lat="43.40079" lon="6.08801">
        <ele>234</ele>
        <time>2015-09-23T14:15:25Z</time>
      </trkpt>
      <trkpt lat="43.40088" lon="6.08772">
        <ele>233.80000305176</ele>
        <time>2015-09-23T14:15:31Z</time>
      </trkpt>
      <trkpt lat="43.40099" lon="6.08728">
        <ele>233</ele>
        <time>2015-09-23T14:15:39Z</time>
      </trkpt>
      <trkpt lat="43.401" lon="6.08722">
        <ele>233</ele>
        <time>2015-09-23T14:15:40Z</time>
      </trkpt>
      <trkpt lat="43.40104" lon="6.08692">
        <ele>232.19999694824</ele>
        <time>2015-09-23T14:15:45Z</time>
      </trkpt>
      <trkpt lat="43.40102" lon="6.08675">
        <ele>232.39999389648</ele>
        <time>2015-09-23T14:15:48Z</time>
      </trkpt>
      <trkpt lat="43.401" lon="6.08668">
        <ele>231.80000305176</ele>
        <time>2015-09-23T14:15:49Z</time>
      </trkpt>
      <trkpt lat="43.40099" lon="6.08662">
        <ele>231.19999694824</ele>
        <time>2015-09-23T14:15:50Z</time>
      </trkpt>
      <trkpt lat="43.40099" lon="6.08655">
        <ele>231</ele>
        <time>2015-09-23T14:15:51Z</time>
      </trkpt>
      <trkpt lat="43.40102" lon="6.08642">
        <ele>230.60000610352</ele>
        <time>2015-09-23T14:15:53Z</time>
      </trkpt>
      <trkpt lat="43.4011" lon="6.08631">
        <ele>230.19999694824</ele>
        <time>2015-09-23T14:15:55Z</time>
      </trkpt>
      <trkpt lat="43.40115" lon="6.08627">
        <ele>230</ele>
        <time>2015-09-23T14:15:56Z</time>
      </trkpt>
      <trkpt lat="43.40119" lon="6.08623">
        <ele>229.80000305176</ele>
        <time>2015-09-23T14:15:57Z</time>
      </trkpt>
      <trkpt lat="43.40148" lon="6.08596">
        <ele>229.19999694824</ele>
        <time>2015-09-23T14:16:03Z</time>
      </trkpt>
      <trkpt lat="43.40153" lon="6.08593">
        <ele>229</ele>
        <time>2015-09-23T14:16:04Z</time>
      </trkpt>
      <trkpt lat="43.40168" lon="6.08581">
        <ele>229.19999694824</ele>
        <time>2015-09-23T14:16:07Z</time>
      </trkpt>
      <trkpt lat="43.40171" lon="6.08568">
        <ele>228.80000305176</ele>
        <time>2015-09-23T14:16:09Z</time>
      </trkpt>
      <trkpt lat="43.4017" lon="6.08555">
        <ele>228.80000305176</ele>
        <time>2015-09-23T14:16:12Z</time>
      </trkpt>
      <trkpt lat="43.4017" lon="6.08552">
        <ele>228.80000305176</ele>
        <time>2015-09-23T14:16:13Z</time>
      </trkpt>
      <trkpt lat="43.40169" lon="6.08538">
        <ele>229.19999694824</ele>
        <time>2015-09-23T14:16:18Z</time>
      </trkpt>
      <trkpt lat="43.4017" lon="6.08513">
        <ele>229</ele>
        <time>2015-09-23T14:16:26Z</time>
      </trkpt>
      <trkpt lat="43.40173" lon="6.0849">
        <ele>229.39999389648</ele>
        <time>2015-09-23T14:16:32Z</time>
      </trkpt>
      <trkpt lat="43.40176" lon="6.08469">
        <ele>229.39999389648</ele>
        <time>2015-09-23T14:16:37Z</time>
      </trkpt>
      <trkpt lat="43.40178" lon="6.0846">
        <ele>230</ele>
        <time>2015-09-23T14:16:39Z</time>
      </trkpt>
      <trkpt lat="43.40178" lon="6.08445">
        <ele>229.80000305176</ele>
        <time>2015-09-23T14:16:42Z</time>
      </trkpt>
      <trkpt lat="43.40181" lon="6.08409">
        <ele>230</ele>
        <time>2015-09-23T14:16:49Z</time>
      </trkpt>
      <trkpt lat="43.40182" lon="6.08375">
        <ele>229.39999389648</ele>
        <time>2015-09-23T14:16:55Z</time>
      </trkpt>
      <trkpt lat="43.40183" lon="6.08343">
        <ele>228.80000305176</ele>
        <time>2015-09-23T14:17:00Z</time>
      </trkpt>
      <trkpt lat="43.40184" lon="6.08336">
        <ele>228.60000610352</ele>
        <time>2015-09-23T14:17:01Z</time>
      </trkpt>
      <trkpt lat="43.40186" lon="6.08296">
        <ele>229</ele>
        <time>2015-09-23T14:17:08Z</time>
      </trkpt>
      <trkpt lat="43.40188" lon="6.08276">
        <ele>228.39999389648</ele>
        <time>2015-09-23T14:17:14Z</time>
      </trkpt>
      <trkpt lat="43.40188" lon="6.08275">
        <ele>228.39999389648</ele>
        <time>2015-09-23T14:17:20Z</time>
      </trkpt>
      <trkpt lat="43.40188" lon="6.08272">
        <ele>228.39999389648</ele>
        <time>2015-09-23T14:17:22Z</time>
      </trkpt>
      <trkpt lat="43.40187" lon="6.0827">
        <ele>228</ele>
        <time>2015-09-23T14:17:26Z</time>
      </trkpt>
      <trkpt lat="43.40187" lon="6.0827">
        <ele>227.80000305176</ele>
        <time>2015-09-23T14:17:37Z</time>
      </trkpt>
      <trkpt lat="43.40187" lon="6.0827">
        <ele>228</ele>
        <time>2015-09-23T14:17:48Z</time>
      </trkpt>
      <trkpt lat="43.40186" lon="6.08268">
        <ele>228</ele>
        <time>2015-09-23T14:17:49Z</time>
      </trkpt>
      <trkpt lat="43.40184" lon="6.08264">
        <ele>228</ele>
        <time>2015-09-23T14:17:54Z</time>
      </trkpt>
      <trkpt lat="43.40184" lon="6.08249">
        <ele>228</ele>
        <time>2015-09-23T14:17:58Z</time>
      </trkpt>
      <trkpt lat="43.4019" lon="6.08217">
        <ele>227.60000610352</ele>
        <time>2015-09-23T14:18:04Z</time>
      </trkpt>
      <trkpt lat="43.40192" lon="6.0821">
        <ele>227.39999389648</ele>
        <time>2015-09-23T14:18:05Z</time>
      </trkpt>
      <trkpt lat="43.40197" lon="6.08192">
        <ele>227.19999694824</ele>
        <time>2015-09-23T14:18:08Z</time>
      </trkpt>
      <trkpt lat="43.402" lon="6.08172">
        <ele>227.19999694824</ele>
        <time>2015-09-23T14:18:11Z</time>
      </trkpt>
      <trkpt lat="43.40202" lon="6.08142">
        <ele>226</ele>
        <time>2015-09-23T14:18:15Z</time>
      </trkpt>
      <trkpt lat="43.402" lon="6.08133">
        <ele>225.39999389648</ele>
        <time>2015-09-23T14:18:17Z</time>
      </trkpt>
      <trkpt lat="43.40195" lon="6.08114">
        <ele>225.19999694824</ele>
        <time>2015-09-23T14:18:22Z</time>
      </trkpt>
      <trkpt lat="43.40195" lon="6.08102">
        <ele>225</ele>
        <time>2015-09-23T14:18:24Z</time>
      </trkpt>
      <trkpt lat="43.40196" lon="6.08089">
        <ele>224.60000610352</ele>
        <time>2015-09-23T14:18:26Z</time>
      </trkpt>
      <trkpt lat="43.40198" lon="6.08082">
        <ele>224.60000610352</ele>
        <time>2015-09-23T14:18:27Z</time>
      </trkpt>
      <trkpt lat="43.40212" lon="6.08057">
        <ele>223.60000610352</ele>
        <time>2015-09-23T14:18:32Z</time>
      </trkpt>
      <trkpt lat="43.40235" lon="6.08029">
        <ele>222.80000305176</ele>
        <time>2015-09-23T14:18:39Z</time>
      </trkpt>
      <trkpt lat="43.40238" lon="6.08025">
        <ele>222.60000610352</ele>
        <time>2015-09-23T14:18:40Z</time>
      </trkpt>
      <trkpt lat="43.40258" lon="6.07999">
        <ele>221.60000610352</ele>
        <time>2015-09-23T14:18:46Z</time>
      </trkpt>
      <trkpt lat="43.40261" lon="6.07994">
        <ele>221.39999389648</ele>
        <time>2015-09-23T14:18:47Z</time>
      </trkpt>
      <trkpt lat="43.40285" lon="6.07951">
        <ele>220.39999389648</ele>
        <time>2015-09-23T14:18:55Z</time>
      </trkpt>
      <trkpt lat="43.40286" lon="6.07946">
        <ele>220.39999389648</ele>
        <time>2015-09-23T14:18:56Z</time>
      </trkpt>
      <trkpt lat="43.40294" lon="6.07915">
        <ele>219.39999389648</ele>
        <time>2015-09-23T14:19:01Z</time>
      </trkpt>
      <trkpt lat="43.40297" lon="6.07896">
        <ele>218.60000610352</ele>
        <time>2015-09-23T14:19:04Z</time>
      </trkpt>
      <trkpt lat="43.40305" lon="6.07843">
        <ele>217.80000305176</ele>
        <time>2015-09-23T14:19:12Z</time>
      </trkpt>
      <trkpt lat="43.4031" lon="6.07788">
        <ele>217</ele>
        <time>2015-09-23T14:19:20Z</time>
      </trkpt>
      <trkpt lat="43.40319" lon="6.07728">
        <ele>217</ele>
        <time>2015-09-23T14:19:29Z</time>
      </trkpt>
      <trkpt lat="43.40326" lon="6.0771">
        <ele>216.19999694824</ele>
        <time>2015-09-23T14:19:32Z</time>
      </trkpt>
      <trkpt lat="43.40332" lon="6.07699">
        <ele>216.19999694824</ele>
        <time>2015-09-23T14:19:34Z</time>
      </trkpt>
      <trkpt lat="43.40339" lon="6.0769">
        <ele>216</ele>
        <time>2015-09-23T14:19:36Z</time>
      </trkpt>
      <trkpt lat="43.40354" lon="6.07674">
        <ele>215.19999694824</ele>
        <time>2015-09-23T14:19:40Z</time>
      </trkpt>
      <trkpt lat="43.40364" lon="6.07661">
        <ele>214.60000610352</ele>
        <time>2015-09-23T14:19:43Z</time>
      </trkpt>
      <trkpt lat="43.40371" lon="6.07645">
        <ele>214.80000305176</ele>
        <time>2015-09-23T14:19:46Z</time>
      </trkpt>
      <trkpt lat="43.40376" lon="6.07614">
        <ele>214.80000305176</ele>
        <time>2015-09-23T14:19:51Z</time>
      </trkpt>
      <trkpt lat="43.40377" lon="6.07584">
        <ele>215.60000610352</ele>
        <time>2015-09-23T14:19:56Z</time>
      </trkpt>
      <trkpt lat="43.40377" lon="6.07572">
        <ele>216</ele>
        <time>2015-09-23T14:19:58Z</time>
      </trkpt>
      <trkpt lat="43.40378" lon="6.07565">
        <ele>216.19999694824</ele>
        <time>2015-09-23T14:19:59Z</time>
      </trkpt>
      <trkpt lat="43.40378" lon="6.07537">
        <ele>217.39999389648</ele>
        <time>2015-09-23T14:20:04Z</time>
      </trkpt>
      <trkpt lat="43.40379" lon="6.07526">
        <ele>217.19999694824</ele>
        <time>2015-09-23T14:20:06Z</time>
      </trkpt>
      <trkpt lat="43.40379" lon="6.0752">
        <ele>217</ele>
        <time>2015-09-23T14:20:07Z</time>
      </trkpt>
      <trkpt lat="43.40383" lon="6.07493">
        <ele>216.39999389648</ele>
        <time>2015-09-23T14:20:12Z</time>
      </trkpt>
      <trkpt lat="43.40387" lon="6.07477">
        <ele>217</ele>
        <time>2015-09-23T14:20:15Z</time>
      </trkpt>
      <trkpt lat="43.40392" lon="6.07441">
        <ele>217.19999694824</ele>
        <time>2015-09-23T14:20:23Z</time>
      </trkpt>
      <trkpt lat="43.40395" lon="6.07406">
        <ele>216.19999694824</ele>
        <time>2015-09-23T14:20:30Z</time>
      </trkpt>
      <trkpt lat="43.40395" lon="6.0739">
        <ele>215.80000305176</ele>
        <time>2015-09-23T14:20:33Z</time>
      </trkpt>
      <trkpt lat="43.40391" lon="6.07352">
        <ele>215.80000305176</ele>
        <time>2015-09-23T14:20:40Z</time>
      </trkpt>
      <trkpt lat="43.40388" lon="6.07331">
        <ele>215.19999694824</ele>
        <time>2015-09-23T14:20:44Z</time>
      </trkpt>
      <trkpt lat="43.40387" lon="6.07325">
        <ele>214.80000305176</ele>
        <time>2015-09-23T14:20:46Z</time>
      </trkpt>
      <trkpt lat="43.40385" lon="6.07309">
        <ele>214.19999694824</ele>
        <time>2015-09-23T14:20:51Z</time>
      </trkpt>
      <trkpt lat="43.40385" lon="6.07303">
        <ele>213.80000305176</ele>
        <time>2015-09-23T14:20:53Z</time>
      </trkpt>
      <trkpt lat="43.40388" lon="6.07295">
        <ele>213</ele>
        <time>2015-09-23T14:20:57Z</time>
      </trkpt>
      <trkpt lat="43.40393" lon="6.0729">
        <ele>212.60000610352</ele>
        <time>2015-09-23T14:20:59Z</time>
      </trkpt>
      <trkpt lat="43.40398" lon="6.07285">
        <ele>211.60000610352</ele>
        <time>2015-09-23T14:21:01Z</time>
      </trkpt>
      <trkpt lat="43.40407" lon="6.07282">
        <ele>211.19999694824</ele>
        <time>2015-09-23T14:21:03Z</time>
      </trkpt>
      <trkpt lat="43.40423" lon="6.07286">
        <ele>211</ele>
        <time>2015-09-23T14:21:06Z</time>
      </trkpt>
      <trkpt lat="43.40436" lon="6.07286">
        <ele>210.60000610352</ele>
        <time>2015-09-23T14:21:08Z</time>
      </trkpt>
      <trkpt lat="43.40456" lon="6.07284">
        <ele>210.19999694824</ele>
        <time>2015-09-23T14:21:11Z</time>
      </trkpt>
      <trkpt lat="43.40493" lon="6.07282">
        <ele>209.80000305176</ele>
        <time>2015-09-23T14:21:16Z</time>
      </trkpt>
      <trkpt lat="43.40501" lon="6.07282">
        <ele>209.39999389648</ele>
        <time>2015-09-23T14:21:17Z</time>
      </trkpt>
      <trkpt lat="43.40508" lon="6.07285">
        <ele>208.80000305176</ele>
        <time>2015-09-23T14:21:18Z</time>
      </trkpt>
      <trkpt lat="43.40516" lon="6.07296">
        <ele>208.19999694824</ele>
        <time>2015-09-23T14:21:20Z</time>
      </trkpt>
      <trkpt lat="43.4052" lon="6.07302">
        <ele>208.19999694824</ele>
        <time>2015-09-23T14:21:21Z</time>
      </trkpt>
      <trkpt lat="43.40525" lon="6.07304">
        <ele>208.39999389648</ele>
        <time>2015-09-23T14:21:22Z</time>
      </trkpt>
      <trkpt lat="43.40536" lon="6.07302">
        <ele>208.19999694824</ele>
        <time>2015-09-23T14:21:24Z</time>
      </trkpt>
      <trkpt lat="43.40547" lon="6.07304">
        <ele>208</ele>
        <time>2015-09-23T14:21:26Z</time>
      </trkpt>
      <trkpt lat="43.40558" lon="6.07305">
        <ele>207.80000305176</ele>
        <time>2015-09-23T14:21:29Z</time>
      </trkpt>
      <trkpt lat="43.40563" lon="6.07305">
        <ele>207.39999389648</ele>
        <time>2015-09-23T14:21:33Z</time>
      </trkpt>
      <trkpt lat="43.40569" lon="6.07305">
        <ele>207.19999694824</ele>
        <time>2015-09-23T14:21:37Z</time>
      </trkpt>
      <trkpt lat="43.40578" lon="6.07305">
        <ele>206.80000305176</ele>
        <time>2015-09-23T14:21:40Z</time>
      </trkpt>
      <trkpt lat="43.40601" lon="6.07301">
        <ele>207</ele>
        <time>2015-09-23T14:21:46Z</time>
      </trkpt>
      <trkpt lat="43.40612" lon="6.07314">
        <ele>206.39999389648</ele>
        <time>2015-09-23T14:21:49Z</time>
      </trkpt>
      <trkpt lat="43.40616" lon="6.07319">
        <ele>206.19999694824</ele>
        <time>2015-09-23T14:21:50Z</time>
      </trkpt>
      <trkpt lat="43.40622" lon="6.07329">
        <ele>206.39999389648</ele>
        <time>2015-09-23T14:21:52Z</time>
      </trkpt>
      <trkpt lat="43.40625" lon="6.07341">
        <ele>205.80000305176</ele>
        <time>2015-09-23T14:21:54Z</time>
      </trkpt>
      <trkpt lat="43.40628" lon="6.07346">
        <ele>205.60000610352</ele>
        <time>2015-09-23T14:21:55Z</time>
      </trkpt>
      <trkpt lat="43.40636" lon="6.07345">
        <ele>205.39999389648</ele>
        <time>2015-09-23T14:21:57Z</time>
      </trkpt>
      <trkpt lat="43.40643" lon="6.07331">
        <ele>205.39999389648</ele>
        <time>2015-09-23T14:22:00Z</time>
      </trkpt>
      <trkpt lat="43.40658" lon="6.07318">
        <ele>205.39999389648</ele>
        <time>2015-09-23T14:22:04Z</time>
      </trkpt>
      <trkpt lat="43.4069" lon="6.073">
        <ele>204</ele>
        <time>2015-09-23T14:22:11Z</time>
      </trkpt>
      <trkpt lat="43.40704" lon="6.07292">
        <ele>203.80000305176</ele>
        <time>2015-09-23T14:22:14Z</time>
      </trkpt>
      <trkpt lat="43.40719" lon="6.07283">
        <ele>203</ele>
        <time>2015-09-23T14:22:17Z</time>
      </trkpt>
      <trkpt lat="43.40748" lon="6.07267">
        <ele>201.80000305176</ele>
        <time>2015-09-23T14:22:23Z</time>
      </trkpt>
      <trkpt lat="43.40762" lon="6.07258">
        <ele>201.19999694824</ele>
        <time>2015-09-23T14:22:26Z</time>
      </trkpt>
      <trkpt lat="43.40798" lon="6.07231">
        <ele>201.19999694824</ele>
        <time>2015-09-23T14:22:34Z</time>
      </trkpt>
      <trkpt lat="43.40826" lon="6.07191">
        <ele>201</ele>
        <time>2015-09-23T14:22:42Z</time>
      </trkpt>
      <trkpt lat="43.40844" lon="6.07148">
        <ele>201.80000305176</ele>
        <time>2015-09-23T14:22:49Z</time>
      </trkpt>
      <trkpt lat="43.40845" lon="6.07142">
        <ele>201.80000305176</ele>
        <time>2015-09-23T14:22:50Z</time>
      </trkpt>
      <trkpt lat="43.40853" lon="6.07089">
        <ele>201.19999694824</ele>
        <time>2015-09-23T14:22:58Z</time>
      </trkpt>
      <trkpt lat="43.40852" lon="6.07056">
        <ele>201.19999694824</ele>
        <time>2015-09-23T14:23:03Z</time>
      </trkpt>
      <trkpt lat="43.40851" lon="6.07044">
        <ele>201.39999389648</ele>
        <time>2015-09-23T14:23:05Z</time>
      </trkpt>
      <trkpt lat="43.40849" lon="6.07014">
        <ele>202.39999389648</ele>
        <time>2015-09-23T14:23:11Z</time>
      </trkpt>
      <trkpt lat="43.40859" lon="6.07012">
        <ele>202</ele>
        <time>2015-09-23T14:23:14Z</time>
      </trkpt>
      <trkpt lat="43.40869" lon="6.07008">
        <ele>200.80000305176</ele>
        <time>2015-09-23T14:23:17Z</time>
      </trkpt>
      <trkpt lat="43.4088" lon="6.07006">
        <ele>199.60000610352</ele>
        <time>2015-09-23T14:23:20Z</time>
      </trkpt>
      <trkpt lat="43.40887" lon="6.07004">
        <ele>199</ele>
        <time>2015-09-23T14:23:22Z</time>
      </trkpt>
      <trkpt lat="43.409" lon="6.06999">
        <ele>198</ele>
        <time>2015-09-23T14:23:25Z</time>
      </trkpt>
      <trkpt lat="43.40904" lon="6.06996">
        <ele>198.19999694824</ele>
        <time>2015-09-23T14:23:26Z</time>
      </trkpt>
      <trkpt lat="43.40908" lon="6.06992">
        <ele>198.39999389648</ele>
        <time>2015-09-23T14:23:27Z</time>
      </trkpt>
      <trkpt lat="43.40911" lon="6.06982">
        <ele>199.39999389648</ele>
        <time>2015-09-23T14:23:29Z</time>
      </trkpt>
      <trkpt lat="43.40913" lon="6.06973">
        <ele>200.19999694824</ele>
        <time>2015-09-23T14:23:31Z</time>
      </trkpt>
      <trkpt lat="43.40919" lon="6.06956">
        <ele>199.80000305176</ele>
        <time>2015-09-23T14:23:36Z</time>
      </trkpt>
      <trkpt lat="43.40923" lon="6.06954">
        <ele>200</ele>
        <time>2015-09-23T14:23:37Z</time>
      </trkpt>
      <trkpt lat="43.40931" lon="6.06953">
        <ele>200.39999389648</ele>
        <time>2015-09-23T14:23:39Z</time>
      </trkpt>
      <trkpt lat="43.40957" lon="6.06947">
        <ele>200.39999389648</ele>
        <time>2015-09-23T14:23:45Z</time>
      </trkpt>
      <trkpt lat="43.40972" lon="6.06941">
        <ele>199.19999694824</ele>
        <time>2015-09-23T14:23:49Z</time>
      </trkpt>
      <trkpt lat="43.41001" lon="6.06927">
        <ele>200.39999389648</ele>
        <time>2015-09-23T14:23:57Z</time>
      </trkpt>
      <trkpt lat="43.41019" lon="6.06915">
        <ele>200.39999389648</ele>
        <time>2015-09-23T14:24:03Z</time>
      </trkpt>
      <trkpt lat="43.41022" lon="6.06904">
        <ele>200.39999389648</ele>
        <time>2015-09-23T14:24:07Z</time>
      </trkpt>
      <trkpt lat="43.41024" lon="6.06895">
        <ele>200.19999694824</ele>
        <time>2015-09-23T14:24:12Z</time>
      </trkpt>
      <trkpt lat="43.41032" lon="6.06888">
        <ele>199.80000305176</ele>
        <time>2015-09-23T14:24:19Z</time>
      </trkpt>
      <trkpt lat="43.41038" lon="6.06883">
        <ele>200.19999694824</ele>
        <time>2015-09-23T14:24:24Z</time>
      </trkpt>
      <trkpt lat="43.41042" lon="6.06882">
        <ele>200.19999694824</ele>
        <time>2015-09-23T14:24:26Z</time>
      </trkpt>
      <trkpt lat="43.41051" lon="6.06878">
        <ele>201</ele>
        <time>2015-09-23T14:24:32Z</time>
      </trkpt>
      <trkpt lat="43.41053" lon="6.06877">
        <ele>201.19999694824</ele>
        <time>2015-09-23T14:24:33Z</time>
      </trkpt>
      <trkpt lat="43.41054" lon="6.06877">
        <ele>201.39999389648</ele>
        <time>2015-09-23T14:24:34Z</time>
      </trkpt>
      <trkpt lat="43.41067" lon="6.06871">
        <ele>202</ele>
        <time>2015-09-23T14:24:40Z</time>
      </trkpt>
      <trkpt lat="43.41068" lon="6.06869">
        <ele>201.80000305176</ele>
        <time>2015-09-23T14:24:41Z</time>
      </trkpt>
      <trkpt lat="43.41068" lon="6.06859">
        <ele>201.60000610352</ele>
        <time>2015-09-23T14:24:43Z</time>
      </trkpt>
      <trkpt lat="43.41069" lon="6.06854">
        <ele>201</ele>
        <time>2015-09-23T14:24:44Z</time>
      </trkpt>
      <trkpt lat="43.41075" lon="6.06837">
        <ele>201</ele>
        <time>2015-09-23T14:24:47Z</time>
      </trkpt>
      <trkpt lat="43.41077" lon="6.06827">
        <ele>201</ele>
        <time>2015-09-23T14:24:49Z</time>
      </trkpt>
      <trkpt lat="43.41079" lon="6.06815">
        <ele>200.60000610352</ele>
        <time>2015-09-23T14:24:52Z</time>
      </trkpt>
      <trkpt lat="43.41084" lon="6.06797">
        <ele>200.39999389648</ele>
        <time>2015-09-23T14:24:57Z</time>
      </trkpt>
      <trkpt lat="43.41085" lon="6.06794">
        <ele>200.19999694824</ele>
        <time>2015-09-23T14:24:58Z</time>
      </trkpt>
      <trkpt lat="43.4109" lon="6.06768">
        <ele>200.39999389648</ele>
        <time>2015-09-23T14:25:04Z</time>
      </trkpt>
      <trkpt lat="43.411" lon="6.06754">
        <ele>200.39999389648</ele>
        <time>2015-09-23T14:25:08Z</time>
      </trkpt>
      <trkpt lat="43.4112" lon="6.06734">
        <ele>201.39999389648</ele>
        <time>2015-09-23T14:25:15Z</time>
      </trkpt>
      <trkpt lat="43.41147" lon="6.06722">
        <ele>200.80000305176</ele>
        <time>2015-09-23T14:25:24Z</time>
      </trkpt>
      <trkpt lat="43.41168" lon="6.06719">
        <ele>200.60000610352</ele>
        <time>2015-09-23T14:25:31Z</time>
      </trkpt>
      <trkpt lat="43.41196" lon="6.06721">
        <ele>200.39999389648</ele>
        <time>2015-09-23T14:25:40Z</time>
      </trkpt>
      <trkpt lat="43.412" lon="6.06721">
        <ele>200.19999694824</ele>
        <time>2015-09-23T14:25:41Z</time>
      </trkpt>
      <trkpt lat="43.41208" lon="6.06719">
        <ele>201.39999389648</ele>
        <time>2015-09-23T14:25:44Z</time>
      </trkpt>
      <trkpt lat="43.41212" lon="6.0672">
        <ele>201.39999389648</ele>
        <time>2015-09-23T14:25:46Z</time>
      </trkpt>
      <trkpt lat="43.41227" lon="6.06718">
        <ele>201.19999694824</ele>
        <time>2015-09-23T14:25:51Z</time>
      </trkpt>
      <trkpt lat="43.4123" lon="6.06718">
        <ele>201.39999389648</ele>
        <time>2015-09-23T14:25:52Z</time>
      </trkpt>
      <trkpt lat="43.41245" lon="6.06716">
        <ele>201.80000305176</ele>
        <time>2015-09-23T14:25:59Z</time>
      </trkpt>
      <trkpt lat="43.41245" lon="6.06716">
        <ele>202.39999389648</ele>
        <time>2015-09-23T14:26:01Z</time>
      </trkpt>
      <trkpt lat="43.41245" lon="6.06716">
        <ele>202.80000305176</ele>
        <time>2015-09-23T14:26:04Z</time>
      </trkpt>
      <trkpt lat="43.41246" lon="6.06716">
        <ele>202.39999389648</ele>
        <time>2015-09-23T14:26:14Z</time>
      </trkpt>
      <trkpt lat="43.41249" lon="6.06716">
        <ele>203</ele>
        <time>2015-09-23T14:26:21Z</time>
      </trkpt>
      <trkpt lat="43.41253" lon="6.06718">
        <ele>203</ele>
        <time>2015-09-23T14:26:24Z</time>
      </trkpt>
      <trkpt lat="43.41258" lon="6.06723">
        <ele>203</ele>
        <time>2015-09-23T14:26:27Z</time>
      </trkpt>
      <trkpt lat="43.41269" lon="6.0674">
        <ele>203.39999389648</ele>
        <time>2015-09-23T14:26:33Z</time>
      </trkpt>
      <trkpt lat="43.41275" lon="6.06755">
        <ele>203.39999389648</ele>
        <time>2015-09-23T14:26:40Z</time>
      </trkpt>
      <trkpt lat="43.41275" lon="6.06755">
        <ele>204</ele>
        <time>2015-09-23T14:26:45Z</time>
      </trkpt>
      <trkpt lat="43.41275" lon="6.06755">
        <ele>204</ele>
        <time>2015-09-23T14:26:50Z</time>
      </trkpt>
      <trkpt lat="43.41275" lon="6.06755">
        <ele>204</ele>
        <time>2015-09-23T14:26:52Z</time>
      </trkpt>
      <trkpt lat="43.41275" lon="6.06755">
        <ele>204</ele>
        <time>2015-09-23T14:27:09Z</time>
      </trkpt>
      <trkpt lat="43.41277" lon="6.06757">
        <ele>204</ele>
        <time>2015-09-23T14:27:11Z</time>
      </trkpt>
      <trkpt lat="43.4128" lon="6.06763">
        <ele>204</ele>
        <time>2015-09-23T14:27:14Z</time>
      </trkpt>
      <trkpt lat="43.41285" lon="6.06772">
        <ele>204.80000305176</ele>
        <time>2015-09-23T14:27:18Z</time>
      </trkpt>
      <trkpt lat="43.41288" lon="6.06778">
        <ele>205</ele>
        <time>2015-09-23T14:27:20Z</time>
      </trkpt>
      <trkpt lat="43.41305" lon="6.06797">
        <ele>204.60000610352</ele>
        <time>2015-09-23T14:27:27Z</time>
      </trkpt>
      <trkpt lat="43.41325" lon="6.06811">
        <ele>205.60000610352</ele>
        <time>2015-09-23T14:27:34Z</time>
      </trkpt>
      <trkpt lat="43.41346" lon="6.06824">
        <ele>205.60000610352</ele>
        <time>2015-09-23T14:27:41Z</time>
      </trkpt>
      <trkpt lat="43.41356" lon="6.06828">
        <ele>205.80000305176</ele>
        <time>2015-09-23T14:27:44Z</time>
      </trkpt>
      <trkpt lat="43.41379" lon="6.0684">
        <ele>205.19999694824</ele>
        <time>2015-09-23T14:27:53Z</time>
      </trkpt>
      <trkpt lat="43.41398" lon="6.06855">
        <ele>205.19999694824</ele>
        <time>2015-09-23T14:28:01Z</time>
      </trkpt>
      <trkpt lat="43.41408" lon="6.06867">
        <ele>204.39999389648</ele>
        <time>2015-09-23T14:28:06Z</time>
      </trkpt>
      <trkpt lat="43.4141" lon="6.0687">
        <ele>204.39999389648</ele>
        <time>2015-09-23T14:28:08Z</time>
      </trkpt>
      <trkpt lat="43.4141" lon="6.0687">
        <ele>203.19999694824</ele>
        <time>2015-09-23T14:28:12Z</time>
      </trkpt>
      <trkpt lat="43.41411" lon="6.0687">
        <ele>203.80000305176</ele>
        <time>2015-09-23T14:28:15Z</time>
      </trkpt>
      <trkpt lat="43.41411" lon="6.0687">
        <ele>204.60000610352</ele>
        <time>2015-09-23T14:28:17Z</time>
      </trkpt>
      <trkpt lat="43.41411" lon="6.06871">
        <ele>204.80000305176</ele>
        <time>2015-09-23T14:28:22Z</time>
      </trkpt>
      <trkpt lat="43.41411" lon="6.06871">
        <ele>205.39999389648</ele>
        <time>2015-09-23T14:28:25Z</time>
      </trkpt>
      <trkpt lat="43.41411" lon="6.06871">
        <ele>205.60000610352</ele>
        <time>2015-09-23T14:28:30Z</time>
      </trkpt>
      <trkpt lat="43.41413" lon="6.06875">
        <ele>205</ele>
        <time>2015-09-23T14:28:42Z</time>
      </trkpt>
      <trkpt lat="43.41414" lon="6.06877">
        <ele>205.39999389648</ele>
        <time>2015-09-23T14:28:43Z</time>
      </trkpt>
      <trkpt lat="43.41419" lon="6.06896">
        <ele>206</ele>
        <time>2015-09-23T14:28:51Z</time>
      </trkpt>
      <trkpt lat="43.41429" lon="6.06918">
        <ele>206</ele>
        <time>2015-09-23T14:28:57Z</time>
      </trkpt>
      <trkpt lat="43.41439" lon="6.06925">
        <ele>205.60000610352</ele>
        <time>2015-09-23T14:29:00Z</time>
      </trkpt>
      <trkpt lat="43.41448" lon="6.06927">
        <ele>205.80000305176</ele>
        <time>2015-09-23T14:29:02Z</time>
      </trkpt>
      <trkpt lat="43.41456" lon="6.06927">
        <ele>206.19999694824</ele>
        <time>2015-09-23T14:29:04Z</time>
      </trkpt>
      <trkpt lat="43.4146" lon="6.06927">
        <ele>206.60000610352</ele>
        <time>2015-09-23T14:29:05Z</time>
      </trkpt>
      <trkpt lat="43.41472" lon="6.06944">
        <ele>205.60000610352</ele>
        <time>2015-09-23T14:29:09Z</time>
      </trkpt>
      <trkpt lat="43.41475" lon="6.06948">
        <ele>205.39999389648</ele>
        <time>2015-09-23T14:29:10Z</time>
      </trkpt>
      <trkpt lat="43.41481" lon="6.06957">
        <ele>205.19999694824</ele>
        <time>2015-09-23T14:29:12Z</time>
      </trkpt>
      <trkpt lat="43.4149" lon="6.06972">
        <ele>205</ele>
        <time>2015-09-23T14:29:15Z</time>
      </trkpt>
      <trkpt lat="43.41498" lon="6.0697">
        <ele>205.19999694824</ele>
        <time>2015-09-23T14:29:17Z</time>
      </trkpt>
      <trkpt lat="43.41507" lon="6.06972">
        <ele>205.19999694824</ele>
        <time>2015-09-23T14:29:21Z</time>
      </trkpt>
      <trkpt lat="43.41515" lon="6.06974">
        <ele>205.80000305176</ele>
        <time>2015-09-23T14:29:25Z</time>
      </trkpt>
      <trkpt lat="43.4152" lon="6.06976">
        <ele>205.80000305176</ele>
        <time>2015-09-23T14:29:27Z</time>
      </trkpt>
      <trkpt lat="43.41539" lon="6.06976">
        <ele>205.60000610352</ele>
        <time>2015-09-23T14:29:35Z</time>
      </trkpt>
      <trkpt lat="43.4155" lon="6.06977">
        <ele>204.80000305176</ele>
        <time>2015-09-23T14:29:41Z</time>
      </trkpt>
      <trkpt lat="43.41565" lon="6.06975">
        <ele>206.19999694824</ele>
        <time>2015-09-23T14:29:48Z</time>
      </trkpt>
      <trkpt lat="43.41569" lon="6.06975">
        <ele>206.39999389648</ele>
        <time>2015-09-23T14:29:50Z</time>
      </trkpt>
      <trkpt lat="43.41573" lon="6.06979">
        <ele>206.39999389648</ele>
        <time>2015-09-23T14:29:53Z</time>
      </trkpt>
      <trkpt lat="43.41576" lon="6.06984">
        <ele>206.19999694824</ele>
        <time>2015-09-23T14:29:58Z</time>
      </trkpt>
      <trkpt lat="43.41577" lon="6.06994">
        <ele>206.19999694824</ele>
        <time>2015-09-23T14:30:03Z</time>
      </trkpt>
      <trkpt lat="43.41578" lon="6.06999">
        <ele>206.60000610352</ele>
        <time>2015-09-23T14:30:05Z</time>
      </trkpt>
      <trkpt lat="43.41581" lon="6.07023">
        <ele>206.60000610352</ele>
        <time>2015-09-23T14:30:14Z</time>
      </trkpt>
      <trkpt lat="43.41582" lon="6.07034">
        <ele>206.60000610352</ele>
        <time>2015-09-23T14:30:20Z</time>
      </trkpt>
      <trkpt lat="43.41582" lon="6.07035">
        <ele>206.60000610352</ele>
        <time>2015-09-23T14:30:21Z</time>
      </trkpt>
      <trkpt lat="43.41582" lon="6.07035">
        <ele>206.39999389648</ele>
        <time>2015-09-23T14:30:24Z</time>
      </trkpt>
    </trkseg>
  </trk>
</gpx>